[[{"header":{"parameterUnit":"m.s-1","parameterCategory":1,"la1":31.0,"la2":29.5877,"lo1":-88.7671,"lo2":-86.6584,"dy":0.0162,"dx":0.0185,"nx":115,"ny":88,"refTime":"2026-03-29T00:00:00:Z","depth":0,"parameterNumber":2,"parameterNumberName":"U-component_of_WINDS"},"data":[0.0,0.0,0.0,0.0,0.0,0.0,0.0,0.0,0.0,0.0,0.0,0.0,0.0,0.0,0.0,0.0,0.0,0.0,0.0,0.0,0.0,0.0,0.0,0.0,0.0,0.0,0.0,0.0,0.0,0.0,0.0,0.0,0.0,0.0,0.0,0.0,0.0,0.0,0.0,0.0,0.0,0.0,0.0,0.0,0.0,0.0,0.0,0.0,0.0,0.0,0.0,0.0,0.0,0.0,0.0,0.0,0.0,0.0,0.0,0.0,0.0,0.0,0.0,0.0,0.0,0.0,0.0,0.0,0.0,0.0,0.0,0.0,0.0,0.0,0.0,0.0,0.0,0.0,0.0,0.0,0.0,0.0,0.0,0.0,0.0,0.0,0.0,0.0,0.0,0.0,0.0,0.0,0.0,0.0,0.0,0.0,0.0,0.0,0.0,0.0,0.0,0.0,0.0,0.0,0.0,0.0,0.0,0.0,0.0,0.0,0.0,0.0,0.0,0.0,0.0,0.0,0.0,0.0,0.0,0.0,0.0,0.0,0.0,0.0,0.0,0.0,0.0,0.0,0.0,0.0,0.0,0.0,0.0,0.0,0.0,0.0,0.0,0.0,0.0,0.0,0.0,0.0,0.0,0.0,0.0,0.0,0.0,0.0,0.0,0.0,0.0,0.0,0.0,0.0,0.0,0.0,0.0,0.0,0.0,0.0,0.0,0.0,0.0,0.0,0.0,0.0,0.0,0.0,0.0,0.0,0.0,0.0,0.0,0.0,0.0,0.0,0.0,0.0,0.0,0.0,0.0,0.0,0.0,0.0,0.0,0.0,0.0,0.0,0.0,0.0,0.0,0.0,0.0,0.0,0.0,0.0,0.0,0.0,0.0,0.0,0.0,0.0,0.0,0.0,0.0,0.0,0.0,0.0,0.0,0.0,0.0,0.0,0.0,0.0,0.0,0.0,0.0,0.0,0.0,0.0,0.0,0.0,0.0,0.0,0.0,0.0,0.0,0.0,0.0,0.0,0.0,0.0,0.0,0.0,0.0,0.0,0.0,0.0,0.0,0.0,0.0,0.0,0.0,0.0,0.0,0.0,0.0,0.0,0.0,0.0,0.0,0.0,0.0,0.0,0.0,0.0,0.0,0.0,0.0,0.0,0.0,0.0,0.0,0.0,0.0,0.0,0.0,0.0,0.0,0.0,0.0,0.0,0.0,0.0,0.0,0.0,0.0,0.0,0.0,0.0,0.0,0.0,0.0,0.0,0.0,0.0,0.0,0.0,0.0,0.0,0.0,0.0,0.0,0.0,0.0,0.0,0.0,0.0,0.0,0.0,0.0,0.0,0.0,0.0,0.0,0.0,0.0,0.0,0.0,0.0,0.0,0.0,0.0,0.0,0.0,0.0,0.0,0.0,0.0,0.0,0.0,0.0,0.0,0.0,0.0,0.0,0.0,0.0,0.0,0.0,0.0,0.0,0.0,0.0,0.0,0.0,0.0,0.0,0.0,0.0,0.0,0.0,0.0,0.0,0.0,0.0,0.0,0.0,0.0,0.0,0.0,0.0,0.0,0.0,0.0,0.0,0.0,0.0,0.0,0.0,0.0,0.0,0.0,0.0,0.0,0.0,0.0,0.0,0.0,0.0,0.0,0.0,0.0,0.0,0.0,0.0,0.0,0.0,0.0,0.0,0.0,0.0,0.0,0.0,0.0,0.0,0.0,0.0,0.0,0.0,0.0,0.0,0.0,0.0,0.0,0.0,0.0,0.0,0.0,0.0,0.0,0.0,0.0,0.0,0.0,0.0,0.0,0.0,0.0,0.0,0.0,0.0,0.0,0.0,0.0,0.0,0.0,0.0,0.0,0.0,0.0,0.0,0.0,0.0,0.0,0.0,0.0,0.0,0.0,0.0,0.0,0.0,0.0,0.0,0.0,0.0,0.0,0.0,0.0,0.0,0.0,0.0,0.0,0.0,0.0,0.0,0.0,0.0,0.0,0.0,0.0,0.0,0.0,0.0,0.0,0.0,0.0,0.0,0.0,0.0,0.0,0.0,0.0,0.0,0.0,0.0,0.0,0.0,0.0,0.0,0.0,0.0,0.0,0.0,0.0,0.0,0.0,0.0,0.0,0.0,0.0,0.0,0.0,0.0,0.0,0.0,0.0,0.0,0.0,0.0,0.0,0.0,0.0,0.0,0.0,0.0,0.0,0.0,0.0,0.0,0.0,0.0,0.0,0.0,0.0,0.0,0.0,0.0,0.0,0.0,0.0,0.0,0.0,0.0,0.0,0.0,0.0,0.0,0.0,0.0,0.0,0.0,0.0,0.0,0.0,0.0,0.0,0.0,0.0,0.0,0.0,0.0,0.0,0.0,0.0,0.0,0.0,0.0,0.0,0.0,0.0,0.0,0.0,0.0,0.0,0.0,0.0,0.0,0.0,0.0,0.0,0.0,0.0,0.0,0.0,0.0,0.0,0.0,0.0,0.0,0.0,0.0,0.0,0.0,0.0,0.0,0.0,0.0,0.0,0.0,0.0,0.0,0.0,0.0,0.0,0.0,0.0,0.0,0.0,0.0,0.0,0.0,0.0,0.0,0.0,0.0,0.0,0.0,0.0,0.0,0.0,0.0,0.0,0.0,0.0,0.0,0.0,0.0,0.0,0.0,0.0,0.0,0.0,0.0,0.0,0.0,0.0,0.0,0.0,0.0,0.0,0.0,0.0,0.0,0.0,0.0,0.0,0.0,0.0,0.0,0.0,0.0,0.0,0.0,0.0,0.0,0.0,0.0,0.0,0.0,0.0,0.0,0.0,0.0,0.0,0.0,0.0,0.0,0.0,0.0,0.0,0.0,0.0,0.0,0.0,0.0,0.0,0.0,0.0,0.0,0.0,0.0,0.0,0.0,0.0,0.0,0.0,0.0,0.0,0.0,0.0,0.0,0.0,0.0,0.0,0.0,0.0,0.0,0.0,0.0,0.0,0.0,0.0,0.0,0.0,0.0,0.0,0.0,0.0,0.0,0.0,0.0,0.0,0.0,0.0,0.0,0.0,0.0,0.0,0.0,0.0,0.0,0.0,0.0,0.0,0.0,0.0,0.0,0.0,0.0,0.0,0.0,0.0,0.0,0.0,0.0,0.0,0.0,0.0,0.0,0.0,0.0,0.0,0.0,0.0,0.0,0.0,0.0,0.0,0.0,0.0,0.0,0.0,0.0,0.0,0.0,0.0,0.0,0.0,0.0,0.0,0.0,0.0,0.0,0.0,0.0,0.0,0.0,0.0,0.0,0.0,0.0,0.0,0.0,0.0,0.0,0.0,0.0,0.0,0.0,0.0,0.0,0.0,0.0,0.0,0.0,0.0,0.0,0.0,0.0,0.0,0.0,0.0,0.0,0.0,0.0,0.0,0.0,0.0,0.0,0.0,0.0,0.0,0.0,0.0,0.0,0.0,0.0,0.0,0.0,0.0,0.0,0.0,0.0,0.0,0.0,0.0,0.0,0.0,0.0,0.0,0.0,0.0,0.0,0.0,0.0,0.0,0.0,0.0,0.0,0.0,0.0,0.0,0.0,0.0,0.0,0.0,0.0,0.0,0.0,0.0,0.0,0.0,0.0,0.0,0.0,0.0,0.0,0.0,0.0,0.0,0.0,0.0,0.0,0.0,0.0,0.0,0.0,0.0,0.0,0.0,0.0,0.0,0.0,0.0,0.0,0.0,0.0,0.0,0.0,0.0,0.0,0.0,0.0,0.0,0.0,0.0,0.0,0.0,0.0,0.0,0.0,0.0,0.0,0.0,0.0,0.0,0.0,0.0,0.0,0.0,0.0,0.0,0.0,0.0,0.0,0.0,0.0,0.0,0.0,0.0,0.0,0.0,0.0,0.0,0.0,0.0,0.0,0.0,0.0,0.0,0.0,0.0,0.0,0.0,0.0,0.0,0.0,0.0,0.0,0.0,0.0,0.0,0.0,0.0,0.0,0.0,0.0,0.0,0.0,0.0,0.0,0.0,0.0,0.0,0.0,0.0,0.0,0.0,0.0,0.0,0.0,0.0,0.0,0.0,0.0,0.0,0.0,0.0,0.0,0.0,0.0,0.0,0.0,0.0,0.0,0.0,0.0,0.0,0.0,0.0,0.0,0.0,0.0,0.0,0.0,0.0,0.0,0.0,0.0,0.0,0.0,0.0,0.0,0.0,0.0,0.0,0.0,0.0,0.0,0.0,0.0,0.0,0.0,0.0,0.0,0.0,0.0,0.0,0.0,0.0,0.0,0.0,0.0,0.0,0.0,-4.4496,0.0,0.0,0.0,0.0,0.0,0.0,0.0,0.0,0.0,0.0,0.0,0.0,0.0,0.0,0.0,0.0,0.0,0.0,0.0,0.0,0.0,0.0,0.0,0.0,0.0,0.0,0.0,0.0,0.0,0.0,0.0,0.0,0.0,0.0,0.0,0.0,0.0,0.0,0.0,0.0,0.0,0.0,0.0,0.0,0.0,0.0,0.0,0.0,0.0,0.0,0.0,0.0,0.0,0.0,0.0,0.0,0.0,0.0,0.0,0.0,0.0,0.0,0.0,0.0,0.0,0.0,0.0,0.0,0.0,0.0,0.0,0.0,0.0,0.0,0.0,0.0,0.0,0.0,0.0,0.0,0.0,0.0,0.0,0.0,0.0,0.0,0.0,0.0,0.0,0.0,0.0,0.0,0.0,0.0,0.0,0.0,0.0,0.0,0.0,0.0,0.0,0.0,0.0,0.0,0.0,0.0,0.0,0.0,0.0,0.0,-4.8395,-4.8764,-4.8074,-4.689,-4.5302,0.0,0.0,0.0,0.0,0.0,0.0,0.0,0.0,0.0,0.0,0.0,0.0,0.0,0.0,0.0,0.0,0.0,0.0,0.0,0.0,0.0,0.0,0.0,0.0,0.0,0.0,0.0,0.0,0.0,0.0,0.0,0.0,0.0,0.0,0.0,0.0,0.0,0.0,0.0,0.0,0.0,0.0,0.0,0.0,0.0,0.0,0.0,0.0,0.0,0.0,0.0,0.0,0.0,0.0,0.0,0.0,0.0,0.0,0.0,0.0,0.0,0.0,0.0,0.0,0.0,0.0,0.0,0.0,0.0,0.0,0.0,0.0,0.0,0.0,0.0,0.0,0.0,0.0,0.0,0.0,0.0,0.0,0.0,0.0,0.0,0.0,0.0,0.0,0.0,0.0,0.0,0.0,0.0,0.0,0.0,0.0,0.0,0.0,0.0,0.0,0.0,0.0,0.0,0.0,0.0,0.0,0.0,0.0,0.0,0.0,0.0,0.0,-4.8746,-4.7533,-4.5588,0.0,0.0,0.0,0.0,0.0,0.0,0.0,0.0,0.0,0.0,0.0,0.0,0.0,0.0,0.0,0.0,0.0,0.0,0.0,0.0,0.0,0.0,0.0,0.0,0.0,0.0,0.0,0.0,0.0,0.0,0.0,0.0,0.0,0.0,0.0,0.0,0.0,0.0,0.0,0.0,0.0,0.0,0.0,0.0,0.0,0.0,0.0,0.0,0.0,0.0,0.0,0.0,0.0,0.0,0.0,0.0,0.0,0.0,0.0,0.0,0.0,0.0,0.0,0.0,0.0,0.0,0.0,0.0,0.0,0.0,0.0,0.0,0.0,0.0,0.0,0.0,0.0,0.0,0.0,0.0,0.0,0.0,0.0,0.0,0.0,0.0,0.0,0.0,0.0,0.0,0.0,0.0,0.0,0.0,0.0,0.0,0.0,0.0,0.0,0.0,0.0,0.0,0.0,0.0,0.0,0.0,0.0,0.0,0.0,0.0,-4.9222,-4.9293,-4.9222,0.0,-4.4924,0.0,0.0,0.0,0.0,0.0,0.0,0.0,0.0,0.0,0.0,0.0,0.0,0.0,0.0,0.0,0.0,0.0,0.0,0.0,0.0,0.0,0.0,0.0,0.0,0.0,0.0,0.0,0.0,0.0,0.0,0.0,0.0,0.0,0.0,0.0,0.0,0.0,0.0,0.0,0.0,0.0,0.0,0.0,0.0,0.0,0.0,0.0,0.0,0.0,0.0,0.0,0.0,0.0,0.0,0.0,0.0,0.0,0.0,0.0,0.0,0.0,0.0,0.0,0.0,0.0,0.0,0.0,0.0,0.0,0.0,0.0,0.0,0.0,0.0,0.0,0.0,0.0,0.0,0.0,0.0,0.0,0.0,0.0,0.0,0.0,0.0,0.0,0.0,0.0,0.0,0.0,0.0,0.0,0.0,0.0,0.0,0.0,0.0,0.0,0.0,0.0,0.0,0.0,0.0,0.0,0.0,0.0,0.0,0.0,0.0,-5.0245,-5.0709,-4.8606,-4.6418,0.0,0.0,0.0,0.0,0.0,0.0,0.0,0.0,0.0,0.0,0.0,0.0,0.0,0.0,0.0,0.0,0.0,0.0,0.0,0.0,0.0,0.0,0.0,0.0,0.0,0.0,0.0,0.0,0.0,0.0,0.0,0.0,0.0,0.0,0.0,0.0,0.0,0.0,0.0,0.0,0.0,0.0,0.0,0.0,0.0,0.0,0.0,0.0,0.0,0.0,0.0,0.0,0.0,0.0,0.0,0.0,0.0,0.0,0.0,0.0,0.0,0.0,0.0,0.0,0.0,0.0,0.0,0.0,0.0,0.0,0.0,0.0,0.0,0.0,0.0,0.0,0.0,0.0,0.0,0.0,0.0,0.0,0.0,0.0,0.0,0.0,0.0,0.0,0.0,0.0,0.0,0.0,0.0,0.0,0.0,0.0,0.0,0.0,0.0,0.0,0.0,0.0,0.0,0.0,0.0,0.0,0.0,0.0,0.0,0.0,-4.9688,-5.0275,-5.0317,-4.7533,-4.5156,-4.3424,0.0,0.0,0.0,0.0,0.0,0.0,0.0,0.0,0.0,0.0,0.0,0.0,0.0,0.0,0.0,0.0,0.0,0.0,0.0,0.0,0.0,0.0,0.0,0.0,0.0,0.0,0.0,0.0,0.0,0.0,0.0,0.0,0.0,0.0,0.0,0.0,0.0,0.0,0.0,0.0,0.0,0.0,0.0,0.0,0.0,0.0,0.0,0.0,0.0,0.0,0.0,0.0,0.0,0.0,0.0,0.0,0.0,0.0,0.0,0.0,0.0,0.0,0.0,0.0,0.0,0.0,0.0,0.0,0.0,0.0,0.0,0.0,0.0,0.0,0.0,0.0,0.0,0.0,0.0,0.0,0.0,0.0,0.0,0.0,0.0,0.0,0.0,0.0,0.0,0.0,0.0,0.0,0.0,0.0,0.0,0.0,0.0,0.0,0.0,0.0,0.0,0.0,0.0,0.0,0.0,0.0,0.0,0.0,0.0,-4.8796,-4.8785,-4.7522,-4.6057,-4.4319,0.0,0.0,0.0,0.0,0.0,0.0,0.0,0.0,0.0,0.0,0.0,0.0,0.0,0.0,0.0,0.0,0.0,0.0,0.0,0.0,0.0,0.0,0.0,0.0,0.0,0.0,0.0,0.0,0.0,0.0,0.0,0.0,0.0,0.0,0.0,0.0,0.0,0.0,0.0,0.0,0.0,0.0,0.0,0.0,0.0,0.0,0.0,0.0,0.0,0.0,0.0,0.0,0.0,0.0,0.0,0.0,0.0,0.0,0.0,0.0,0.0,0.0,0.0,0.0,0.0,0.0,0.0,0.0,0.0,0.0,0.0,0.0,0.0,0.0,0.0,0.0,0.0,0.0,0.0,0.0,0.0,0.0,0.0,0.0,0.0,0.0,0.0,0.0,0.0,0.0,0.0,0.0,0.0,0.0,0.0,0.0,0.0,0.0,0.0,0.0,0.0,0.0,0.0,0.0,0.0,0.0,0.0,0.0,0.0,-4.7114,-4.8443,-4.851,-4.7157,-4.5459,-4.3589,0.0,0.0,0.0,0.0,0.0,0.0,0.0,0.0,0.0,0.0,0.0,0.0,0.0,0.0,0.0,0.0,0.0,0.0,0.0,0.0,0.0,0.0,0.0,0.0,0.0,0.0,0.0,0.0,0.0,0.0,0.0,0.0,0.0,0.0,0.0,0.0,0.0,0.0,0.0,0.0,0.0,0.0,0.0,0.0,0.0,0.0,0.0,0.0,0.0,0.0,0.0,0.0,0.0,0.0,0.0,0.0,0.0,0.0,0.0,0.0,0.0,0.0,0.0,0.0,0.0,0.0,0.0,0.0,0.0,0.0,0.0,0.0,0.0,0.0,0.0,0.0,0.0,0.0,0.0,0.0,0.0,0.0,0.0,0.0,0.0,0.0,0.0,0.0,0.0,0.0,0.0,0.0,0.0,0.0,0.0,0.0,0.0,0.0,0.0,0.0,0.0,0.0,0.0,0.0,0.0,0.0,0.0,0.0,0.0,-4.7138,0.0,-4.7765,0.0,-4.4844,-4.2993,0.0,0.0,0.0,0.0,0.0,0.0,0.0,0.0,0.0,0.0,0.0,0.0,0.0,0.0,0.0,0.0,0.0,0.0,0.0,0.0,0.0,0.0,0.0,0.0,0.0,0.0,0.0,0.0,0.0,0.0,0.0,0.0,0.0,0.0,0.0,0.0,0.0,0.0,0.0,0.0,0.0,0.0,0.0,0.0,0.0,0.0,0.0,0.0,0.0,0.0,0.0,0.0,0.0,0.0,0.0,0.0,0.0,0.0,0.0,0.0,0.0,0.0,0.0,0.0,0.0,0.0,0.0,0.0,0.0,0.0,0.0,0.0,0.0,0.0,0.0,0.0,0.0,0.0,0.0,0.0,0.0,0.0,0.0,0.0,0.0,0.0,0.0,0.0,0.0,0.0,0.0,0.0,0.0,0.0,0.0,0.0,0.0,0.0,0.0,0.0,0.0,0.0,0.0,0.0,0.0,0.0,0.0,0.0,-4.5657,-4.744,-4.7139,-4.6564,-4.545,-4.4269,-4.2614,0.0,0.0,0.0,0.0,0.0,0.0,0.0,0.0,0.0,0.0,0.0,0.0,0.0,0.0,0.0,0.0,0.0,0.0,0.0,0.0,0.0,0.0,0.0,0.0,0.0,0.0,0.0,0.0,0.0,0.0,0.0,0.0,0.0,0.0,0.0,0.0,0.0,0.0,0.0,0.0,0.0,0.0,0.0,0.0,0.0,0.0,0.0,0.0,0.0,0.0,0.0,0.0,0.0,0.0,0.0,0.0,0.0,0.0,0.0,0.0,0.0,0.0,0.0,0.0,0.0,0.0,0.0,0.0,0.0,0.0,0.0,0.0,0.0,0.0,0.0,0.0,0.0,0.0,0.0,0.0,0.0,0.0,0.0,0.0,0.0,0.0,0.0,0.0,0.0,0.0,0.0,0.0,0.0,0.0,0.0,0.0,0.0,0.0,0.0,0.0,0.0,0.0,0.0,0.0,0.0,0.0,0.0,0.0,0.0,-4.6452,-4.6861,-4.7018,-4.6851,-4.4598,-4.2867,0.0,0.0,0.0,0.0,0.0,0.0,0.0,0.0,0.0,0.0,0.0,0.0,0.0,0.0,0.0,0.0,0.0,0.0,0.0,0.0,0.0,0.0,0.0,0.0,0.0,0.0,0.0,0.0,0.0,0.0,0.0,0.0,0.0,0.0,0.0,0.0,0.0,0.0,0.0,0.0,0.0,0.0,0.0,0.0,0.0,0.0,0.0,0.0,0.0,0.0,0.0,0.0,0.0,0.0,0.0,0.0,0.0,0.0,0.0,0.0,0.0,0.0,0.0,0.0,0.0,0.0,0.0,0.0,0.0,0.0,0.0,0.0,0.0,0.0,0.0,0.0,0.0,0.0,0.0,0.0,0.0,0.0,0.0,0.0,0.0,0.0,0.0,0.0,0.0,0.0,0.0,0.0,0.0,0.0,0.0,0.0,0.0,0.0,0.0,0.0,0.0,0.0,0.0,0.0,0.0,0.0,0.0,0.0,0.0,-4.6756,-4.746,-4.7813,-4.7766,-4.544,-4.3623,-4.2518,0.0,0.0,0.0,0.0,0.0,0.0,0.0,0.0,0.0,0.0,0.0,0.0,0.0,0.0,0.0,0.0,0.0,0.0,0.0,0.0,0.0,0.0,0.0,0.0,0.0,0.0,0.0,0.0,0.0,0.0,0.0,0.0,0.0,0.0,0.0,0.0,0.0,0.0,0.0,0.0,0.0,0.0,0.0,0.0,0.0,0.0,0.0,0.0,0.0,0.0,0.0,0.0,0.0,0.0,0.0,0.0,0.0,0.0,0.0,0.0,0.0,0.0,0.0,0.0,0.0,0.0,0.0,0.0,0.0,0.0,0.0,0.0,0.0,0.0,0.0,0.0,0.0,0.0,0.0,0.0,0.0,0.0,0.0,0.0,0.0,0.0,0.0,0.0,0.0,0.0,0.0,0.0,0.0,0.0,0.0,0.0,0.0,0.0,0.0,0.0,0.0,0.0,0.0,0.0,0.0,0.0,0.0,0.0,-4.8067,-4.8845,-4.8895,-4.8216,-4.6609,-4.4821,0.0,0.0,0.0,0.0,0.0,0.0,0.0,0.0,0.0,0.0,0.0,0.0,0.0,0.0,0.0,0.0,0.0,0.0,0.0,0.0,0.0,0.0,0.0,0.0,0.0,0.0,0.0,0.0,0.0,0.0,0.0,0.0,0.0,0.0,0.0,0.0,0.0,0.0,0.0,0.0,0.0,0.0,0.0,0.0,0.0,0.0,0.0,0.0,0.0,0.0,0.0,0.0,0.0,0.0,0.0,0.0,0.0,0.0,0.0,0.0,0.0,0.0,0.0,0.0,0.0,0.0,0.0,0.0,0.0,0.0,0.0,0.0,0.0,0.0,0.0,0.0,0.0,0.0,0.0,0.0,0.0,0.0,0.0,0.0,0.0,0.0,0.0,0.0,0.0,0.0,0.0,0.0,0.0,0.0,0.0,0.0,0.0,0.0,0.0,0.0,0.0,0.0,0.0,0.0,0.0,0.0,0.0,0.0,0.0,-4.9337,-5.0251,-5.0618,-5.0353,-4.7421,-4.5533,0.0,0.0,0.0,0.0,0.0,0.0,0.0,0.0,0.0,0.0,0.0,0.0,0.0,0.0,0.0,0.0,0.0,0.0,0.0,0.0,0.0,0.0,0.0,0.0,0.0,0.0,0.0,0.0,0.0,0.0,0.0,0.0,0.0,0.0,0.0,0.0,0.0,0.0,0.0,0.0,0.0,0.0,0.0,0.0,0.0,0.0,0.0,0.0,0.0,0.0,0.0,0.0,0.0,0.0,0.0,0.0,0.0,0.0,0.0,0.0,0.0,0.0,0.0,0.0,0.0,0.0,0.0,0.0,0.0,0.0,0.0,0.0,0.0,0.0,0.0,0.0,0.0,0.0,0.0,0.0,0.0,0.0,0.0,0.0,0.0,0.0,0.0,0.0,0.0,0.0,0.0,0.0,0.0,0.0,0.0,0.0,0.0,0.0,0.0,0.0,0.0,0.0,0.0,0.0,0.0,0.0,0.0,0.0,-4.863,-5.0323,-5.1293,-5.1877,-5.2051,-4.9126,-4.6992,0.0,0.0,0.0,0.0,0.0,0.0,0.0,0.0,0.0,0.0,0.0,0.0,0.0,0.0,0.0,0.0,0.0,0.0,0.0,0.0,0.0,0.0,0.0,0.0,0.0,0.0,0.0,0.0,0.0,0.0,0.0,0.0,0.0,0.0,0.0,0.0,0.0,0.0,0.0,0.0,0.0,0.0,0.0,0.0,0.0,0.0,0.0,0.0,0.0,0.0,0.0,0.0,0.0,0.0,0.0,0.0,0.0,0.0,0.0,0.0,0.0,0.0,0.0,0.0,0.0,0.0,0.0,0.0,0.0,0.0,0.0,0.0,0.0,0.0,0.0,0.0,0.0,0.0,0.0,0.0,0.0,0.0,0.0,0.0,0.0,0.0,0.0,0.0,0.0,0.0,0.0,0.0,0.0,0.0,0.0,0.0,0.0,0.0,0.0,0.0,0.0,0.0,0.0,0.0,0.0,0.0,0.0,0.0,-4.9802,-5.1163,-5.1982,-5.266,-5.2963,-5.0859,-4.8478,0.0,0.0,0.0,0.0,0.0,0.0,0.0,0.0,0.0,0.0,0.0,0.0,0.0,0.0,0.0,0.0,0.0,0.0,0.0,0.0,0.0,0.0,0.0,0.0,0.0,0.0,0.0,0.0,0.0,0.0,0.0,0.0,0.0,0.0,0.0,0.0,0.0,0.0,0.0,0.0,0.0,0.0,0.0,0.0,0.0,0.0,0.0,0.0,0.0,0.0,0.0,0.0,0.0,0.0,0.0,0.0,0.0,0.0,0.0,0.0,0.0,0.0,0.0,0.0,0.0,0.0,0.0,0.0,0.0,0.0,0.0,0.0,0.0,0.0,0.0,0.0,0.0,0.0,0.0,0.0,0.0,0.0,0.0,0.0,0.0,0.0,0.0,0.0,0.0,0.0,0.0,0.0,0.0,0.0,0.0,0.0,0.0,0.0,0.0,0.0,0.0,0.0,0.0,0.0,0.0,0.0,0.0,0.0,-5.0457,-5.2425,-5.2643,-5.2779,-5.29,-4.9775,-4.7521,0.0,0.0,0.0,0.0,0.0,0.0,0.0,0.0,0.0,0.0,0.0,0.0,0.0,0.0,0.0,0.0,0.0,0.0,0.0,0.0,0.0,0.0,0.0,0.0,0.0,0.0,0.0,0.0,0.0,0.0,0.0,0.0,0.0,0.0,0.0,0.0,0.0,0.0,0.0,0.0,0.0,0.0,0.0,0.0,0.0,0.0,0.0,0.0,-4.6281,0.0,0.0,0.0,0.0,0.0,0.0,0.0,0.0,0.0,0.0,0.0,0.0,0.0,0.0,0.0,0.0,0.0,0.0,0.0,0.0,0.0,0.0,0.0,0.0,0.0,0.0,0.0,0.0,0.0,0.0,0.0,0.0,0.0,0.0,0.0,0.0,0.0,0.0,0.0,0.0,0.0,0.0,0.0,0.0,0.0,0.0,0.0,0.0,0.0,0.0,0.0,0.0,0.0,0.0,0.0,0.0,0.0,0.0,0.0,-5.0988,-5.2697,-5.3095,-5.3262,-5.2973,-4.9912,-4.7411,0.0,0.0,0.0,0.0,0.0,0.0,0.0,0.0,0.0,0.0,0.0,0.0,0.0,0.0,0.0,0.0,0.0,0.0,0.0,0.0,0.0,0.0,0.0,0.0,0.0,0.0,0.0,0.0,0.0,0.0,0.0,0.0,0.0,0.0,0.0,0.0,0.0,0.0,0.0,0.0,0.0,0.0,0.0,0.0,0.0,0.0,0.0,0.0,0.0,0.0,0.0,0.0,0.0,0.0,0.0,0.0,0.0,0.0,0.0,0.0,0.0,0.0,0.0,0.0,0.0,0.0,0.0,0.0,0.0,0.0,0.0,0.0,0.0,0.0,0.0,0.0,0.0,0.0,0.0,0.0,0.0,0.0,0.0,0.0,0.0,0.0,0.0,0.0,0.0,0.0,0.0,0.0,0.0,0.0,0.0,0.0,0.0,0.0,0.0,0.0,0.0,0.0,0.0,0.0,0.0,0.0,0.0,-4.9281,-5.1443,-5.2851,-5.3524,-5.359,-5.3053,-5.0211,-4.7395,-4.4816,0.0,0.0,0.0,0.0,0.0,0.0,0.0,0.0,0.0,0.0,0.0,0.0,0.0,0.0,0.0,0.0,0.0,0.0,0.0,0.0,0.0,0.0,0.0,0.0,0.0,0.0,0.0,0.0,0.0,0.0,0.0,0.0,0.0,0.0,0.0,0.0,0.0,0.0,-4.296,-4.4158,0.0,0.0,0.0,0.0,0.0,0.0,0.0,0.0,-4.4653,0.0,0.0,0.0,0.0,0.0,0.0,0.0,0.0,0.0,0.0,0.0,0.0,0.0,0.0,0.0,0.0,0.0,0.0,0.0,0.0,0.0,0.0,0.0,0.0,0.0,0.0,0.0,0.0,0.0,0.0,0.0,0.0,0.0,0.0,0.0,0.0,0.0,0.0,0.0,0.0,0.0,0.0,0.0,0.0,0.0,0.0,0.0,0.0,0.0,0.0,0.0,0.0,0.0,0.0,0.0,0.0,-4.8316,-4.989,-5.1917,-5.4284,-5.3705,-5.299,-5.2102,-4.9133,-4.616,-4.3502,0.0,0.0,0.0,0.0,0.0,0.0,0.0,0.0,0.0,0.0,0.0,0.0,0.0,0.0,0.0,0.0,0.0,0.0,0.0,0.0,0.0,0.0,0.0,0.0,0.0,0.0,0.0,0.0,0.0,0.0,0.0,0.0,0.0,0.0,0.0,0.0,0.0,0.0,0.0,-4.5864,-4.6146,0.0,0.0,0.0,0.0,0.0,0.0,0.0,0.0,-4.4846,0.0,0.0,0.0,0.0,0.0,0.0,0.0,0.0,0.0,0.0,0.0,0.0,0.0,0.0,0.0,0.0,0.0,0.0,0.0,0.0,0.0,0.0,0.0,0.0,0.0,0.0,0.0,0.0,0.0,0.0,0.0,0.0,0.0,0.0,0.0,0.0,0.0,0.0,0.0,0.0,0.0,0.0,0.0,0.0,0.0,0.0,0.0,0.0,0.0,0.0,0.0,0.0,0.0,0.0,0.0,-4.6957,-4.9045,-5.1056,-5.297,-5.2957,-5.2479,-5.1499,-4.8739,-4.6057,0.0,0.0,0.0,0.0,0.0,0.0,0.0,0.0,0.0,0.0,0.0,0.0,0.0,0.0,0.0,0.0,0.0,0.0,0.0,0.0,0.0,0.0,0.0,0.0,0.0,0.0,0.0,0.0,0.0,0.0,0.0,0.0,0.0,0.0,0.0,0.0,0.0,0.0,0.0,0.0,-4.5708,-4.6078,-4.7179,0.0,0.0,0.0,0.0,0.0,0.0,-4.54,-4.5069,0.0,0.0,0.0,0.0,0.0,0.0,0.0,0.0,0.0,0.0,0.0,0.0,0.0,0.0,0.0,0.0,0.0,0.0,0.0,0.0,0.0,0.0,0.0,0.0,0.0,0.0,0.0,0.0,0.0,0.0,0.0,0.0,0.0,0.0,0.0,0.0,0.0,0.0,0.0,0.0,0.0,0.0,0.0,0.0,0.0,0.0,0.0,0.0,0.0,0.0,0.0,0.0,0.0,0.0,0.0,-4.5563,-4.8096,-5.0143,-5.1669,-5.215,-5.1942,-5.1065,-4.8447,-4.6061,0.0,0.0,0.0,0.0,0.0,0.0,0.0,0.0,0.0,0.0,0.0,0.0,0.0,0.0,0.0,0.0,0.0,0.0,0.0,0.0,0.0,0.0,0.0,0.0,0.0,0.0,0.0,0.0,0.0,0.0,0.0,0.0,0.0,0.0,0.0,0.0,0.0,0.0,0.0,0.0,0.0,-4.6034,-4.6496,-4.6032,0.0,0.0,0.0,0.0,-4.5767,-4.5554,0.0,0.0,0.0,0.0,0.0,0.0,0.0,0.0,0.0,0.0,0.0,0.0,0.0,0.0,0.0,0.0,0.0,0.0,0.0,0.0,0.0,0.0,0.0,0.0,0.0,0.0,0.0,0.0,0.0,0.0,0.0,0.0,0.0,0.0,0.0,0.0,0.0,0.0,0.0,0.0,0.0,0.0,0.0,0.0,0.0,0.0,0.0,0.0,0.0,0.0,0.0,0.0,0.0,0.0,0.0,0.0,-4.6033,-4.8038,-5.0162,-5.2329,-5.1911,-5.1482,-5.1079,-4.7861,-4.5418,0.0,0.0,0.0,0.0,0.0,0.0,0.0,0.0,0.0,0.0,0.0,0.0,0.0,0.0,0.0,0.0,0.0,0.0,0.0,0.0,0.0,0.0,0.0,0.0,0.0,0.0,0.0,0.0,0.0,0.0,0.0,0.0,0.0,0.0,0.0,0.0,0.0,0.0,0.0,0.0,0.0,-4.6608,-4.6222,-4.6125,-4.5802,0.0,0.0,-4.6013,-4.6002,-4.6823,0.0,0.0,0.0,0.0,0.0,0.0,0.0,0.0,0.0,0.0,0.0,0.0,0.0,0.0,0.0,0.0,0.0,0.0,0.0,0.0,0.0,0.0,0.0,0.0,0.0,0.0,0.0,0.0,0.0,0.0,0.0,0.0,0.0,0.0,0.0,0.0,0.0,0.0,0.0,0.0,0.0,0.0,0.0,0.0,0.0,0.0,0.0,0.0,0.0,0.0,0.0,0.0,0.0,0.0,0.0,-4.2499,-4.4897,-4.7178,-4.9164,-5.0877,-5.0621,-5.0221,-4.9757,-4.6863,-4.456,0.0,0.0,0.0,0.0,0.0,0.0,0.0,0.0,0.0,0.0,0.0,0.0,0.0,0.0,0.0,0.0,0.0,0.0,0.0,0.0,0.0,0.0,0.0,0.0,0.0,0.0,0.0,0.0,0.0,0.0,0.0,0.0,0.0,0.0,0.0,0.0,0.0,0.0,0.0,0.0,0.0,0.0,-4.5238,-4.595,0.0,0.0,0.0,-4.6547,-4.647,0.0,0.0,0.0,0.0,0.0,0.0,0.0,0.0,0.0,0.0,0.0,0.0,0.0,0.0,0.0,0.0,0.0,0.0,0.0,0.0,0.0,0.0,0.0,0.0,0.0,0.0,0.0,0.0,0.0,0.0,0.0,0.0,0.0,0.0,0.0,0.0,0.0,0.0,0.0,0.0,0.0,0.0,0.0,0.0,0.0,0.0,0.0,0.0,0.0,0.0,0.0,0.0,0.0,0.0,0.0,0.0,0.0,-4.3993,-4.649,-4.8391,-4.9625,-4.9732,-4.9364,-4.8711,-4.6388,0.0,0.0,0.0,0.0,0.0,0.0,0.0,0.0,0.0,0.0,0.0,0.0,0.0,0.0,0.0,0.0,0.0,0.0,0.0,0.0,0.0,0.0,0.0,0.0,0.0,0.0,0.0,-3.2478,0.0,0.0,0.0,0.0,0.0,0.0,0.0,0.0,0.0,0.0,0.0,0.0,0.0,0.0,-4.4125,-4.442,-4.5815,-4.6631,0.0,0.0,-4.6701,-4.6595,-4.7297,-4.7028,0.0,0.0,0.0,0.0,0.0,0.0,0.0,0.0,0.0,0.0,0.0,0.0,0.0,0.0,0.0,0.0,0.0,0.0,0.0,0.0,0.0,0.0,0.0,0.0,0.0,0.0,0.0,0.0,0.0,0.0,0.0,0.0,0.0,0.0,0.0,0.0,0.0,0.0,0.0,0.0,0.0,0.0,0.0,0.0,0.0,0.0,0.0,0.0,0.0,0.0,0.0,0.0,0.0,0.0,0.0,-4.3993,-4.649,-4.8391,-4.9625,-4.9732,-4.9364,-4.8725,-4.6838,-4.4647,0.0,0.0,0.0,0.0,0.0,0.0,0.0,0.0,0.0,0.0,0.0,0.0,0.0,0.0,0.0,0.0,0.0,0.0,0.0,0.0,0.0,0.0,0.0,0.0,0.0,0.0,0.0,0.0,0.0,0.0,0.0,0.0,0.0,0.0,0.0,0.0,0.0,0.0,0.0,0.0,0.0,-4.4618,-4.4095,-4.5814,-4.7044,0.0,0.0,-4.6167,-4.6004,-4.698,-4.6533,-4.2877,0.0,0.0,0.0,0.0,0.0,0.0,0.0,0.0,0.0,0.0,0.0,0.0,0.0,0.0,0.0,0.0,0.0,0.0,0.0,0.0,0.0,0.0,0.0,0.0,0.0,0.0,0.0,0.0,0.0,0.0,0.0,0.0,0.0,0.0,0.0,0.0,0.0,0.0,0.0,0.0,0.0,0.0,0.0,0.0,0.0,0.0,0.0,0.0,0.0,0.0,0.0,0.0,0.0,-4.0688,-4.2931,-4.4869,-4.6722,-4.8532,-4.7943,-4.7452,-4.7145,-4.5416,-4.3004,0.0,0.0,0.0,0.0,0.0,0.0,0.0,0.0,0.0,0.0,0.0,0.0,0.0,0.0,0.0,0.0,0.0,0.0,0.0,0.0,0.0,0.0,0.0,0.0,0.0,0.0,0.0,0.0,-3.3037,-3.3081,-3.2771,0.0,0.0,0.0,0.0,0.0,0.0,0.0,0.0,0.0,0.0,-4.221,-4.3069,-4.4207,0.0,0.0,-4.5356,-4.5362,-4.6312,-4.62,-4.5229,-4.3004,-4.217,0.0,0.0,0.0,0.0,0.0,0.0,0.0,0.0,0.0,0.0,0.0,0.0,0.0,0.0,0.0,0.0,0.0,0.0,0.0,0.0,0.0,0.0,0.0,0.0,0.0,0.0,0.0,0.0,0.0,0.0,0.0,0.0,0.0,0.0,0.0,0.0,0.0,0.0,0.0,0.0,0.0,0.0,0.0,0.0,0.0,0.0,0.0,0.0,0.0,0.0,0.0,0.0,-3.9627,-4.1872,-4.369,-4.5545,-4.7457,-4.6698,-4.6124,-4.5692,-4.4332,-4.1964,0.0,0.0,0.0,0.0,0.0,0.0,0.0,0.0,0.0,0.0,0.0,0.0,0.0,0.0,0.0,0.0,0.0,0.0,0.0,0.0,0.0,0.0,0.0,0.0,0.0,0.0,0.0,0.0,-3.2894,-3.2684,-3.228,0.0,0.0,0.0,0.0,0.0,0.0,0.0,0.0,0.0,0.0,-4.0999,-4.2312,-4.3184,-4.4031,-4.4844,-4.4157,-4.4069,-4.5419,-4.4747,-4.3519,-4.198,0.0,0.0,0.0,0.0,0.0,0.0,0.0,0.0,0.0,0.0,0.0,0.0,0.0,0.0,0.0,0.0,0.0,0.0,0.0,0.0,0.0,0.0,0.0,0.0,0.0,0.0,0.0,-3.8415,0.0,0.0,-3.7544,0.0,0.0,0.0,0.0,0.0,0.0,0.0,0.0,0.0,0.0,0.0,0.0,0.0,0.0,0.0,0.0,0.0,0.0,0.0,0.0,0.0,0.0,-3.9183,-4.1015,-4.3299,-4.5139,-4.6279,-4.6267,-4.5684,-4.4647,-4.3923,-4.201,-3.872,0.0,0.0,0.0,0.0,0.0,0.0,0.0,0.0,0.0,0.0,0.0,0.0,0.0,0.0,0.0,0.0,0.0,0.0,0.0,0.0,0.0,0.0,0.0,0.0,0.0,0.0,-3.0146,-3.0084,-3.0109,0.0,0.0,0.0,0.0,0.0,0.0,0.0,0.0,0.0,0.0,-3.9542,-4.1781,-4.1883,-4.3132,-4.3993,-4.4236,-4.3001,-4.2283,-4.2944,-4.2467,-4.1333,0.0,0.0,0.0,0.0,0.0,0.0,0.0,0.0,0.0,0.0,0.0,0.0,0.0,0.0,0.0,0.0,0.0,0.0,0.0,0.0,0.0,0.0,0.0,0.0,0.0,0.0,0.0,-3.9064,-3.8018,0.0,0.0,0.0,0.0,0.0,0.0,0.0,0.0,0.0,0.0,0.0,-3.7197,-3.7415,0.0,0.0,0.0,0.0,0.0,0.0,0.0,0.0,0.0,0.0,0.0,0.0,-3.7861,-3.9603,-4.1081,-4.2764,-4.4565,-4.3534,-4.2969,-4.2892,-4.1659,-3.9436,-3.6252,0.0,0.0,0.0,0.0,0.0,0.0,0.0,0.0,0.0,0.0,0.0,0.0,0.0,0.0,0.0,0.0,0.0,0.0,0.0,0.0,0.0,0.0,0.0,0.0,0.0,-3.0767,0.0,0.0,0.0,0.0,0.0,0.0,0.0,0.0,0.0,0.0,0.0,-3.4338,-3.5272,-3.7632,-3.9436,-3.9841,-4.0615,-4.1398,0.0,0.0,0.0,0.0,0.0,0.0,0.0,0.0,0.0,0.0,0.0,0.0,0.0,0.0,-4.1237,-3.995,-3.9469,-3.952,-4.0247,0.0,0.0,0.0,0.0,0.0,0.0,0.0,0.0,0.0,0.0,0.0,0.0,0.0,0.0,-3.8738,0.0,-3.7303,0.0,0.0,0.0,0.0,0.0,0.0,0.0,0.0,-3.68,-3.7418,-3.7679,-3.7939,-3.7733,0.0,-3.6836,-3.5978,0.0,0.0,0.0,0.0,0.0,0.0,0.0,0.0,-3.6805,-3.8273,-3.9593,-4.0992,-4.2532,-4.1593,-4.1092,-4.1231,-3.9773,-3.7863,-3.5574,-3.423,-3.2726,0.0,0.0,0.0,0.0,0.0,0.0,0.0,0.0,0.0,0.0,0.0,0.0,0.0,0.0,0.0,0.0,0.0,0.0,0.0,0.0,0.0,0.0,0.0,-3.0493,0.0,0.0,0.0,0.0,0.0,0.0,0.0,0.0,0.0,-3.1045,-3.2017,-3.3043,-3.4557,-3.6405,-3.7846,-3.8489,0.0,0.0,0.0,0.0,0.0,0.0,0.0,-3.8816,-3.8852,-3.8238,-3.7925,-3.8652,-3.9444,-3.992,-3.9763,0.0,0.0,-4.0346,-4.0239,-4.0448,-4.0981,-4.1234,-4.142,-4.1507,-4.2216,-4.2604,0.0,0.0,0.0,0.0,0.0,0.0,0.0,0.0,-3.8371,-3.8113,0.0,-3.75,0.0,0.0,0.0,0.0,0.0,-3.5903,0.0,0.0,-3.8425,-3.9223,-3.8736,-3.8724,-3.8701,-3.8707,-3.8138,-3.7324,-3.6174,-3.4498,0.0,0.0,0.0,0.0,0.0,0.0,-3.6113,-3.7231,-3.8813,-3.9947,-4.0505,-4.0426,-4.0168,-3.9664,-3.8371,-3.7348,-3.6741,-3.526,-3.3948,-3.2844,-3.1473,0.0,0.0,0.0,0.0,0.0,0.0,0.0,0.0,0.0,0.0,0.0,0.0,0.0,0.0,0.0,0.0,0.0,0.0,0.0,0.0,-3.0025,0.0,0.0,0.0,0.0,0.0,0.0,0.0,0.0,0.0,0.0,-2.9478,-3.0651,-3.2171,-3.4238,0.0,0.0,0.0,0.0,-3.8939,-3.8494,-3.8191,-3.8027,-3.8027,-3.7991,-3.7731,-3.7012,0.0,0.0,-3.8128,-3.9088,-3.9662,-3.8909,-3.9947,-4.1301,-4.239,-4.2318,-4.2095,-4.1681,-4.1764,-4.1603,-4.1184,-4.1949,-4.2517,-4.2384,0.0,0.0,0.0,0.0,-3.9416,-3.9722,-4.1015,-4.0495,-3.983,-3.9104,-3.8572,0.0,0.0,0.0,0.0,0.0,0.0,-3.5167,-3.5904,-3.6543,-3.7161,-3.7688,-3.7699,-3.752,-3.7183,-3.7026,-3.6218,-3.4941,-3.4347,-3.3756,-3.3059,0.0,0.0,0.0,0.0,-3.6234,-3.6965,-3.8315,-3.9352,-3.9849,-3.9498,-3.905,-3.8505,-3.8084,-3.7441,-3.6548,-3.6066,-3.4993,-3.3232,-3.1729,0.0,0.0,0.0,0.0,0.0,0.0,0.0,0.0,0.0,0.0,0.0,0.0,0.0,0.0,0.0,0.0,0.0,0.0,0.0,-2.8005,-2.8634,-2.8701,0.0,0.0,0.0,0.0,0.0,0.0,0.0,0.0,0.0,-2.8995,-3.0768,-3.2164,0.0,0.0,-3.5298,-3.5678,-3.6489,-3.7326,-3.7998,-3.8065,0.0,-3.7968,-3.7653,-3.7484,-3.765,-3.7899,-3.8077,-3.8035,-3.8325,-3.8662,-3.8957,-3.9588,-4.0166,-4.0698,-4.1783,-4.2751,-4.3548,-4.3635,-4.3612,-4.3827,-4.4086,-4.4148,-4.4387,-4.3381,-4.1749,-4.1294,-4.1689,-4.0745,-4.1079,-4.2254,-4.1725,-4.1256,-4.08,-3.9549,-3.8111,-3.6579,-3.4736,0.0,0.0,0.0,-3.5251,-3.6258,-3.6269,-3.6731,-3.7477,-3.7385,-3.7156,-3.6801,-3.6627,-3.6023,-3.5174,-3.4815,-3.416,-3.3419,0.0,0.0,-3.3268,-3.5172,-3.6384,-3.694,-3.7942,-3.8635,-3.8948,-3.8647,-3.8322,-3.7998,-3.7548,-3.7198,-3.7008,-3.6383,-3.5294,-3.3867,-3.2377,-3.0764,0.0,0.0,0.0,0.0,0.0,0.0,0.0,0.0,0.0,0.0,0.0,-2.7555,-2.6967,0.0,0.0,0.0,-2.7216,-2.756,-2.7661,-2.8247,0.0,0.0,0.0,0.0,0.0,0.0,0.0,-2.6908,-2.75,-2.8242,-2.9117,-3.0496,-3.164,-3.2318,-3.314,-3.3951,-3.458,0.0,-3.5729,-3.6491,-3.6989,-3.7269,-3.7269,-3.7445,-3.7625,-3.7926,-3.7974,-3.7974,-3.7974,-3.7974,-3.8113,-3.8338,-3.8536,-3.875,-3.8991,-4.0004,-4.1248,-4.268,-4.3339,-4.3627,-4.383,-4.412,-4.4312,-4.597,-4.5706,-4.3253,-4.2267,-4.2279,-4.2206,-4.2459,-4.2952,-4.2399,-4.2411,-4.2664,-4.0385,-3.8868,-3.7972,-3.5424,0.0,-3.4833,-3.5306,-3.6064,-3.6993,-3.7004,-3.7198,-3.7544,-3.7195,-3.7028,-3.6985,-3.6491,-3.6264,-3.6118,-3.5298,-3.4391,-3.3375,-3.3629,-3.3703,-3.3708,-3.5365,-3.6537,-3.7016,-3.7584,-3.7991,-3.7974,-3.7921,-3.788,-3.7814,-3.6665,-3.6557,-3.7578,-3.6177,-3.5055,-3.4519,-3.3133,-3.1379,-2.9342,0.0,0.0,0.0,0.0,0.0,0.0,0.0,0.0,0.0,0.0,0.0,0.0,0.0,0.0,0.0,-2.7491,0.0,-2.8415,-2.8422,0.0,0.0,0.0,-2.7399,-2.6584,-2.6855,-2.7285,-2.7725,0.0,0.0,-2.9521,-2.999,-3.0792,-3.2338,-3.2571,-3.2949,-3.4058,-3.4225,-3.428,-3.4503,-3.5356,-3.6068,-3.6122,-3.6977,-3.7767,-3.7974,-3.7974,-3.8015,-3.7902,-3.789,-3.7709,-3.728,-3.712,-3.7209,-3.7431,-3.7754,-3.8299,-3.9666,-4.1286,-4.2326,-4.2155,-4.2674,-4.3264,-4.6295,-4.5838,-4.4804,-4.4611,-4.4912,-4.4118,-4.4082,-4.4503,-4.401,-4.3613,-4.3228,-4.1222,-3.8714,-3.5924,-3.56,-3.5067,-3.4338,-3.4706,-3.507,-3.527,-3.527,-3.5214,-3.4993,-3.4893,-3.4662,-3.434,-3.4168,-3.4009,-3.3688,-3.3477,-3.2865,-3.2081,-3.296,-3.2963,-3.2094,-3.4039,-3.5126,-3.537,-3.6732,-3.7577,-3.7962,-3.7108,-3.6611,-3.6611,-3.5443,-3.4947,-3.5212,-3.488,-3.4362,-3.3811,-3.2437,-3.1063,-2.9785,-2.8053,0.0,0.0,0.0,0.0,0.0,0.0,0.0,0.0,0.0,-2.5813,-2.5017,0.0,-2.5223,0.0,-2.657,-2.7402,-2.7845,-2.7911,0.0,0.0,-2.7629,-2.7611,-2.7415,-2.7734,-2.8154,-2.8574,-2.9287,-2.9824,-3.0019,-3.0439,-3.0878,-3.1267,-3.1344,-3.1667,-3.2479,-3.2899,-3.3402,-3.4179,-3.4614,-3.4836,-3.4958,-3.5838,-3.6947,-3.7868,-3.7974,-3.7841,-3.7457,-3.7372,-3.7204,-3.6723,-3.6591,-3.6437,-3.6131,-3.6567,-3.6978,-3.7347,-3.9303,-4.1186,-4.1297,-4.1893,-4.2573,-4.6331,-4.6211,-4.5453,-4.5179,-4.5231,-4.4562,-4.4465,-4.4693,-4.4405,-4.4117,-4.3719,-4.1221,-3.8254,-3.508,-3.5238,-3.4983,-3.4375,-3.4805,-3.501,-3.499,-3.4795,-3.457,-3.4336,-3.3965,-3.3652,-3.3428,-3.3418,-3.3301,-3.3076,-3.2891,-3.2549,-3.208,-3.2336,-3.2052,-3.1291,-3.3366,-3.4558,-3.4623,-3.5485,-3.6095,-3.636,-3.5729,-3.5399,-3.5333,-3.4062,-3.361,-3.4109,-3.3267,-3.2692,-3.2617,-3.1461,-3.0208,-2.8997,-2.7562,-2.6284,0.0,0.0,0.0,0.0,0.0,0.0,0.0,0.0,0.0,0.0,0.0,-2.4971,-2.5605,-2.6484,-2.7275,-2.7891,-2.7939,-2.8149,-2.853,-2.8682,-2.8711,-2.8579,-2.8941,-2.9228,-2.9463,-2.9902,-3.0273,-3.0478,-3.0732,-3.0898,-3.0898,-3.0898,-3.1023,-3.1418,-3.1741,-3.2123,-3.2732,-3.3289,-3.3843,-3.428,-3.4947,-3.5838,-3.6881,-3.7215,-3.7157,-3.7196,-3.7204,-3.6964,-3.6242,-3.605,-3.5881,-3.5388,-3.5551,-3.5806,-3.5948,-3.7213,-3.8838,-3.9922,-4.0513,-4.1052,-4.6162,-4.6403,-4.5453,-4.4706,-4.4196,-4.408,-4.4034,-4.3954,-4.4022,-4.3838,-4.3341,-4.0486,-3.7587,-3.4863,-3.4814,-3.4814,-3.4892,-3.5293,-3.5478,-3.5449,-3.5,-3.4756,-3.4668,-3.3877,-3.3476,-3.3418,-3.3418,-3.3418,-3.3408,-3.3057,-3.2851,-3.2764,-3.1992,-3.1387,-3.1103,-3.298,-3.409,-3.4293,-3.4348,-3.438,-3.4391,-3.4291,-3.4136,-3.406,-3.2605,-3.2253,-3.3159,-3.1535,-3.0766,-3.1127,-3.0436,-2.9428,-2.8015,-2.7051,-2.626,0.0,-2.4883,0.0,0.0,0.0,0.0,0.0,0.0,0.0,0.0,-2.5527,-2.5742,-2.6562,-2.707,-2.7666,-2.8467,-2.8535,-2.8838,-2.956,-2.9971,-3.0049,-2.9763,-2.998,-3.0225,-3.0273,-3.0283,-3.0439,-3.082,-3.0898,-3.0898,-3.0898,-3.0898,-3.0937,-3.0937,-3.0995,-3.1005,-3.0898,-3.1797,-3.2778,-3.3786,-3.4123,-3.4614,-3.5674,-3.6177,-3.636,-3.6728,-3.6956,-3.6735,-3.5785,-3.5509,-3.5364,-3.4907,-3.4835,-3.4835,-3.4872,-3.5549,-3.655,-3.8116,-3.8841,-3.9224,-4.573,-4.5317,-4.4693,-4.3774,-4.2747,-4.2662,-4.2484,-4.2159,-4.2498,-4.1429,-3.9245,-3.8277,-3.7075,-3.5732,-3.542,-3.5449,-3.5771,-3.5859,-3.5898,-3.5879,-3.5459,-3.5059,-3.4687,-3.4189,-3.376,-3.3437,-3.3418,-3.3418,-3.3418,-3.334,-3.3135,-3.2783,-3.2295,-3.1826,-3.1406,0.0,0.0,0.0,-3.4184,-3.438,-3.4391,-3.3515,-3.2828,-3.2431,-3.1226,0.0,-3.0404,-3.0022,-2.9862,-2.9941,-2.9792,0.0,0.0,0.0,0.0,0.0,0.0,0.0,0.0,0.0,0.0,0.0,-2.5947,-2.5469,-2.5693,-2.6611,-2.7383,-2.79,-2.8623,-2.9297,-2.9785,-2.9834,-2.9902,-3.0059,-3.0146,-3.0166,-3.0088,-3.0156,-3.0332,-3.0713,-3.0752,-3.0791,-3.0869,-3.0898,-3.0898,-3.0898,-3.0898,-3.0898,-3.0898,-3.0898,-3.0898,-3.0947,-3.118,-3.173,-3.2856,-3.3016,-3.3392,-3.4503,-3.5619,-3.5822,-3.5422,-3.6003,-3.6168,-3.5207,-3.498,-3.5004,-3.4859,-3.4775,-3.4799,-3.4775,-3.492,-3.5391,-3.6543,-3.7322,-3.7997,-4.3475,0.0,-4.2488,-4.1564,0.0,-4.1091,-4.0475,-3.9286,-4.064,-4.0062,-3.8098,-3.7881,-3.7013,-3.5713,-3.5703,-3.5703,-3.5732,-3.5928,-3.6025,-3.5986,-3.5351,-3.4922,-3.4678,-3.4053,-3.3633,-3.3428,-3.3418,-3.3418,-3.3418,-3.3418,-3.331,-3.3096,-3.248,-3.206,-3.1816,-3.1211,-3.1331,-3.2256,-3.2551,-3.2664,-3.2675,-3.2123,-3.1677,-3.1425,-3.0438,0.0,0.0,0.0,0.0,0.0,0.0,0.0,0.0,0.0,0.0,-2.7344,-2.6738,-2.6553,-2.6973,-2.7002,-2.7266,-2.7891,-2.7764,-2.7363,-2.6748,-2.7861,-2.8746,-2.8916,-2.9326,-2.9736,-3.0146,-3.0205,-3.0283,-3.0498,-3.0547,-3.0537,-3.0537,-3.0547,-3.0635,-3.083,-3.0898,-3.0898,-3.0898,-3.0898,-3.0898,-3.0898,-3.0898,-3.0898,-3.0898,-3.0898,-3.0898,-3.0898,-3.0898,-3.1122,-3.1682,-3.1855,-3.2227,-3.3346,-3.4067,-3.4582,-3.4975,-3.5492,-3.5817,-3.5573,-3.5605,-3.5545,-3.5268,-3.5171,-3.5087,-3.4895,-3.4775,-3.492,-3.5536,-3.6225,-3.7243,-4.1284,-4.0826,-4.0356,-3.9567,-3.8693,-3.9514,-3.8645,-3.6838,0.0,0.0,0.0,-3.7637,-3.6864,-3.5527,-3.5791,-3.5762,-3.5527,-3.5869,-3.6025,-3.5976,-3.5107,-3.4697,-3.4658,-3.3828,-3.3418,-3.3418,-3.3418,-3.3418,-3.3418,-3.3418,-3.3418,-3.334,-3.2588,-3.216,-3.1964,-3.124,-3.0898,-3.0898,-3.0898,-3.0898,-3.0898,-3.0898,-3.084,-3.0771,-3.0059,-2.9648,-2.9616,-2.8564,-2.8125,-2.8379,-2.8119,-2.7881,-2.7943,-2.7891,-2.7764,-2.75,-2.7471,-2.7617,-2.8031,-2.832,-2.8662,-2.9004,-2.9434,-2.9228,-2.8237,-2.9072,-2.9678,-2.9734,-2.9812,-2.9941,-3.0283,-3.0322,-3.0469,-3.0859,-3.0898,-3.0889,-3.0889,-3.0898,-3.0879,-3.0898,-3.0898,-3.0898,-3.0898,-3.0898,-3.0898,-3.0898,-3.0898,-3.0898,-3.0898,-3.0898,-3.0898,-3.0898,-3.0898,-3.0957,-3.0947,-3.1005,-3.1286,-3.217,-3.2571,-3.3233,-3.4348,-3.4947,-3.5338,-3.5774,-3.6081,-3.5929,-3.5745,-3.5761,-3.5569,-3.5027,-3.4919,-3.4883,-3.4884,-3.544,-3.6402,-4.1098,-4.029,-4.0225,-3.9386,-3.8202,-3.8339,-3.7716,-3.67,-3.6601,-3.6481,-3.6258,-3.5894,-3.5846,-3.5918,-3.5625,-3.5654,-3.5918,-3.5996,-3.6025,-3.5976,-3.5107,-3.4697,-3.4648,-3.3828,-3.3418,-3.3418,-3.3418,-3.3418,-3.3418,-3.3418,-3.3418,-3.332,-3.2578,-3.1807,-3.1123,-3.0947,-3.0898,-3.0898,-3.0898,-3.0898,-3.0898,-3.0898,-3.0703,-3.0312,-3.0176,-2.9941,-2.9626,-2.944,-2.916,-2.8857,-2.8779,-2.875,-2.874,-2.873,-2.8887,-2.918,-2.9209,-2.9293,-2.9342,-2.9355,-2.947,-2.9482,-2.9873,-3.0019,-2.9873,-3.0,-3.0107,-3.0127,-3.0439,-3.0723,-3.0791,-3.0781,-3.0801,-3.0879,-3.0898,-3.0898,-3.0898,-3.0898,-3.0898,-3.0898,-3.0898,-3.0898,-3.0898,-3.0898,-3.0898,-3.0898,-3.0898,-3.0898,-3.0898,-3.0898,-3.0898,-3.0898,-3.0898,-3.0898,-3.0898,-3.0898,-3.1005,-3.1112,-3.2018,-3.254,-3.2709,-3.3387,-3.4125,-3.4756,-3.5069,-3.5374,-3.5985,-3.629,-3.6062,-3.5579,-3.5497,-3.5388,-3.504,-3.5114,-3.5428,-3.8877,-3.8279,-3.8022,-3.7518,-3.6924,-3.6934,-3.6716,-3.6299,-3.6113,-3.6162,-3.6318,-3.5928,-3.5723,-3.5684,-3.5713,-3.5713,-3.5693,-3.5918,-3.6025,-3.5976,-3.5371,-3.4941,-3.4658,-3.4062,-3.3652,-3.3437,-3.3418,-3.3418,-3.3418,-3.3418,-3.3418,-3.3359,-3.2578,-3.1798,-3.0947,-3.0898,-3.0898,-3.0898,-3.0898,-3.0898,-3.0898,-3.0898,-3.0781,-3.0576,-3.0342,-3.0117,-2.9922,-2.9687,-2.9482,-2.9268,-2.9277,-2.9268,-2.9268,-2.9268,-2.9365,-2.9616,-2.958,-2.958,-2.958,-2.9775,-3.0019,-3.0264,-3.0459,-3.0566,-3.0576,-3.0576,-3.0576,-3.0586,-3.0781,-3.0898,-3.0898,-3.0898,-3.0898,-3.0898,-3.0898,-3.0898,-3.0898,-3.0898,-3.0898,-3.0898,-3.0898,-3.0898,-3.0898,-3.0898,-3.0898,-3.0898,-3.0898,-3.0898,-3.0898,-3.0898,-3.0898,-3.0898,-3.0898,-3.0898,-3.0898,-3.0898,-3.0898,-3.0898,-3.1334,-3.1869,-3.2159,-3.284,-3.3403,-3.4326,-3.4962,-3.5511,-3.5946,-3.6447,-3.6489,-3.6194,-3.6038,-3.5905,-3.5725,-3.5485,-3.5454,-3.6992,-3.6484,-3.6162,-3.6025,-3.6025,-3.6025,-3.6074,-3.6152,-3.6074,-3.6269,-3.6582,-3.6211,-3.584,-3.5586,-3.5869,-3.585,-3.5615,-3.5869,-3.6025,-3.5986,-3.5586,-3.5146,-3.4687,-3.4267,-3.3838,-3.3457,-3.3418,-3.3418,-3.3418,-3.3418,-3.332,-3.3096,-3.248,-3.1738,-3.0908,-3.0898,-3.0898,-3.0898,-3.0898,-3.0898,-3.0898,-3.0898,-3.0898,-3.0869,-3.0547,-3.0351,-3.0332,-3.0039,-2.9824,-2.9773,-2.9717,-2.9763,-2.9707,-2.9773,-2.9756,-2.99,-2.9863,-2.9863,-2.9893,-3.0166,-3.0508,-3.085,-3.0898,-3.0898,-3.0898,-3.0898,-3.0898,-3.0898,-3.0889,-3.0898,-3.0898,-3.0898,-3.0898,-3.0898,-3.0898,-3.0898,-3.0898,-3.0898,-3.0898,-3.0889,-3.083,-3.083,-3.0889,-3.082,-3.083,-3.0889,-3.0898,-3.0898,-3.0898,-3.0898,-3.0898,-3.0898,-3.0898,-3.0898,-3.0898,-3.0898,-3.0898,-3.0898,-3.0947,-3.1325,-3.1977,-3.2217,-3.2732,-3.3711,-3.4958,-3.5579,-3.565,-3.6602,-3.704,-3.6723,-3.6579,-3.6483,-3.6122,-3.5689,-3.5513,-3.6826,-3.6133,-3.6045,-3.6025,-3.6025,-3.6025,-3.624,-3.6504,-3.6201,-3.6269,-3.6582,-3.6211,-3.5996,-3.5967,-3.6006,-3.5996,-3.5947,-3.6006,-3.6025,-3.5976,-3.5586,-3.5146,-3.4717,-3.4277,-3.3848,-3.3476,-3.3428,-3.3418,-3.3418,-3.3418,-3.3057,-3.2424,-3.2197,-3.1748,-3.0996,-3.0898,-3.0898,-3.0898,-3.0898,-3.0898,-3.0898,-3.0898,-3.0898,-3.0889,-3.085,-3.082,-3.0801,-3.0781,-3.0566,-3.0195,-3.0146,-3.0137,-3.0137,-3.0137,-3.0332,-3.0713,-3.0752,-3.0771,-3.0762,-3.081,-3.083,-3.0889,-3.0898,-3.0898,-3.0908,-3.0898,-3.0898,-3.0918,-3.0908,-3.0898,-3.0898,-3.0898,-3.0898,-3.0898,-3.0898,-3.0898,-3.0898,-3.0898,-3.0898,-3.0898,-3.0694,-3.0577,-3.0762,-3.0635,-3.0587,-3.0889,-3.0918,-3.0918,-3.0957,-3.0908,-3.0898,-3.0898,-3.0898,-3.0898,-3.0898,-3.0898,-3.0898,-3.0898,-3.0898,-3.1064,-3.1228,-3.1276,-3.145,-3.2685,-3.3955,-3.4947,-3.5934,-3.7079,-3.7644,-3.7264,-3.7036,-3.6831,-3.5954,-3.5364,-3.5101,-3.71,-3.6728,-3.6221,-3.6025,-3.6025,-3.6025,-3.6123,-3.626,-3.6103,-3.6123,-3.626,-3.6094,-3.6025,-3.6025,-3.6025,-3.6025,-3.6025,-3.6025,-3.6025,-3.6006,-3.584,-3.5537,-3.5098,-3.4658,-3.4219,-3.3809,-3.3555,-3.3418,-3.3418,-3.3418,-3.3115,-3.2568,-3.2305,-3.1855,-3.1289,-3.1016,-3.0898,-3.0898,-3.0898,-3.0898,-3.0898,-3.0898,-3.0898,-3.0898,-3.0898,-3.0898,-3.0898,-3.0898,-3.0801,-3.0625,-3.0596,-3.0615,-3.0605,-3.0605,-3.0693,-3.0879,-3.0898,-3.0898,-3.0898,-3.0898,-3.0898,-3.0898,-3.0898,-3.0986,-3.124,-3.126,-3.126,-3.123,-3.1045,-3.0898,-3.0898,-3.0898,-3.0898,-3.0898,-3.0898,-3.0898,-3.0898,-3.0898,-3.0898,-3.0889,-3.0762,-3.0645,-3.0635,-3.0509,-3.0556,-3.0887,-3.0947,-3.0957,-3.1172,-3.1055,-3.0898,-3.0898,-3.0898,-3.0898,-3.0898,-3.0898,-3.0898,-3.0898,-3.0898,-3.0898,-3.0898,-3.0898,-3.1122,-3.1624,-3.3176,-3.4336,-3.4936,-3.6762,-3.7878,-3.7601,-3.73,-3.6952,-3.6218,-3.5665,-3.5219,-3.7226,-3.7012,-3.6328,-3.6025,-3.6025,-3.6025,-3.6025,-3.6025,-3.6025,-3.6025,-3.6025,-3.6025,-3.6025,-3.6025,-3.6025,-3.6025,-3.6025,-3.6025,-3.6025,-3.6025,-3.6025,-3.5791,-3.5381,-3.4922,-3.4482,-3.4053,-3.3623,-3.3418,-3.3418,-3.3418,-3.3213,-3.2803,-3.249,-3.2119,-3.1709,-3.1377,-3.124,-3.124,-3.124,-3.124,-3.126,-3.124,-3.1133,-3.0918,-3.0898,-3.0898,-3.0898,-3.0898,-3.0898,-3.0889,-3.0898,-3.0898,-3.0898,-3.0898,-3.0898,-3.0898,-3.0898,-3.0898,-3.0898,-3.0898,-3.0898,-3.0898,-3.0976,-3.1182,-3.1465,-3.1621,-3.1631,-3.1494,-3.123,-3.1045,-3.0898,-3.0898,-3.0898,-3.0898,-3.0898,-3.0898,-3.0898,-3.0898,-3.0898,-3.0889,-3.0762,-3.0694,-3.0518,-3.0518,-3.0683,-3.0887,-3.0947,-3.0976,-3.123,-3.1074,-3.0898,-3.0898,-3.0898,-3.0898,-3.0898,-3.0898,-3.0898,-3.0898,-3.0898,-3.0898,-3.0898,-3.0898,-3.0898,-3.145,-3.2949,-3.3843,-3.4123,-3.5717,-3.7696,-3.7813,-3.7553,-3.7036,-3.6447,-3.5966,-3.5449,-3.707,-3.665,-3.6201,-3.6025,-3.6025,-3.6025,-3.6025,-3.6025,-3.6025,-3.6025,-3.6025,-3.6025,-3.6025,-3.6025,-3.6025,-3.6025,-3.6025,-3.6025,-3.6025,-3.6025,-3.6025,-3.5801,-3.5371,-3.4922,-3.4482,-3.4062,-3.3633,-3.3418,-3.3418,-3.3408,-3.3213,-3.2822,-3.2754,-3.2549,-3.2178,-3.2131,-3.209,-3.2012,-3.2021,-3.207,-3.2131,-3.208,-3.1689,-3.1045,-3.0918,-3.0957,-3.0918,-3.0908,-3.0908,-3.0898,-3.0918,-3.0908,-3.0898,-3.0898,-3.0898,-3.0898,-3.0908,-3.0898,-3.0898,-3.0918,-3.0918,-3.0937,-3.1201,-3.1475,-3.1523,-3.1816,-3.1855,-3.1553,-3.1465,-3.1299,-3.0957,-3.0898,-3.0898,-3.0898,-3.0898,-3.0898,-3.0898,-3.0898,-3.0898,-3.0889,-3.0635,-3.045,-3.0441,-3.0704,-3.0801,-3.0918,-3.0928,-3.0947,-3.1006,-3.0957,-3.0898,-3.0898,-3.0898,-3.0898,-3.0898,-3.0898,-3.0898,-3.0898,-3.0898,-3.0898,-3.0898,-3.0898,-3.0898,-3.118,-3.2295,-3.3016,-3.3233,-3.4514,-3.6491,-3.7234,-3.7347,-3.6984,-3.6507,-3.599,-3.5461,-3.6885,-3.625,-3.6084,-3.6025,-3.6025,-3.6025,-3.6025,-3.6025,-3.6025,-3.6025,-3.6025,-3.6025,-3.6025,-3.6025,-3.6025,-3.6025,-3.6025,-3.6025,-3.6025,-3.6025,-3.6025,-3.5791,-3.5371,-3.4912,-3.4482,-3.4053,-3.3623,-3.3418,-3.3418,-3.3418,-3.335,-3.3174,-3.292,-3.2705,-3.2549,-3.2356,-3.2229,-3.2229,-3.2229,-3.2229,-3.2187,-3.2229,-3.2002,-3.1738,-3.1709,-3.1582,-3.1299,-3.1562,-3.1465,-3.0918,-3.1143,-3.1162,-3.0928,-3.0898,-3.0898,-3.0918,-3.1143,-3.1172,-3.0967,-3.1143,-3.1172,-3.0928,-3.1016,-3.1299,-3.1475,-3.166,-3.168,-3.1562,-3.1523,-3.1338,-3.1016,-3.0898,-3.0898,-3.0898,-3.0898,-3.0908,-3.0898,-3.0898,-3.0898,-3.0889,-3.0635,-3.0392,-3.045,-3.0509,-3.0683,-3.0887,-3.0937,-3.1016,-3.1172,-3.1084,-3.0898,-3.0898,-3.0898,-3.0898,-3.0898,-3.0898,-3.0898,-3.0898,-3.0898,-3.0898,-3.0898,-3.0898,-3.0898,-3.1005,-3.1845,-3.2524,-3.297,-3.4402,-3.6111,-3.6649,-3.6856,-3.7144,-3.6507,-3.6098,-3.5545,-3.6807,-3.6084,-3.6025,-3.6025,-3.6025,-3.6025,-3.6025,-3.6025,-3.6025,-3.6025,-3.6025,-3.6025,-3.6025,-3.6025,-3.6025,-3.6025,-3.6025,-3.6025,-3.6025,-3.6025,-3.6025,-3.5869,-3.5547,-3.498,-3.4551,-3.4219,-3.3682,-3.3418,-3.3418,-3.3418,-3.3418,-3.3389,-3.3115,-3.2998,-3.2949,-3.2705,-3.2578,-3.2578,-3.2578,-3.2578,-3.2568,-3.2568,-3.2578,-3.2568,-3.2578,-3.2295,-3.1768,-3.2012,-3.1924,-3.1445,-3.1582,-3.1601,-3.1338,-3.1309,-3.1309,-3.1338,-3.1572,-3.1611,-3.1387,-3.1572,-3.1601,-3.1357,-3.1455,-3.165,-3.1904,-3.2051,-3.206,-3.1982,-3.1924,-3.1758,-3.1426,-3.1318,-3.125,-3.1133,-3.1094,-3.1094,-3.1084,-3.0976,-3.0908,-3.0889,-3.0704,-3.0577,-3.0577,-3.0577,-3.0703,-3.0974,-3.0918,-3.1045,-3.1191,-3.1094,-3.0898,-3.0898,-3.0898,-3.0898,-3.0898,-3.0898,-3.0898,-3.0898,-3.0898,-3.0898,-3.0898,-3.0898,-3.0947,-3.1064,-3.1441,-3.2123,-3.313,-3.4458,-3.5388,-3.6022,-3.6908,-3.7433,-3.6843,-3.6278,-3.5761,-3.6807,-3.6113,-3.6035,-3.6074,-3.6035,-3.6074,-3.6045,-3.6025,-3.6025,-3.6025,-3.6025,-3.6025,-3.6025,-3.6025,-3.6025,-3.6025,-3.6025,-3.6025,-3.6025,-3.6025,-3.6025,-3.5996,-3.5859,-3.5127,-3.4687,-3.4531,-3.3799,-3.3428,-3.3418,-3.3418,-3.3418,-3.3418,-3.3389,-3.334,-3.3408,-3.331,-3.334,-3.331,-3.3291,-3.333,-3.3408,-3.332,-3.3291,-3.333,-3.333,-3.2978,-3.2246,-3.2236,-3.2217,-3.217,-3.2139,-3.2168,-3.208,-3.206,-3.2109,-3.2131,-3.2139,-3.2158,-3.2119,-3.2129,-3.2158,-3.2121,-3.2451,-3.2529,-3.2559,-3.2881,-3.2959,-3.2637,-3.2588,-3.251,-3.2148,-3.209,-3.1953,-3.1601,-3.1523,-3.1523,-3.1455,-3.1152,-3.0898,-3.0908,-3.0889,-3.0889,-3.0898,-3.083,-3.0869,-3.0879,-3.0928,-3.0908,-3.0976,-3.0928,-3.0898,-3.0898,-3.0898,-3.0898,-3.0898,-3.0898,-3.0898,-3.0898,-3.0898,-3.0898,-3.0898,-3.0898,-3.0898,-3.0995,-3.0819,-3.1444,-3.2254,-3.3575,-3.477,-3.5561,-3.6671,-3.7532,-3.712,-3.6543,-3.6086,-3.6973,-3.6533,-3.6777,-3.6543,-3.6103,-3.6338,-3.6309,-3.6025,-3.6025,-3.6025,-3.6025,-3.6025,-3.6025,-3.6025,-3.6025,-3.6025,-3.6025,-3.6025,-3.6025,-3.6025,-3.6025,-3.5869,-3.5586,-3.5312,-3.4853,-3.4267,-3.3701,-3.3418,-3.3418,-3.3418,-3.3418,-3.3418,-3.3418,-3.3418,-3.3418,-3.3418,-3.3418,-3.3418,-3.3418,-3.3418,-3.3418,-3.3418,-3.3418,-3.3418,-3.3418,-3.3281,-3.3057,-3.3027,-3.2744,-3.2226,-3.2441,-3.2471,-3.2246,-3.2229,-3.2229,-3.2197,-3.2451,-3.2451,-3.2246,-3.2432,-3.2471,-3.2285,-3.2324,-3.2353,-3.2363,-3.2529,-3.2568,-3.2402,-3.2363,-3.2285,-3.2246,-3.2441,-3.2402,-3.2012,-3.1963,-3.1953,-3.1885,-3.1582,-3.1211,-3.0947,-3.0898,-3.0898,-3.0898,-3.0898,-3.0898,-3.0898,-3.0898,-3.0898,-3.0898,-3.0898,-3.0898,-3.0898,-3.0898,-3.0898,-3.0898,-3.0898,-3.0898,-3.0898,-3.0898,-3.0791,-3.0801,-3.0781,-3.081,-3.0693,-3.0537,-3.0738,-3.1556,-3.2627,-3.3843,-3.5131,-3.6206,-3.6756,-3.7008,-3.6735,-3.6122,-3.6953,-3.6475,-3.6709,-3.6621,-3.6269,-3.6406,-3.6377,-3.623,-3.6084,-3.6025,-3.6025,-3.6025,-3.6025,-3.6025,-3.6025,-3.6025,-3.6025,-3.6025,-3.6025,-3.6025,-3.6025,-3.5859,-3.5605,-3.5449,-3.4932,-3.417,-3.3799,-3.3574,-3.3418,-3.3418,-3.3418,-3.3418,-3.3418,-3.3418,-3.3418,-3.3418,-3.3418,-3.3418,-3.3418,-3.3418,-3.3418,-3.3418,-3.3418,-3.3418,-3.3418,-3.3418,-3.3418,-3.3418,-3.3184,-3.2773,-3.29,-3.2881,-3.2656,-3.2646,-3.2627,-3.2685,-3.2842,-3.291,-3.2695,-3.29,-3.293,-3.2685,-3.2637,-3.2646,-3.2646,-3.2637,-3.2627,-3.2637,-3.2666,-3.2637,-3.2685,-3.2842,-3.2891,-3.2676,-3.249,-3.2344,-3.2187,-3.1934,-3.1592,-3.1289,-3.1152,-3.1064,-3.0937,-3.0898,-3.0898,-3.0898,-3.0898,-3.0898,-3.0898,-3.0898,-3.0898,-3.0898,-3.0898,-3.0898,-3.0898,-3.0898,-3.0898,-3.0898,-3.0898,-3.0713,-3.0596,-3.0527,-3.0508,-3.0234,-3.0039,-3.001,-3.0731,-3.1781,-3.292,-3.4271,-3.5307,-3.5776,-3.5954,-3.621,-3.5819,-3.6816,-3.6094,-3.6103,-3.6348,-3.6523,-3.626,-3.6289,-3.6484,-3.6191,-3.6025,-3.6025,-3.6025,-3.6025,-3.6025,-3.6025,-3.6025,-3.6025,-3.6025,-3.6025,-3.6025,-3.6025,-3.5986,-3.5918,-3.5566,-3.5,-3.4355,-3.415,-3.3877,-3.3555,-3.3525,-3.3437,-3.3428,-3.3418,-3.3418,-3.3418,-3.3418,-3.3418,-3.3418,-3.3418,-3.3418,-3.3418,-3.3418,-3.3418,-3.3418,-3.3418,-3.3418,-3.3418,-3.3418,-3.3418,-3.3389,-3.335,-3.333,-3.3379,-3.3418,-3.333,-3.3301,-3.3398,-3.3369,-3.3379,-3.332,-3.334,-3.3291,-3.3281,-3.3408,-3.3291,-3.3242,-3.3252,-3.3271,-3.3291,-3.333,-3.333,-3.335,-3.335,-3.3359,-3.3027,-3.2685,-3.2346,-3.2268,-3.2002,-3.167,-3.1533,-3.1406,-3.1064,-3.0986,-3.0957,-3.0898,-3.0898,-3.0898,-3.0898,-3.0898,-3.0898,-3.0898,-3.0898,-3.0898,-3.0898,-3.0898,-3.0898,-3.0898,-3.0889,-3.0752,-3.0508,-3.04,-3.0195,-2.9902,-2.9668,-2.9675,-2.998,-3.1086,-3.1709,-3.2477,-3.3375,-3.4268,-3.4941,-3.5306,-3.5523,-3.6982,-3.6543,-3.6826,-3.667,-3.6279,-3.6387,-3.6357,-3.6201,-3.6084,-3.6025,-3.6025,-3.6025,-3.6025,-3.6025,-3.6025,-3.6025,-3.6025,-3.6025,-3.6025,-3.6025,-3.6025,-3.6025,-3.5947,-3.5596,-3.5283,-3.499,-3.4668,-3.4307,-3.3926,-3.3906,-3.374,-3.3428,-3.3457,-3.3428,-3.3418,-3.3418,-3.3418,-3.3418,-3.3418,-3.3418,-3.3418,-3.3418,-3.3418,-3.3418,-3.3418,-3.3418,-3.3418,-3.3418,-3.3418,-3.3418,-3.3418,-3.3418,-3.3418,-3.3418,-3.3418,-3.3418,-3.3418,-3.3418,-3.3418,-3.3418,-3.3418,-3.3418,-3.3418,-3.3418,-3.3418,-3.3418,-3.3418,-3.3418,-3.3418,-3.3418,-3.3418,-3.3418,-3.3418,-3.3408,-3.3281,-3.3066,-3.2744,-3.2617,-3.2471,-3.209,-3.2002,-3.1787,-3.1494,-3.1328,-3.123,-3.1016,-3.0937,-3.0908,-3.0908,-3.0898,-3.0898,-3.0898,-3.0898,-3.0898,-3.0898,-3.0898,-3.0898,-3.0898,-3.0889,-3.0869,-3.0615,-3.041,-3.0088,-2.9717,-2.9482,-2.9385,-2.9753,-3.0458,-3.0762,-3.1062,-3.2169,-3.3404,-3.4238,-3.4709,-3.4937,-3.6787,-3.6416,-3.666,-3.6582,-3.6309,-3.6377,-3.6348,-3.6269,-3.6094,-3.6025,-3.6025,-3.6025,-3.6025,-3.6025,-3.6025,-3.6025,-3.6025,-3.6025,-3.6025,-3.6025,-3.6025,-3.6025,-3.5967,-3.5732,-3.5566,-3.5381,-3.5127,-3.4766,-3.4404,-3.4336,-3.4092,-3.3779,-3.3691,-3.3613,-3.3418,-3.3418,-3.3418,-3.3418,-3.3418,-3.3418,-3.3418,-3.3418,-3.3418,-3.3418,-3.3418,-3.3418,-3.3418,-3.3418,-3.3418,-3.3418,-3.3418,-3.3418,-3.3418,-3.3418,-3.3418,-3.3418,-3.3418,-3.3418,-3.3418,-3.3418,-3.3418,-3.3418,-3.3418,-3.3418,-3.3418,-3.3418,-3.3418,-3.3418,-3.3418,-3.3418,-3.3418,-3.3418,-3.3418,-3.3418,-3.3418,-3.331,-3.3066,-3.3057,-3.2861,-3.2578,-3.2412,-3.2275,-3.1855,-3.1787,-3.1562,-3.1299,-3.1191,-3.1074,-3.0957,-3.0928,-3.0898,-3.0898,-3.0898,-3.0898,-3.0898,-3.0898,-3.0898,-3.0898,-3.0889,-3.0879,-3.0635,-3.0371,-2.998,-2.9609,-2.9346,-2.9319,-2.9674,-2.9914,-2.9939,-3.0526,-3.1536,-3.2104,-3.2713,-3.3826,-3.4067,-3.6387,-3.6025,-3.6025,-3.624,-3.6475,-3.6201,-3.623,-3.6455,-3.6172,-3.6025,-3.6025,-3.6025,-3.6025,-3.6025,-3.6025,-3.6025,-3.6025,-3.6025,-3.6025,-3.6025,-3.6025,-3.6025,-3.6016,-3.5986,-3.5791,-3.5557,-3.5469,-3.5185,-3.4883,-3.4775,-3.4531,-3.4199,-3.4146,-3.3857,-3.3594,-3.3467,-3.3418,-3.3418,-3.3418,-3.3418,-3.3418,-3.3418,-3.3418,-3.3418,-3.3418,-3.3418,-3.3418,-3.3418,-3.3418,-3.3418,-3.3418,-3.3418,-3.3418,-3.3418,-3.3418,-3.3418,-3.3418,-3.3418,-3.3418,-3.3418,-3.3418,-3.3418,-3.3418,-3.3418,-3.3418,-3.3418,-3.3418,-3.3418,-3.3418,-3.3418,-3.3418,-3.3418,-3.3418,-3.3418,-3.3418,-3.3418,-3.3418,-3.3418,-3.3271,-3.2939,-3.2861,-3.2656,-3.2393,-3.2258,-3.207,-3.1689,-3.1562,-3.1416,-3.124,-3.1133,-3.1025,-3.0898,-3.0898,-3.0898,-3.0898,-3.0898,-3.0898,-3.0898,-3.0898,-3.083,-3.0557,-3.0254,-2.9863,-2.9551,-2.9414,-2.9404,-2.9584,-2.96,-2.9587,-2.9729,-3.0591,-3.0537,-3.0611,-3.2141,-3.2901,-3.6103,-3.6025,-3.6025,-3.6064,-3.6142,-3.6064,-3.6074,-3.6162,-3.6064,-3.6025,-3.6025,-3.6025,-3.6025,-3.6025,-3.6025,-3.6025,-3.6025,-3.6025,-3.6025,-3.6025,-3.6025,-3.6025,-3.6025,-3.6025,-3.5976,-3.5859,-3.5879,-3.5654,-3.5332,-3.5205,-3.5019,-3.46,-3.4267,-3.4033,-3.3896,-3.3555,-3.3418,-3.3418,-3.3418,-3.3418,-3.3418,-3.3418,-3.3418,-3.3418,-3.3418,-3.3418,-3.3418,-3.3418,-3.3418,-3.3418,-3.3418,-3.3418,-3.3418,-3.3418,-3.3418,-3.3418,-3.3418,-3.3418,-3.3418,-3.3418,-3.3418,-3.3418,-3.3418,-3.3418,-3.3418,-3.3418,-3.3418,-3.3418,-3.3418,-3.3418,-3.3418,-3.3418,-3.3418,-3.3418,-3.3418,-3.3418,-3.3418,-3.3418,-3.335,-3.3291,-3.3242,-3.3125,-3.2734,-3.2676,-3.2471,-3.2129,-3.1943,-3.1807,-3.1601,-3.1377,-3.1201,-3.1045,-3.0898,-3.0898,-3.0898,-3.0898,-3.0898,-3.0898,-3.0898,-3.0879,-3.0605,-3.04,-3.0107,-2.9824,-2.956,-2.9629,-2.9853,-2.9773,-2.98,-2.9698,-2.9691,-3.0008,-3.0465,-3.1401,-3.1985,-3.6025,-3.6025,-3.6025,-3.6025,-3.6025,-3.6025,-3.6025,-3.6025,-3.6025,-3.6025,-3.6025,-3.6025,-3.6025,-3.6025,-3.6025,-3.6025,-3.6025,-3.6025,-3.6025,-3.6025,-3.6025,-3.6025,-3.6025,-3.6025,-3.6025,-3.6025,-3.6016,-3.5869,-3.5732,-3.5644,-3.5459,-3.5019,-3.459,-3.4267,-3.4023,-3.3652,-3.3437,-3.3418,-3.3418,-3.3418,-3.3418,-3.3418,-3.3418,-3.3418,-3.3418,-3.3418,-3.3418,-3.3418,-3.3418,-3.3418,-3.3418,-3.3418,-3.3418,-3.3418,-3.3418,-3.3418,-3.3418,-3.3418,-3.3418,-3.3418,-3.3418,-3.3418,-3.3418,-3.3418,-3.3418,-3.3418,-3.3418,-3.3418,-3.3418,-3.3418,-3.3418,-3.3418,-3.3418,-3.3418,-3.3418,-3.3418,-3.3418,-3.3418,-3.3418,-3.3418,-3.3389,-3.3301,-3.3164,-3.3047,-3.2871,-3.2539,-3.2451,-3.2305,-3.1885,-3.166,-3.1435,-3.125,-3.1006,-3.0908,-3.0898,-3.0898,-3.0898,-3.0898,-3.0898,-3.0898,-3.0781,-3.0625,-3.0478,-3.0244,-3.0068,-3.0215,-3.0361,-3.0195,-3.0019,-2.9978,-3.0049,-3.0185,-3.0444,-3.1052,-3.147,-3.6025,-3.6025,-3.6025,-3.6025,-3.6025,-3.6025,-3.6025,-3.6025,-3.6025,-3.6025,-3.6025,-3.6025,-3.6025,-3.6025,-3.6025,-3.6025,-3.6025,-3.6025,-3.6025,-3.6025,-3.6025,-3.6025,-3.6025,-3.6025,-3.6025,-3.6025,-3.6025,-3.5986,-3.5986,-3.6006,-3.5781,-3.5449,-3.5039,-3.4629,-3.4189,-3.376,-3.3506,-3.3437,-3.3418,-3.3418,-3.3418,-3.3418,-3.3418,-3.3418,-3.3418,-3.3418,-3.3418,-3.3418,-3.3418,-3.3418,-3.3418,-3.3418,-3.3418,-3.3418,-3.3418,-3.3418,-3.3418,-3.3418,-3.3418,-3.3418,-3.3418,-3.3418,-3.3418,-3.3418,-3.3418,-3.3418,-3.3418,-3.3418,-3.3418,-3.3418,-3.3418,-3.3418,-3.3418,-3.3418,-3.3418,-3.3418,-3.3418,-3.3418,-3.3418,-3.3418,-3.3418,-3.3359,-3.3359,-3.3301,-3.3135,-3.2988,-3.291,-3.2734,-3.2324,-3.1992,-3.1807,-3.1484,-3.124,-3.0976,-3.0928,-3.0762,-3.0762,-3.0889,-3.0889,-3.0889,-3.0889,-3.0801,-3.0693,-3.0771,-3.0732,-3.0762,-3.0742,-3.0625,-3.0469,-3.0351,-3.034,-3.0463,-3.0548,-3.0671,-3.1033,-3.6025,-3.6025,-3.6025,-3.6025,-3.6025,-3.6025,-3.6025,-3.6025,-3.6025,-3.6025,-3.6025,-3.6025,-3.6025,-3.6025,-3.6025,-3.6025,-3.6025,-3.6025,-3.6025,-3.6025,-3.6025,-3.6025,-3.6025,-3.6025,-3.6025,-3.6025,-3.6025,-3.6025,-3.6025,-3.6016,-3.5957,-3.582,-3.5449,-3.501,-3.46,-3.418,-3.3809,-3.3623,-3.3564,-3.3555,-3.3555,-3.3506,-3.3447,-3.3437,-3.3418,-3.3418,-3.3418,-3.3418,-3.3418,-3.3418,-3.3418,-3.3418,-3.3437,-3.3437,-3.3447,-3.3418,-3.3418,-3.3428,-3.3486,-3.3428,-3.3418,-3.3418,-3.3418,-3.3418,-3.3418,-3.3418,-3.3418,-3.3418,-3.3418,-3.3418,-3.3418,-3.3418,-3.3418,-3.3418,-3.3418,-3.3418,-3.3418,-3.3418,-3.3418,-3.3418,-3.3418,-3.3418,-3.3418,-3.3418,-3.331,-3.3213,-3.3184,-3.3037,-3.2744,-3.2471,-3.2275,-3.1894,-3.1484,-3.1201,-3.0967,-3.0723,-3.0567,-3.0762,-3.082,-3.0762,-3.083,-3.0889,-3.0898,-3.0898,-3.0898,-3.085,-3.0859,-3.0898,-3.083,-3.0625,-3.0674,-3.0723,-3.0738,-3.0797,-3.1041,-3.6025,-3.6025,-3.6025,-3.6025,-3.6025,-3.6025,-3.6025,-3.6025,-3.6025,-3.6025,-3.6025,-3.6025,-3.6025,-3.6025,-3.6025,-3.6025,-3.6025,-3.6025,-3.6025,-3.6025,-3.6025,-3.6025,-3.6025,-3.6025,-3.6025,-3.6025,-3.6025,-3.6025,-3.6025,-3.6025,-3.6025,-3.5918,-3.5596,-3.5273,-3.5019,-3.4619,-3.4307,-3.4082,-3.4053,-3.4053,-3.4033,-3.3896,-3.3691,-3.3486,-3.3437,-3.3418,-3.3418,-3.3418,-3.3418,-3.3418,-3.3418,-3.3418,-3.3496,-3.3623,-3.3662,-3.3496,-3.3457,-3.3555,-3.3652,-3.3594,-3.3516,-3.3711,-3.3584,-3.3428,-3.3418,-3.3418,-3.3418,-3.3418,-3.3418,-3.3418,-3.3418,-3.3418,-3.3418,-3.3418,-3.3418,-3.3418,-3.3418,-3.3418,-3.3418,-3.3418,-3.3418,-3.3418,-3.3418,-3.3418,-3.3418,-3.3418,-3.3418,-3.3271,-3.3086,-3.2881,-3.2637,-3.2275,-3.1846,-3.1494,-3.125,-3.0966,-3.0644,-3.0723,-3.0762,-3.0703,-3.0704,-3.0772,-3.0889,-3.0898,-3.0898,-3.0889,-3.0898,-3.0898,-3.0898,-3.0898,-3.085,-3.082,-3.0859,-3.0995,-3.1156,-3.6025,-3.6025,-3.6025,-3.6025,-3.6025,-3.6025,-3.6025,-3.6025,-3.6025,-3.6025,-3.6025,-3.6025,-3.6025,-3.6025,-3.6025,-3.6025,-3.6025,-3.6025,-3.6025,-3.6025,-3.6025,-3.6025,-3.6025,-3.6025,-3.6025,-3.6025,-3.6025,-3.6025,-3.6025,-3.6025,-3.6025,-3.5957,-3.5654,-3.5449,-3.5293,-3.5,-3.4853,-3.4707,-3.4697,-3.4697,-3.46,-3.4365,-3.4053,-3.3721,-3.3682,-3.3721,-3.3779,-3.3789,-3.3789,-3.3769,-3.374,-3.3721,-3.375,-3.4014,-3.4033,-3.375,-3.3691,-3.3887,-3.4004,-3.3955,-3.3935,-3.416,-3.3887,-3.3701,-3.3525,-3.3516,-3.3418,-3.3418,-3.3418,-3.3418,-3.3418,-3.3418,-3.3418,-3.3418,-3.3418,-3.3418,-3.3418,-3.3418,-3.3418,-3.3418,-3.3418,-3.3418,-3.3418,-3.3418,-3.3418,-3.3418,-3.3418,-3.3418,-3.3242,-3.3125,-3.29,-3.2598,-3.2236,-3.1846,-3.1552,-3.1375,-3.1022,-3.0867,-3.0769,-3.0632,-3.0634,-3.0645,-3.0723,-3.0801,-3.0889,-3.0889,-3.0889,-3.0898,-3.0898,-3.0898,-3.0898,-3.0898,-3.0898,-3.0898,-3.0995,-3.6025,-3.6025,-3.6025,-3.6025,-3.6025,-3.6025,-3.6025,-3.6025,-3.6025,-3.6025,-3.6025,-3.6025,-3.6025,-3.6025,-3.6025,-3.6025,-3.6025,-3.6025,-3.6025,-3.6025,-3.6025,-3.6025,-3.6025,-3.6025,-3.6025,-3.6025,-3.6025,-3.6025,-3.6025,-3.6025,-3.6025,-3.5986,-3.5928,-3.5781,-3.5478,-3.5361,-3.5098,-3.4795,-3.4746,-3.4746,-3.4726,-3.4658,-3.458,-3.4502,-3.4463,-3.4424,-3.4385,-3.4375,-3.4414,-3.4453,-3.4492,-3.4521,-3.4551,-3.457,-3.4609,-3.456,-3.4551,-3.458,-3.4619,-3.4473,-3.4463,-3.458,-3.4492,-3.4326,-3.4043,-3.3672,-3.3496,-3.3418,-3.3418,-3.3418,-3.3418,-3.3418,-3.3418,-3.3418,-3.3418,-3.3418,-3.3418,-3.3418,-3.3418,-3.3418,-3.3418,-3.3418,-3.3418,-3.3418,-3.3418,-3.3418,-3.3418,-3.3418,-3.3389,-3.3271,-3.3184,-3.29,-3.2578,-3.2197,-3.1871,-3.1694,-3.138,-3.1088,-3.0871,-3.0703,-3.0667,-3.0631,-3.0537,-3.0605,-3.0694,-3.0782,-3.0762,-3.083,-3.0889,-3.0898,-3.0898,-3.0898,-3.0898,-3.0898,-3.0898,-3.6025,-3.6025,-3.6025,-3.6025,-3.6025,-3.6025,-3.6025,-3.6025,-3.6025,-3.6025,-3.6025,-3.6025,-3.6025,-3.6025,-3.6025,-3.6025,-3.6025,-3.6025,-3.6025,-3.6025,-3.6025,-3.6025,-3.6025,-3.6025,-3.6025,-3.6025,-3.6025,-3.6025,-3.6025,-3.6025,-3.6025,-3.6025,-3.6025,-3.5947,-3.5713,-3.5742,-3.5644,-3.5508,-3.5449,-3.5322,-3.5156,-3.5078,-3.4971,-3.4726,-3.4726,-3.4736,-3.4736,-3.4697,-3.4697,-3.4697,-3.4697,-3.4697,-3.4775,-3.4912,-3.5088,-3.5107,-3.5332,-3.5322,-3.5117,-3.4873,-3.4892,-3.4951,-3.4873,-3.458,-3.4365,-3.4062,-3.3789,-3.3799,-3.3555,-3.3467,-3.3457,-3.3418,-3.3418,-3.3437,-3.3555,-3.3476,-3.3476,-3.3418,-3.3418,-3.3418,-3.3418,-3.3418,-3.3418,-3.3418,-3.3418,-3.3418,-3.3418,-3.3418,-3.3418,-3.3379,-3.3301,-3.3213,-3.2891,-3.2539,-3.227,-3.2012,-3.1636,-3.1341,-3.1089,-3.0891,-3.0768,-3.0686,-3.0546,-3.0327,-3.0378,-3.0448,-3.0625,-3.0762,-3.083,-3.0889,-3.0898,-3.0898,-3.0898,-3.0898,-3.0898,-3.6025,-3.6025,-3.6025,-3.6025,-3.6025,-3.6025,-3.6025,-3.6025,-3.6025,-3.6025,-3.6025,-3.6025,-3.6025,-3.6025,-3.6025,-3.6025,-3.6025,-3.6025,-3.6025,-3.6025,-3.6025,-3.6025,-3.6025,-3.6025,-3.6025,-3.6025,-3.6025,-3.6025,-3.6025,-3.6025,-3.6025,-3.6025,-3.6025,-3.6006,-3.6016,-3.5986,-3.5928,-3.5918,-3.5918,-3.5791,-3.5596,-3.5547,-3.5361,-3.5166,-3.5029,-3.5029,-3.5019,-3.5068,-3.5068,-3.5088,-3.5117,-3.5156,-3.5185,-3.5391,-3.5537,-3.5586,-3.5771,-3.5791,-3.5547,-3.5342,-3.5273,-3.5283,-3.5176,-3.4922,-3.4844,-3.4492,-3.4293,-3.4228,-3.4023,-3.3838,-3.375,-3.3789,-3.3848,-3.3877,-3.3857,-3.3721,-3.3623,-3.3662,-3.3555,-3.3418,-3.3418,-3.3418,-3.3418,-3.3418,-3.3418,-3.3418,-3.3418,-3.3418,-3.3418,-3.3418,-3.3389,-3.333,-3.3193,-3.2858,-3.2603,-3.2314,-3.1927,-3.1527,-3.1333,-3.0973,-3.0752,-3.0672,-3.0624,-3.0408,-3.0209,-3.0284,-3.0522,-3.0663,-3.082,-3.0889,-3.0898,-3.0898,-3.0898,-3.0889,-3.0889,-3.6025,-3.6025,-3.6025,-3.6025,-3.6025,-3.6025,-3.6025,-3.6025,-3.6025,-3.6025,-3.6025,-3.6025,-3.6025,-3.6025,-3.6025,-3.6025,-3.6025,-3.6025,-3.6025,-3.6025,-3.6025,-3.6025,-3.6025,-3.6025,-3.6025,-3.6025,-3.6025,-3.6025,-3.6025,-3.6025,-3.6025,-3.6025,-3.6025,-3.6025,-3.6025,-3.6025,-3.6025,-3.6025,-3.6025,-3.6025,-3.5928,-3.5918,-3.5879,-3.5879,-3.5889,-3.5928,-3.5918,-3.581,-3.5762,-3.5752,-3.5732,-3.5742,-3.5713,-3.5801,-3.5869,-3.5908,-3.5947,-3.5957,-3.583,-3.581,-3.5908,-3.583,-3.5625,-3.5342,-3.5312,-3.4922,-3.4697,-3.4639,-3.4463,-3.4453,-3.4502,-3.459,-3.4404,-3.4355,-3.4258,-3.418,-3.4092,-3.4043,-3.3896,-3.3545,-3.3467,-3.3555,-3.3476,-3.3496,-3.3428,-3.3418,-3.3418,-3.3418,-3.3418,-3.3418,-3.3418,-3.3389,-3.3335,-3.3131,-3.2888,-3.2535,-3.2064,-3.1681,-3.1374,-3.0937,-3.0546,-3.0532,-3.0633,-3.0564,-3.0447,-3.046,-3.0443,-3.0529,-3.0613,-3.083,-3.0889,-3.0713,-3.0704,-3.0704,-3.0762,-3.6025,-3.6025,-3.6025,-3.6025,-3.6025,-3.6025,-3.6025,-3.6025,-3.6025,-3.6025,-3.6025,-3.6025,-3.6025,-3.6025,-3.6025,-3.6025,-3.6025,-3.6025,-3.6025,-3.6025,-3.6025,-3.6025,-3.6025,-3.6025,-3.6025,-3.6025,-3.6025,-3.6025,-3.6025,-3.6025,-3.6025,-3.6025,-3.6025,-3.6025,-3.6025,-3.6025,-3.6025,-3.6025,-3.6025,-3.6025,-3.6025,-3.6025,-3.6025,-3.6025,-3.6025,-3.6025,-3.6006,-3.6016,-3.6025,-3.6025,-3.6025,-3.6025,-3.6025,-3.6025,-3.6025,-3.6025,-3.6025,-3.6025,-3.6025,-3.6025,-3.6025,-3.6006,-3.5869,-3.5762,-3.5713,-3.5371,-3.5166,-3.5059,-3.4883,-3.4824,-3.4717,-3.4697,-3.4639,-3.4687,-3.4697,-3.4648,-3.456,-3.4492,-3.4346,-3.4043,-3.3896,-3.3867,-3.373,-3.3584,-3.3496,-3.3418,-3.3418,-3.3418,-3.3418,-3.3418,-3.3418,-3.3355,-3.3355,-3.3165,-3.2858,-3.2511,-3.2155,-3.1797,-3.1494,-3.1128,-3.0789,-3.0688,-3.0722,-3.0664,-3.0587,-3.0497,-3.0447,-3.0297,-3.0389,-3.0554,-3.0419,-3.0225,-3.0343,-3.046,-3.0518,-3.6025,-3.6025,-3.6025,-3.6025,-3.6025,-3.6025,-3.6025,-3.6025,-3.6025,-3.6025,-3.6025,-3.6025,-3.6025,-3.6025,-3.6025,-3.6025,-3.6025,-3.6025,-3.6025,-3.6025,-3.6025,-3.6025,-3.6025,-3.6025,-3.6025,-3.6025,-3.6025,-3.6025,-3.6025,-3.6025,-3.6025,-3.6025,-3.6025,-3.6025,-3.6025,-3.6025,-3.6025,-3.6025,-3.6025,-3.6025,-3.6025,-3.6025,-3.6025,-3.6025,-3.6025,-3.6025,-3.6025,-3.6025,-3.6025,-3.6025,-3.6025,-3.6025,-3.6025,-3.6025,-3.6025,-3.6025,-3.6025,-3.6025,-3.6025,-3.6025,-3.6025,-3.6016,-3.6016,-3.5996,-3.5937,-3.5742,-3.5586,-3.5355,-3.515,-3.5002,-3.486,-3.4996,-3.5101,-3.5189,-3.5236,-3.5244,-3.5029,-3.4912,-3.4766,-3.457,-3.4424,-3.4248,-3.4199,-3.4043,-3.3686,-3.353,-3.3418,-3.3418,-3.3418,-3.3418,-3.3418,-3.3355,-3.3301,-3.3048,-3.2785,-3.2457,-3.2128,-3.1726,-3.1451,-3.1423,-3.1148,-3.102,-3.0947,-3.1018,-3.0906,-3.0585,-3.0479,-3.0432,-3.0311,-3.0165,-3.0121,-3.0016,-3.0039,-3.0157,-3.0216,-3.6025,-3.6025,-3.6025,-3.6025,-3.6025,-3.6025,-3.6025,-3.6025,-3.6025,-3.6025,-3.6025,-3.6025,-3.6025,-3.6025,-3.6025,-3.6025,-3.6025,-3.6025,-3.6025,-3.6025,-3.6025,-3.6025,-3.6025,-3.6025,-3.6025,-3.6025,-3.6025,-3.6025,-3.6025,-3.6025,-3.6025,-3.6025,-3.6025,-3.6025,-3.6025,-3.6025,-3.6025,-3.6025,-3.6025,-3.6025,-3.6025,-3.6025,-3.6025,-3.6025,-3.6025,-3.6025,-3.6025,-3.6025,-3.6025,-3.6025,-3.6025,-3.6025,-3.6025,-3.6025,-3.6025,-3.6025,-3.6025,-3.6025,-3.6025,-3.6025,-3.6025,-3.6025,-3.6025,-3.5947,-3.5947,-3.5899,-3.5714,-3.5355,-3.5472,-3.5374,-3.5374,-3.5442,-3.5433,-3.553,-3.5617,-3.5626,-3.5402,-3.5361,-3.5225,-3.4898,-3.4741,-3.4687,-3.4668,-3.4476,-3.4076,-3.3784,-3.3462,-3.3364,-3.333,-3.3292,-3.3292,-3.3228,-3.3165,-3.2858,-3.2603,-3.2422,-3.2093,-3.1708,-3.1442,-3.1442,-3.1377,-3.1258,-3.1231,-3.1277,-3.1175,-3.0881,-3.0698,-3.0523,-3.0365,-3.026,-3.0043,-2.9952,-2.9957,-2.9976,-3.0177,-3.6025,-3.6025,-3.6025,-3.6025,-3.6025,-3.6025,-3.6025,-3.6025,-3.6025,-3.6025,-3.6025,-3.6025,-3.6025,-3.6025,-3.6025,-3.6025,-3.6025,-3.6025,-3.6025,-3.6025,-3.6025,-3.6025,-3.6025,-3.6025,-3.6025,-3.6025,-3.6025,-3.6025,-3.6025,-3.6025,-3.6025,-3.6025,-3.6025,-3.6025,-3.6025,-3.6025,-3.6025,-3.6025,-3.6025,-3.6025,-3.6025,-3.6025,-3.6025,-3.6025,-3.6025,-3.6025,-3.6025,-3.6025,-3.6025,-3.6025,-3.6025,-3.6025,-3.6025,-3.6025,-3.6025,-3.6025,-3.6025,-3.6025,-3.6025,-3.6025,-3.6025,-3.6025,-3.6025,-3.5879,-3.5753,-3.5684,-3.547,-3.5196,-3.5264,-3.5127,-3.503,-3.5304,-3.548,-3.5549,-3.5656,-3.5656,-3.5607,-3.5665,-3.5597,-3.5066,-3.4816,-3.4584,-3.4506,-3.4497,-3.4208,-3.3929,-3.3659,-3.3328,-3.3241,-3.3116,-3.3058,-3.3102,-3.2975,-3.2731,-3.2422,-3.223,-3.1965,-3.157,-3.1442,-3.1442,-3.1377,-3.1377,-3.1359,-3.1322,-3.1258,-3.1167,-3.0992,-3.0781,-3.0505,-3.0331,-3.0311,-3.0176,-3.006,-3.0256,-3.0518,-3.6025,-3.6025,-3.6025,-3.6025,-3.6025,-3.6025,-3.6025,-3.6025,-3.6025,-3.6025,-3.6025,-3.6025,-3.6025,-3.6025,-3.6025,-3.6025,-3.6025,-3.6025,-3.6025,-3.6025,-3.6025,-3.6025,-3.6025,-3.6025,-3.6025,-3.6025,-3.6025,-3.6025,-3.6025,-3.6025,-3.6025,-3.6025,-3.6025,-3.6025,-3.6025,-3.6025,-3.6025,-3.6025,-3.6025,-3.6025,-3.6025,-3.6025,-3.6025,-3.6025,-3.6025,-3.6025,-3.6025,-3.6025,-3.6025,-3.6025,-3.6025,-3.6025,-3.6025,-3.6025,-3.6025,-3.6025,-3.6025,-3.6025,-3.6025,-3.5821,-3.5821,-3.5753,-3.5889,-3.5821,-3.5616,-3.5538,-3.5196,-3.4921,-3.4853,-3.4715,-3.4646,-3.5,-3.5274,-3.5333,-3.5333,-3.5392,-3.5382,-3.55,-3.548,-3.4975,-3.4772,-3.4565,-3.448,-3.4365,-3.426,-3.4023,-3.3851,-3.3461,-3.3135,-3.3046,-3.3014,-3.2995,-3.288,-3.2514,-3.2258,-3.1983,-3.1717,-3.1442,-3.1377,-3.1377,-3.1377,-3.1377,-3.1377,-3.1377,-3.1322,-3.1286,-3.1286,-3.1166,-3.09,-3.078,-3.0788,-3.0595,-3.0277,-3.0436,-3.0677,-3.6016,-3.6025,-3.6025,-3.6025,-3.6025,-3.6025,-3.6025,-3.6025,-3.6025,-3.6025,-3.6025,-3.6025,-3.6025,-3.6025,-3.6025,-3.6025,-3.6025,-3.6025,-3.6025,-3.6025,-3.6025,-3.6025,-3.6025,-3.6025,-3.6025,-3.6025,-3.6025,-3.6025,-3.6025,-3.6025,-3.6025,-3.6025,-3.6025,-3.6025,-3.6025,-3.6025,-3.6025,-3.6025,-3.6025,-3.6025,-3.6025,-3.6025,-3.6025,-3.6025,-3.6025,-3.6025,-3.6025,-3.6025,-3.6025,-3.6025,-3.6025,-3.6025,-3.6025,-3.6025,-3.6025,-3.6025,-3.6025,-3.6025,-3.5957,-3.5743,-3.5616,-3.5616,-3.5821,-3.5753,-3.5479,-3.5196,-3.4921,-3.4646,-3.4508,-3.4232,-3.4094,-3.4439,-3.4784,-3.4853,-3.4853,-3.4912,-3.4921,-3.4912,-3.4902,-3.4746,-3.4668,-3.4586,-3.4607,-3.4529,-3.4137,-3.412,-3.3923,-3.3733,-3.3397,-3.3104,-3.3075,-3.3055,-3.2829,-3.2343,-3.2113,-3.1884,-3.1653,-3.1442,-3.1377,-3.1377,-3.1377,-3.1387,-3.1377,-3.1377,-3.1377,-3.1359,-3.1341,-3.1341,-3.1359,-3.1222,-3.1084,-3.0965,-3.0681,-3.0543,-3.065,-3.62,-3.6016,-3.6025,-3.6025,-3.6025,-3.6025,-3.6025,-3.6025,-3.6025,-3.6025,-3.6025,-3.6025,-3.6025,-3.6025,-3.6025,-3.6025,-3.6025,-3.6025,-3.6025,-3.6025,-3.6025,-3.6025,-3.6025,-3.6025,-3.6025,-3.6025,-3.6025,-3.6025,-3.6025,-3.6025,-3.6025,-3.6025,-3.6025,-3.6025,-3.6025,-3.6025,-3.6025,-3.6025,-3.6025,-3.6025,-3.6025,-3.6025,-3.6025,-3.6025,-3.6025,-3.6025,-3.6025,-3.6025,-3.6025,-3.6025,-3.6025,-3.6025,-3.6025,-3.6025,-3.6025,-3.6025,-3.6025,-3.6025,-3.5957,-3.5889,-3.5753,-3.5479,-3.5548,-3.5196,-3.4931,-3.4724,-3.4518,-3.4301,-3.4163,-3.3955,-3.3955,-3.4232,-3.4439,-3.4508,-3.4508,-3.4577,-3.4646,-3.4637,-3.4568,-3.4361,-3.4301,-3.4361,-3.443,-3.4333,-3.3959,-3.4046,-3.4009,-3.3839,-3.3598,-3.328,-3.3133,-3.3171,-3.2852,-3.2441,-3.2143,-3.2014,-3.17,-3.1442,-3.1543,-3.1533,-3.1515,-3.1515,-3.1423,-3.1377,-3.1377,-3.1377,-3.1368,-3.1377,-3.1377,-3.1377,-3.1267,-3.1194,-3.1102,-3.0937,-3.0864,-3.6393,-3.62,-3.6016,-3.6025,-3.6025,-3.6025,-3.6025,-3.6025,-3.6025,-3.6025,-3.6025,-3.6025,-3.6025,-3.6025,-3.6025,-3.6025,-3.6025,-3.6025,-3.6025,-3.6025,-3.6025,-3.6025,-3.6025,-3.6025,-3.6025,-3.6025,-3.6025,-3.6025,-3.6025,-3.6025,-3.6025,-3.6025,-3.6025,-3.6025,-3.6025,-3.6025,-3.6025,-3.6025,-3.6025,-3.6025,-3.6025,-3.6025,-3.6025,-3.6025,-3.6025,-3.6025,-3.6025,-3.6025,-3.6025,-3.6025,-3.6025,-3.6025,-3.6025,-3.6025,-3.6025,-3.6025,-3.6025,-3.6025,-3.5957,-3.5606,-3.547,-3.5264,-3.5068,-3.4577,-3.4508,-3.4301,-3.4163,-3.3955,-3.3886,-3.3817,-3.3886,-3.4024,-3.4094,-3.4163,-3.4232,-3.437,-3.437,-3.4361,-3.4154,-3.3955,-3.3886,-3.4024,-3.3955,-3.3886,-3.3807,-3.39,-3.3951,-3.3845,-3.3651,-3.336,-3.3264,-3.323,-3.2866,-3.2494,-3.229,-3.2198,-3.2059,-3.19,-3.2001,-3.2001,-3.1827,-3.1698,-3.1662,-3.1524,-3.1377,-3.1396,-3.1442,-3.1387,-3.1377,-3.1377,-3.1377,-3.1313,-3.1267,-3.124,-3.1222,-3.6519,-3.6451,-3.6142,-3.6025,-3.6025,-3.6025,-3.6025,-3.6025,-3.6025,-3.6025,-3.6025,-3.6025,-3.6025,-3.6025,-3.6025,-3.6025,-3.6025,-3.6025,-3.6025,-3.6025,-3.6025,-3.6025,-3.6025,-3.6025,-3.6025,-3.6025,-3.6025,-3.6025,-3.6025,-3.6025,-3.6025,-3.6025,-3.6025,-3.6025,-3.6025,-3.6025,-3.6025,-3.6025,-3.6025,-3.6025,-3.6025,-3.6025,-3.6025,-3.6025,-3.6025,-3.6025,-3.6025,-3.6025,-3.6025,-3.6025,-3.6025,-3.6025,-3.6025,-3.6025,-3.6025,-3.6025,-3.6025,-3.6025,-3.5889,-3.5606,-3.5196,-3.4853,-3.4292,-3.4154,-3.4163,-3.4094,-3.3955,-3.3886,-3.3817,-3.3817,-3.3886,-3.3886,-3.3955,-3.3955,-3.4024,-3.4094,-3.4094,-3.4084,-3.4024,-3.3817,-3.3817,-3.3886,-3.3886,-3.3817,-3.3817,-3.3817,-3.3817,-3.3817,-3.3707,-3.3441,-3.3408,-3.3357,-3.3062,-3.2786,-3.2645,-3.2563,-3.2544,-3.2487,-3.2496,-3.2432,-3.2239,-3.2074,-3.1918,-3.1827,-3.1744,-3.1561,-3.1524,-3.1469,-3.1414,-3.1377,-3.1377,-3.1377,-3.1387,-3.1423,-3.1377,-3.6799,-3.6441,-3.6142,-3.6025,-3.6025,-3.6025,-3.6025,-3.6025,-3.6025,-3.6025,-3.6025,-3.6025,-3.6025,-3.6025,-3.6025,-3.6025,-3.6025,-3.6025,-3.6025,-3.6025,-3.6025,-3.6025,-3.6025,-3.6025,-3.6025,-3.6025,-3.6025,-3.6025,-3.6025,-3.6025,-3.6025,-3.6025,-3.6025,-3.6025,-3.6025,-3.6025,-3.6025,-3.6025,-3.6025,-3.6025,-3.6025,-3.6025,-3.6025,-3.6025,-3.6025,-3.6025,-3.6025,-3.6025,-3.6025,-3.6025,-3.6025,-3.6025,-3.6025,-3.6025,-3.6025,-3.6025,-3.6025,-3.6025,-3.5889,-3.5675,-3.5323,-3.4981,-3.4568,-3.4232,-3.4094,-3.3955,-3.3886,-3.3817,-3.3817,-3.3817,-3.3817,-3.3817,-3.3817,-3.3817,-3.3817,-3.3817,-3.3817,-3.3817,-3.3817,-3.3817,-3.3817,-3.3817,-3.3817,-3.3817,-3.3817,-3.3817,-3.3817,-3.3817,-3.3817,-3.3661,-3.3633,-3.3583,-3.3294,-3.3083,-3.3028,-3.2964,-3.2918,-3.2799,-3.2744,-3.2689,-3.2643,-3.2514,-3.2368,-3.2276,-3.2166,-3.1974,-3.1753,-3.1543,-3.1488,-3.1543,-3.157,-3.1662,-3.1579,-3.1579,-3.146,-3.7079,-3.6934,-3.6403,-3.6142,-3.6025,-3.6025,-3.6025,-3.6025,-3.6025,-3.6025,-3.6025,-3.6025,-3.6025,-3.6025,-3.6025,-3.6025,-3.6025,-3.6025,-3.6025,-3.6025,-3.6025,-3.6025,-3.6025,-3.6025,-3.6025,-3.6025,-3.6025,-3.6025,-3.6025,-3.6025,-3.6025,-3.6025,-3.6025,-3.6025,-3.6025,-3.6025,-3.6025,-3.6025,-3.6025,-3.6025,-3.6025,-3.6025,-3.6025,-3.6025,-3.6025,-3.6025,-3.6025,-3.6025,-3.6025,-3.6025,-3.6025,-3.6025,-3.6025,-3.6025,-3.6025,-3.6025,-3.6025,-3.6025,-3.5957,-3.5675,-3.5392,-3.5049,-3.4499,-3.4024,-3.3955,-3.3886,-3.3886,-3.3817,-3.3817,-3.3817,-3.3817,-3.3817,-3.3817,-3.3817,-3.3817,-3.3817,-3.3817,-3.3817,-3.3817,-3.3817,-3.3817,-3.3817,-3.3817,-3.3817,-3.3817,-3.3817,-3.3817,-3.3817,-3.3817,-3.3817,-3.3817,-3.3771,-3.3532,-3.3486,-3.3468,-3.3395,-3.3312,-3.3184,-3.3037,-3.3037,-3.3037,-3.2936,-3.2826,-3.2661,-3.2514,-3.2359,-3.2129,-3.1928,-3.1955,-3.2093,-3.2056,-3.201,-3.1891,-3.1827,-3.1863,-3.728,-3.7415,-3.6799,-3.6326,-3.6084,-3.6016,-3.6025,-3.6025,-3.6025,-3.6025,-3.6025,-3.6025,-3.6025,-3.6025,-3.6025,-3.6025,-3.6025,-3.6025,-3.6025,-3.6025,-3.6025,-3.6025,-3.6025,-3.6025,-3.6025,-3.6025,-3.6025,-3.6025,-3.6025,-3.6025,-3.6025,-3.6025,-3.6025,-3.6025,-3.6025,-3.6025,-3.6025,-3.6025,-3.6025,-3.6025,-3.6025,-3.6025,-3.6025,-3.6025,-3.6025,-3.6025,-3.6025,-3.6025,-3.6025,-3.6025,-3.6025,-3.6025,-3.6025,-3.6025,-3.6025,-3.6025,-3.6025,-3.6025,-3.5889,-3.547,-3.5196,-3.4784,-3.4223,-3.3886,-3.3886,-3.3817,-3.3817,-3.3817,-3.3817,-3.3817,-3.3817,-3.3817,-3.3817,-3.3817,-3.3817,-3.3817,-3.3817,-3.3817,-3.3817,-3.3817,-3.3817,-3.3817,-3.3817,-3.3817,-3.3817,-3.3817,-3.3817,-3.3817,-3.3817,-3.3817,-3.3817,-3.3817,-3.3716,-3.3725,-3.378,-3.3697,-3.356,-3.3578,-3.345,-3.345,-3.3431,-3.334,-3.3184,-3.2964,-3.2817,-3.2716,-3.2615,-3.2459,-3.2533,-3.2542,-3.2404,-3.2285,-3.2322,-3.2285,-3.2414,-3.7415,-3.7146,-3.6664,-3.6451,-3.6326,-3.6152,-3.6025,-3.6025,-3.6025,-3.6025,-3.6025,-3.6025,-3.6025,-3.6025,-3.6025,-3.6025,-3.6025,-3.6025,-3.6025,-3.6025,-3.6025,-3.6025,-3.6025,-3.6025,-3.6025,-3.6025,-3.6025,-3.6025,-3.6025,-3.6025,-3.6025,-3.6025,-3.6025,-3.6025,-3.6025,-3.6025,-3.6025,-3.6025,-3.6025,-3.6025,-3.6025,-3.6025,-3.6025,-3.6025,-3.6025,-3.6025,-3.6025,-3.6025,-3.6025,-3.6025,-3.6025,-3.6025,-3.6025,-3.6025,-3.6025,-3.6025,-3.6025,-3.6025,-3.5821,-3.5538,-3.5274,-3.4853,-3.4361,-3.4094,-3.3955,-3.3817,-3.3817,-3.3817,-3.3817,-3.3817,-3.3817,-3.3817,-3.3817,-3.3817,-3.3817,-3.3817,-3.3817,-3.3817,-3.3817,-3.3817,-3.3817,-3.3817,-3.3817,-3.3817,-3.3817,-3.3817,-3.3817,-3.3817,-3.3817,-3.3817,-3.3817,-3.3817,-3.3817,-3.3817,-3.3807,-3.3798,-3.3725,-3.3789,-3.3798,-3.3688,-3.3661,-3.3725,-3.3569,-3.3331,-3.3202,-3.312,-3.3019,-3.2955,-3.2808,-3.2771,-3.2634,-3.2551,-3.2634,-3.2744,-3.2863]},{"header":{"parameterUnit":"m.s-1","parameterCategory":1,"la1":31.0,"la2":29.5877,"lo1":-88.7671,"lo2":-86.6584,"dy":0.0162,"dx":0.0185,"nx":115,"ny":88,"refTime":"2026-03-29T00:00:00:Z","depth":0,"parameterNumber":3,"parameterNumberName":"V-component_of_WINDS"},"data":[0.0,0.0,0.0,0.0,0.0,0.0,0.0,0.0,0.0,0.0,0.0,0.0,0.0,0.0,0.0,0.0,0.0,0.0,0.0,0.0,0.0,0.0,0.0,0.0,0.0,0.0,0.0,0.0,0.0,0.0,0.0,0.0,0.0,0.0,0.0,0.0,0.0,0.0,0.0,0.0,0.0,0.0,0.0,0.0,0.0,0.0,0.0,0.0,0.0,0.0,0.0,0.0,0.0,0.0,0.0,0.0,0.0,0.0,0.0,0.0,0.0,0.0,0.0,0.0,0.0,0.0,0.0,0.0,0.0,0.0,0.0,0.0,0.0,0.0,0.0,0.0,0.0,0.0,0.0,0.0,0.0,0.0,0.0,0.0,0.0,0.0,0.0,0.0,0.0,0.0,0.0,0.0,0.0,0.0,0.0,0.0,0.0,0.0,0.0,0.0,0.0,0.0,0.0,0.0,0.0,0.0,0.0,0.0,0.0,0.0,0.0,0.0,0.0,0.0,0.0,0.0,0.0,0.0,0.0,0.0,0.0,0.0,0.0,0.0,0.0,0.0,0.0,0.0,0.0,0.0,0.0,0.0,0.0,0.0,0.0,0.0,0.0,0.0,0.0,0.0,0.0,0.0,0.0,0.0,0.0,0.0,0.0,0.0,0.0,0.0,0.0,0.0,0.0,0.0,0.0,0.0,0.0,0.0,0.0,0.0,0.0,0.0,0.0,0.0,0.0,0.0,0.0,0.0,0.0,0.0,0.0,0.0,0.0,0.0,0.0,0.0,0.0,0.0,0.0,0.0,0.0,0.0,0.0,0.0,0.0,0.0,0.0,0.0,0.0,0.0,0.0,0.0,0.0,0.0,0.0,0.0,0.0,0.0,0.0,0.0,0.0,0.0,0.0,0.0,0.0,0.0,0.0,0.0,0.0,0.0,0.0,0.0,0.0,0.0,0.0,0.0,0.0,0.0,0.0,0.0,0.0,0.0,0.0,0.0,0.0,0.0,0.0,0.0,0.0,0.0,0.0,0.0,0.0,0.0,0.0,0.0,0.0,0.0,0.0,0.0,0.0,0.0,0.0,0.0,0.0,0.0,0.0,0.0,0.0,0.0,0.0,0.0,0.0,0.0,0.0,0.0,0.0,0.0,0.0,0.0,0.0,0.0,0.0,0.0,0.0,0.0,0.0,0.0,0.0,0.0,0.0,0.0,0.0,0.0,0.0,0.0,0.0,0.0,0.0,0.0,0.0,0.0,0.0,0.0,0.0,0.0,0.0,0.0,0.0,0.0,0.0,0.0,0.0,0.0,0.0,0.0,0.0,0.0,0.0,0.0,0.0,0.0,0.0,0.0,0.0,0.0,0.0,0.0,0.0,0.0,0.0,0.0,0.0,0.0,0.0,0.0,0.0,0.0,0.0,0.0,0.0,0.0,0.0,0.0,0.0,0.0,0.0,0.0,0.0,0.0,0.0,0.0,0.0,0.0,0.0,0.0,0.0,0.0,0.0,0.0,0.0,0.0,0.0,0.0,0.0,0.0,0.0,0.0,0.0,0.0,0.0,0.0,0.0,0.0,0.0,0.0,0.0,0.0,0.0,0.0,0.0,0.0,0.0,0.0,0.0,0.0,0.0,0.0,0.0,0.0,0.0,0.0,0.0,0.0,0.0,0.0,0.0,0.0,0.0,0.0,0.0,0.0,0.0,0.0,0.0,0.0,0.0,0.0,0.0,0.0,0.0,0.0,0.0,0.0,0.0,0.0,0.0,0.0,0.0,0.0,0.0,0.0,0.0,0.0,0.0,0.0,0.0,0.0,0.0,0.0,0.0,0.0,0.0,0.0,0.0,0.0,0.0,0.0,0.0,0.0,0.0,0.0,0.0,0.0,0.0,0.0,0.0,0.0,0.0,0.0,0.0,0.0,0.0,0.0,0.0,0.0,0.0,0.0,0.0,0.0,0.0,0.0,0.0,0.0,0.0,0.0,0.0,0.0,0.0,0.0,0.0,0.0,0.0,0.0,0.0,0.0,0.0,0.0,0.0,0.0,0.0,0.0,0.0,0.0,0.0,0.0,0.0,0.0,0.0,0.0,0.0,0.0,0.0,0.0,0.0,0.0,0.0,0.0,0.0,0.0,0.0,0.0,0.0,0.0,0.0,0.0,0.0,0.0,0.0,0.0,0.0,0.0,0.0,0.0,0.0,0.0,0.0,0.0,0.0,0.0,0.0,0.0,0.0,0.0,0.0,0.0,0.0,0.0,0.0,0.0,0.0,0.0,0.0,0.0,0.0,0.0,0.0,0.0,0.0,0.0,0.0,0.0,0.0,0.0,0.0,0.0,0.0,0.0,0.0,0.0,0.0,0.0,0.0,0.0,0.0,0.0,0.0,0.0,0.0,0.0,0.0,0.0,0.0,0.0,0.0,0.0,0.0,0.0,0.0,0.0,0.0,0.0,0.0,0.0,0.0,0.0,0.0,0.0,0.0,0.0,0.0,0.0,0.0,0.0,0.0,0.0,0.0,0.0,0.0,0.0,0.0,0.0,0.0,0.0,0.0,0.0,0.0,0.0,0.0,0.0,0.0,0.0,0.0,0.0,0.0,0.0,0.0,0.0,0.0,0.0,0.0,0.0,0.0,0.0,0.0,0.0,0.0,0.0,0.0,0.0,0.0,0.0,0.0,0.0,0.0,0.0,0.0,0.0,0.0,0.0,0.0,0.0,0.0,0.0,0.0,0.0,0.0,0.0,0.0,0.0,0.0,0.0,0.0,0.0,0.0,0.0,0.0,0.0,0.0,0.0,0.0,0.0,0.0,0.0,0.0,0.0,0.0,0.0,0.0,0.0,0.0,0.0,0.0,0.0,0.0,0.0,0.0,0.0,0.0,0.0,0.0,0.0,0.0,0.0,0.0,0.0,0.0,0.0,0.0,0.0,0.0,0.0,0.0,0.0,0.0,0.0,0.0,0.0,0.0,0.0,0.0,0.0,0.0,0.0,0.0,0.0,0.0,0.0,0.0,0.0,0.0,0.0,0.0,0.0,0.0,0.0,0.0,0.0,0.0,0.0,0.0,0.0,0.0,0.0,0.0,0.0,0.0,0.0,0.0,0.0,0.0,0.0,0.0,0.0,0.0,0.0,0.0,0.0,0.0,0.0,0.0,0.0,0.0,0.0,0.0,0.0,0.0,0.0,0.0,0.0,0.0,0.0,0.0,0.0,0.0,0.0,0.0,0.0,0.0,0.0,0.0,0.0,0.0,0.0,0.0,0.0,0.0,0.0,0.0,0.0,0.0,0.0,0.0,0.0,0.0,0.0,0.0,0.0,0.0,0.0,0.0,0.0,0.0,0.0,0.0,0.0,0.0,0.0,0.0,0.0,0.0,0.0,0.0,0.0,0.0,0.0,0.0,0.0,0.0,0.0,0.0,0.0,0.0,0.0,0.0,0.0,0.0,0.0,0.0,0.0,0.0,0.0,0.0,0.0,0.0,0.0,0.0,0.0,0.0,0.0,0.0,0.0,0.0,0.0,0.0,0.0,0.0,0.0,0.0,0.0,0.0,0.0,0.0,0.0,0.0,0.0,0.0,0.0,0.0,0.0,0.0,0.0,0.0,0.0,0.0,0.0,0.0,0.0,0.0,0.0,0.0,0.0,0.0,0.0,0.0,0.0,0.0,0.0,0.0,0.0,0.0,0.0,0.0,0.0,0.0,0.0,0.0,0.0,0.0,0.0,0.0,0.0,0.0,0.0,0.0,0.0,0.0,0.0,0.0,0.0,0.0,0.0,0.0,0.0,0.0,0.0,0.0,0.0,0.0,0.0,0.0,0.0,0.0,0.0,0.0,0.0,0.0,0.0,0.0,0.0,0.0,0.0,0.0,0.0,0.0,0.0,0.0,0.0,0.0,0.0,0.0,0.0,0.0,0.0,0.0,0.0,0.0,0.0,0.0,0.0,0.0,0.0,0.0,0.0,0.0,0.0,0.0,0.0,0.0,0.0,0.0,0.0,0.0,0.0,0.0,0.0,0.0,0.0,0.0,0.0,0.0,0.0,0.0,0.0,0.0,0.0,0.0,0.0,0.0,0.0,0.0,0.0,0.0,0.0,0.0,0.0,0.0,0.0,0.0,0.0,0.0,0.0,0.0,0.0,0.0,0.0,0.0,0.0,0.0,0.0,0.0,0.0,0.0,0.0,0.0,0.0,0.0,0.0,0.0,0.0,0.0,0.0,0.0,0.0,0.0,0.0,0.0,0.0,0.0,0.0,0.0,0.0,0.0,0.0,0.0,0.0,1.9869,0.0,0.0,0.0,0.0,0.0,0.0,0.0,0.0,0.0,0.0,0.0,0.0,0.0,0.0,0.0,0.0,0.0,0.0,0.0,0.0,0.0,0.0,0.0,0.0,0.0,0.0,0.0,0.0,0.0,0.0,0.0,0.0,0.0,0.0,0.0,0.0,0.0,0.0,0.0,0.0,0.0,0.0,0.0,0.0,0.0,0.0,0.0,0.0,0.0,0.0,0.0,0.0,0.0,0.0,0.0,0.0,0.0,0.0,0.0,0.0,0.0,0.0,0.0,0.0,0.0,0.0,0.0,0.0,0.0,0.0,0.0,0.0,0.0,0.0,0.0,0.0,0.0,0.0,0.0,0.0,0.0,0.0,0.0,0.0,0.0,0.0,0.0,0.0,0.0,0.0,0.0,0.0,0.0,0.0,0.0,0.0,0.0,0.0,0.0,0.0,0.0,0.0,0.0,0.0,0.0,0.0,0.0,0.0,0.0,0.0,2.1484,2.1711,2.1341,2.0877,2.017,0.0,0.0,0.0,0.0,0.0,0.0,0.0,0.0,0.0,0.0,0.0,0.0,0.0,0.0,0.0,0.0,0.0,0.0,0.0,0.0,0.0,0.0,0.0,0.0,0.0,0.0,0.0,0.0,0.0,0.0,0.0,0.0,0.0,0.0,0.0,0.0,0.0,0.0,0.0,0.0,0.0,0.0,0.0,0.0,0.0,0.0,0.0,0.0,0.0,0.0,0.0,0.0,0.0,0.0,0.0,0.0,0.0,0.0,0.0,0.0,0.0,0.0,0.0,0.0,0.0,0.0,0.0,0.0,0.0,0.0,0.0,0.0,0.0,0.0,0.0,0.0,0.0,0.0,0.0,0.0,0.0,0.0,0.0,0.0,0.0,0.0,0.0,0.0,0.0,0.0,0.0,0.0,0.0,0.0,0.0,0.0,0.0,0.0,0.0,0.0,0.0,0.0,0.0,0.0,0.0,0.0,0.0,0.0,0.0,0.0,0.0,0.0,2.1703,2.1163,2.0297,0.0,0.0,0.0,0.0,0.0,0.0,0.0,0.0,0.0,0.0,0.0,0.0,0.0,0.0,0.0,0.0,0.0,0.0,0.0,0.0,0.0,0.0,0.0,0.0,0.0,0.0,0.0,0.0,0.0,0.0,0.0,0.0,0.0,0.0,0.0,0.0,0.0,0.0,0.0,0.0,0.0,0.0,0.0,0.0,0.0,0.0,0.0,0.0,0.0,0.0,0.0,0.0,0.0,0.0,0.0,0.0,0.0,0.0,0.0,0.0,0.0,0.0,0.0,0.0,0.0,0.0,0.0,0.0,0.0,0.0,0.0,0.0,0.0,0.0,0.0,0.0,0.0,0.0,0.0,0.0,0.0,0.0,0.0,0.0,0.0,0.0,0.0,0.0,0.0,0.0,0.0,0.0,0.0,0.0,0.0,0.0,0.0,0.0,0.0,0.0,0.0,0.0,0.0,0.0,0.0,0.0,0.0,0.0,0.0,0.0,2.1979,2.2011,2.1979,0.0,2.006,0.0,0.0,0.0,0.0,0.0,0.0,0.0,0.0,0.0,0.0,0.0,0.0,0.0,0.0,0.0,0.0,0.0,0.0,0.0,0.0,0.0,0.0,0.0,0.0,0.0,0.0,0.0,0.0,0.0,0.0,0.0,0.0,0.0,0.0,0.0,0.0,0.0,0.0,0.0,0.0,0.0,0.0,0.0,0.0,0.0,0.0,0.0,0.0,0.0,0.0,0.0,0.0,0.0,0.0,0.0,0.0,0.0,0.0,0.0,0.0,0.0,0.0,0.0,0.0,0.0,0.0,0.0,0.0,0.0,0.0,0.0,0.0,0.0,0.0,0.0,0.0,0.0,0.0,0.0,0.0,0.0,0.0,0.0,0.0,0.0,0.0,0.0,0.0,0.0,0.0,0.0,0.0,0.0,0.0,0.0,0.0,0.0,0.0,0.0,0.0,0.0,0.0,0.0,0.0,0.0,0.0,0.0,0.0,0.0,0.0,2.237,2.2577,2.2344,2.1769,0.0,0.0,0.0,0.0,0.0,0.0,0.0,0.0,0.0,0.0,0.0,0.0,0.0,0.0,0.0,0.0,0.0,0.0,0.0,0.0,0.0,0.0,0.0,0.0,0.0,0.0,0.0,0.0,0.0,0.0,0.0,0.0,0.0,0.0,0.0,0.0,0.0,0.0,0.0,0.0,0.0,0.0,0.0,0.0,0.0,0.0,0.0,0.0,0.0,0.0,0.0,0.0,0.0,0.0,0.0,0.0,0.0,0.0,0.0,0.0,0.0,0.0,0.0,0.0,0.0,0.0,0.0,0.0,0.0,0.0,0.0,0.0,0.0,0.0,0.0,0.0,0.0,0.0,0.0,0.0,0.0,0.0,0.0,0.0,0.0,0.0,0.0,0.0,0.0,0.0,0.0,0.0,0.0,0.0,0.0,0.0,0.0,0.0,0.0,0.0,0.0,0.0,0.0,0.0,0.0,0.0,0.0,0.0,0.0,0.0,2.317,2.311,2.3064,2.2927,2.2452,2.1591,0.0,0.0,0.0,0.0,0.0,0.0,0.0,0.0,0.0,0.0,0.0,0.0,0.0,0.0,0.0,0.0,0.0,0.0,0.0,0.0,0.0,0.0,0.0,0.0,0.0,0.0,0.0,0.0,0.0,0.0,0.0,0.0,0.0,0.0,0.0,0.0,0.0,0.0,0.0,0.0,0.0,0.0,0.0,0.0,0.0,0.0,0.0,0.0,0.0,0.0,0.0,0.0,0.0,0.0,0.0,0.0,0.0,0.0,0.0,0.0,0.0,0.0,0.0,0.0,0.0,0.0,0.0,0.0,0.0,0.0,0.0,0.0,0.0,0.0,0.0,0.0,0.0,0.0,0.0,0.0,0.0,0.0,0.0,0.0,0.0,0.0,0.0,0.0,0.0,0.0,0.0,0.0,0.0,0.0,0.0,0.0,0.0,0.0,0.0,0.0,0.0,0.0,0.0,0.0,0.0,0.0,0.0,0.0,0.0,2.4863,2.419,2.3307,2.3785,2.3441,0.0,0.0,0.0,0.0,0.0,0.0,0.0,0.0,0.0,0.0,0.0,0.0,0.0,0.0,0.0,0.0,0.0,0.0,0.0,0.0,0.0,0.0,0.0,0.0,0.0,0.0,0.0,0.0,0.0,0.0,0.0,0.0,0.0,0.0,0.0,0.0,0.0,0.0,0.0,0.0,0.0,0.0,0.0,0.0,0.0,0.0,0.0,0.0,0.0,0.0,0.0,0.0,0.0,0.0,0.0,0.0,0.0,0.0,0.0,0.0,0.0,0.0,0.0,0.0,0.0,0.0,0.0,0.0,0.0,0.0,0.0,0.0,0.0,0.0,0.0,0.0,0.0,0.0,0.0,0.0,0.0,0.0,0.0,0.0,0.0,0.0,0.0,0.0,0.0,0.0,0.0,0.0,0.0,0.0,0.0,0.0,0.0,0.0,0.0,0.0,0.0,0.0,0.0,0.0,0.0,0.0,0.0,0.0,0.0,2.4461,2.3824,2.3464,2.3384,2.3665,2.3605,0.0,0.0,0.0,0.0,0.0,0.0,0.0,0.0,0.0,0.0,0.0,0.0,0.0,0.0,0.0,0.0,0.0,0.0,0.0,0.0,0.0,0.0,0.0,0.0,0.0,0.0,0.0,0.0,0.0,0.0,0.0,0.0,0.0,0.0,0.0,0.0,0.0,0.0,0.0,0.0,0.0,0.0,0.0,0.0,0.0,0.0,0.0,0.0,0.0,0.0,0.0,0.0,0.0,0.0,0.0,0.0,0.0,0.0,0.0,0.0,0.0,0.0,0.0,0.0,0.0,0.0,0.0,0.0,0.0,0.0,0.0,0.0,0.0,0.0,0.0,0.0,0.0,0.0,0.0,0.0,0.0,0.0,0.0,0.0,0.0,0.0,0.0,0.0,0.0,0.0,0.0,0.0,0.0,0.0,0.0,0.0,0.0,0.0,0.0,0.0,0.0,0.0,0.0,0.0,0.0,0.0,0.0,0.0,0.0,2.513,0.0,2.4733,0.0,2.473,2.4635,0.0,0.0,0.0,0.0,0.0,0.0,0.0,0.0,0.0,0.0,0.0,0.0,0.0,0.0,0.0,0.0,0.0,0.0,0.0,0.0,0.0,0.0,0.0,0.0,0.0,0.0,0.0,0.0,0.0,0.0,0.0,0.0,0.0,0.0,0.0,0.0,0.0,0.0,0.0,0.0,0.0,0.0,0.0,0.0,0.0,0.0,0.0,0.0,0.0,0.0,0.0,0.0,0.0,0.0,0.0,0.0,0.0,0.0,0.0,0.0,0.0,0.0,0.0,0.0,0.0,0.0,0.0,0.0,0.0,0.0,0.0,0.0,0.0,0.0,0.0,0.0,0.0,0.0,0.0,0.0,0.0,0.0,0.0,0.0,0.0,0.0,0.0,0.0,0.0,0.0,0.0,0.0,0.0,0.0,0.0,0.0,0.0,0.0,0.0,0.0,0.0,0.0,0.0,0.0,0.0,0.0,0.0,0.0,2.7842,2.7944,2.8675,2.8117,2.6705,2.6929,2.6563,0.0,0.0,0.0,0.0,0.0,0.0,0.0,0.0,0.0,0.0,0.0,0.0,0.0,0.0,0.0,0.0,0.0,0.0,0.0,0.0,0.0,0.0,0.0,0.0,0.0,0.0,0.0,0.0,0.0,0.0,0.0,0.0,0.0,0.0,0.0,0.0,0.0,0.0,0.0,0.0,0.0,0.0,0.0,0.0,0.0,0.0,0.0,0.0,0.0,0.0,0.0,0.0,0.0,0.0,0.0,0.0,0.0,0.0,0.0,0.0,0.0,0.0,0.0,0.0,0.0,0.0,0.0,0.0,0.0,0.0,0.0,0.0,0.0,0.0,0.0,0.0,0.0,0.0,0.0,0.0,0.0,0.0,0.0,0.0,0.0,0.0,0.0,0.0,0.0,0.0,0.0,0.0,0.0,0.0,0.0,0.0,0.0,0.0,0.0,0.0,0.0,0.0,0.0,0.0,0.0,0.0,0.0,0.0,0.0,2.6415,2.6919,2.7351,2.7597,2.6533,2.6077,0.0,0.0,0.0,0.0,0.0,0.0,0.0,0.0,0.0,0.0,0.0,0.0,0.0,0.0,0.0,0.0,0.0,0.0,0.0,0.0,0.0,0.0,0.0,0.0,0.0,0.0,0.0,0.0,0.0,0.0,0.0,0.0,0.0,0.0,0.0,0.0,0.0,0.0,0.0,0.0,0.0,0.0,0.0,0.0,0.0,0.0,0.0,0.0,0.0,0.0,0.0,0.0,0.0,0.0,0.0,0.0,0.0,0.0,0.0,0.0,0.0,0.0,0.0,0.0,0.0,0.0,0.0,0.0,0.0,0.0,0.0,0.0,0.0,0.0,0.0,0.0,0.0,0.0,0.0,0.0,0.0,0.0,0.0,0.0,0.0,0.0,0.0,0.0,0.0,0.0,0.0,0.0,0.0,0.0,0.0,0.0,0.0,0.0,0.0,0.0,0.0,0.0,0.0,0.0,0.0,0.0,0.0,0.0,0.0,2.7335,2.7678,2.8234,2.8771,2.7371,2.6601,2.6568,0.0,0.0,0.0,0.0,0.0,0.0,0.0,0.0,0.0,0.0,0.0,0.0,0.0,0.0,0.0,0.0,0.0,0.0,0.0,0.0,0.0,0.0,0.0,0.0,0.0,0.0,0.0,0.0,0.0,0.0,0.0,0.0,0.0,0.0,0.0,0.0,0.0,0.0,0.0,0.0,0.0,0.0,0.0,0.0,0.0,0.0,0.0,0.0,0.0,0.0,0.0,0.0,0.0,0.0,0.0,0.0,0.0,0.0,0.0,0.0,0.0,0.0,0.0,0.0,0.0,0.0,0.0,0.0,0.0,0.0,0.0,0.0,0.0,0.0,0.0,0.0,0.0,0.0,0.0,0.0,0.0,0.0,0.0,0.0,0.0,0.0,0.0,0.0,0.0,0.0,0.0,0.0,0.0,0.0,0.0,0.0,0.0,0.0,0.0,0.0,0.0,0.0,0.0,0.0,0.0,0.0,0.0,0.0,3.0109,3.0522,3.0553,3.0129,2.9125,2.8007,0.0,0.0,0.0,0.0,0.0,0.0,0.0,0.0,0.0,0.0,0.0,0.0,0.0,0.0,0.0,0.0,0.0,0.0,0.0,0.0,0.0,0.0,0.0,0.0,0.0,0.0,0.0,0.0,0.0,0.0,0.0,0.0,0.0,0.0,0.0,0.0,0.0,0.0,0.0,0.0,0.0,0.0,0.0,0.0,0.0,0.0,0.0,0.0,0.0,0.0,0.0,0.0,0.0,0.0,0.0,0.0,0.0,0.0,0.0,0.0,0.0,0.0,0.0,0.0,0.0,0.0,0.0,0.0,0.0,0.0,0.0,0.0,0.0,0.0,0.0,0.0,0.0,0.0,0.0,0.0,0.0,0.0,0.0,0.0,0.0,0.0,0.0,0.0,0.0,0.0,0.0,0.0,0.0,0.0,0.0,0.0,0.0,0.0,0.0,0.0,0.0,0.0,0.0,0.0,0.0,0.0,0.0,0.0,0.0,3.128,3.1553,3.1629,3.1464,2.9632,2.8452,0.0,0.0,0.0,0.0,0.0,0.0,0.0,0.0,0.0,0.0,0.0,0.0,0.0,0.0,0.0,0.0,0.0,0.0,0.0,0.0,0.0,0.0,0.0,0.0,0.0,0.0,0.0,0.0,0.0,0.0,0.0,0.0,0.0,0.0,0.0,0.0,0.0,0.0,0.0,0.0,0.0,0.0,0.0,0.0,0.0,0.0,0.0,0.0,0.0,0.0,0.0,0.0,0.0,0.0,0.0,0.0,0.0,0.0,0.0,0.0,0.0,0.0,0.0,0.0,0.0,0.0,0.0,0.0,0.0,0.0,0.0,0.0,0.0,0.0,0.0,0.0,0.0,0.0,0.0,0.0,0.0,0.0,0.0,0.0,0.0,0.0,0.0,0.0,0.0,0.0,0.0,0.0,0.0,0.0,0.0,0.0,0.0,0.0,0.0,0.0,0.0,0.0,0.0,0.0,0.0,0.0,0.0,0.0,3.0609,3.206,3.2207,3.2416,3.2763,3.0921,2.9507,0.0,0.0,0.0,0.0,0.0,0.0,0.0,0.0,0.0,0.0,0.0,0.0,0.0,0.0,0.0,0.0,0.0,0.0,0.0,0.0,0.0,0.0,0.0,0.0,0.0,0.0,0.0,0.0,0.0,0.0,0.0,0.0,0.0,0.0,0.0,0.0,0.0,0.0,0.0,0.0,0.0,0.0,0.0,0.0,0.0,0.0,0.0,0.0,0.0,0.0,0.0,0.0,0.0,0.0,0.0,0.0,0.0,0.0,0.0,0.0,0.0,0.0,0.0,0.0,0.0,0.0,0.0,0.0,0.0,0.0,0.0,0.0,0.0,0.0,0.0,0.0,0.0,0.0,0.0,0.0,0.0,0.0,0.0,0.0,0.0,0.0,0.0,0.0,0.0,0.0,0.0,0.0,0.0,0.0,0.0,0.0,0.0,0.0,0.0,0.0,0.0,0.0,0.0,0.0,0.0,0.0,0.0,0.0,3.1423,3.2595,3.2798,3.3226,3.3986,3.2635,3.0884,0.0,0.0,0.0,0.0,0.0,0.0,0.0,0.0,0.0,0.0,0.0,0.0,0.0,0.0,0.0,0.0,0.0,0.0,0.0,0.0,0.0,0.0,0.0,0.0,0.0,0.0,0.0,0.0,0.0,0.0,0.0,0.0,0.0,0.0,0.0,0.0,0.0,0.0,0.0,0.0,0.0,0.0,0.0,0.0,0.0,0.0,0.0,0.0,0.0,0.0,0.0,0.0,0.0,0.0,0.0,0.0,0.0,0.0,0.0,0.0,0.0,0.0,0.0,0.0,0.0,0.0,0.0,0.0,0.0,0.0,0.0,0.0,0.0,0.0,0.0,0.0,0.0,0.0,0.0,0.0,0.0,0.0,0.0,0.0,0.0,0.0,0.0,0.0,0.0,0.0,0.0,0.0,0.0,0.0,0.0,0.0,0.0,0.0,0.0,0.0,0.0,0.0,0.0,0.0,0.0,0.0,0.0,0.0,3.2611,3.3883,3.3942,3.4521,3.5681,3.3573,3.1603,0.0,0.0,0.0,0.0,0.0,0.0,0.0,0.0,0.0,0.0,0.0,0.0,0.0,0.0,0.0,0.0,0.0,0.0,0.0,0.0,0.0,0.0,0.0,0.0,0.0,0.0,0.0,0.0,0.0,0.0,0.0,0.0,0.0,0.0,0.0,0.0,0.0,0.0,0.0,0.0,0.0,0.0,0.0,0.0,0.0,0.0,0.0,0.0,2.4285,0.0,0.0,0.0,0.0,0.0,0.0,0.0,0.0,0.0,0.0,0.0,0.0,0.0,0.0,0.0,0.0,0.0,0.0,0.0,0.0,0.0,0.0,0.0,0.0,0.0,0.0,0.0,0.0,0.0,0.0,0.0,0.0,0.0,0.0,0.0,0.0,0.0,0.0,0.0,0.0,0.0,0.0,0.0,0.0,0.0,0.0,0.0,0.0,0.0,0.0,0.0,0.0,0.0,0.0,0.0,0.0,0.0,0.0,0.0,3.3191,3.4468,3.4645,3.5421,3.692,3.5602,3.3896,0.0,0.0,0.0,0.0,0.0,0.0,0.0,0.0,0.0,0.0,0.0,0.0,0.0,0.0,0.0,0.0,0.0,0.0,0.0,0.0,0.0,0.0,0.0,0.0,0.0,0.0,0.0,0.0,0.0,0.0,0.0,0.0,0.0,0.0,0.0,0.0,0.0,0.0,0.0,0.0,0.0,0.0,0.0,0.0,0.0,0.0,0.0,0.0,0.0,0.0,0.0,0.0,0.0,0.0,0.0,0.0,0.0,0.0,0.0,0.0,0.0,0.0,0.0,0.0,0.0,0.0,0.0,0.0,0.0,0.0,0.0,0.0,0.0,0.0,0.0,0.0,0.0,0.0,0.0,0.0,0.0,0.0,0.0,0.0,0.0,0.0,0.0,0.0,0.0,0.0,0.0,0.0,0.0,0.0,0.0,0.0,0.0,0.0,0.0,0.0,0.0,0.0,0.0,0.0,0.0,0.0,0.0,3.2233,3.3567,3.4981,3.5343,3.6403,3.8193,3.7837,3.6697,3.47,0.0,0.0,0.0,0.0,0.0,0.0,0.0,0.0,0.0,0.0,0.0,0.0,0.0,0.0,0.0,0.0,0.0,0.0,0.0,0.0,0.0,0.0,0.0,0.0,0.0,0.0,0.0,0.0,0.0,0.0,0.0,0.0,0.0,0.0,0.0,0.0,0.0,0.0,2.704,2.7593,0.0,0.0,0.0,0.0,0.0,0.0,0.0,0.0,2.7163,0.0,0.0,0.0,0.0,0.0,0.0,0.0,0.0,0.0,0.0,0.0,0.0,0.0,0.0,0.0,0.0,0.0,0.0,0.0,0.0,0.0,0.0,0.0,0.0,0.0,0.0,0.0,0.0,0.0,0.0,0.0,0.0,0.0,0.0,0.0,0.0,0.0,0.0,0.0,0.0,0.0,0.0,0.0,0.0,0.0,0.0,0.0,0.0,0.0,0.0,0.0,0.0,0.0,0.0,0.0,0.0,3.2975,3.2943,3.3877,3.593,3.6997,3.8147,3.9351,3.9258,3.8818,3.7899,0.0,0.0,0.0,0.0,0.0,0.0,0.0,0.0,0.0,0.0,0.0,0.0,0.0,0.0,0.0,0.0,0.0,0.0,0.0,0.0,0.0,0.0,0.0,0.0,0.0,0.0,0.0,0.0,0.0,0.0,0.0,0.0,0.0,0.0,0.0,0.0,0.0,0.0,0.0,2.8659,2.8835,0.0,0.0,0.0,0.0,0.0,0.0,0.0,0.0,2.7819,0.0,0.0,0.0,0.0,0.0,0.0,0.0,0.0,0.0,0.0,0.0,0.0,0.0,0.0,0.0,0.0,0.0,0.0,0.0,0.0,0.0,0.0,0.0,0.0,0.0,0.0,0.0,0.0,0.0,0.0,0.0,0.0,0.0,0.0,0.0,0.0,0.0,0.0,0.0,0.0,0.0,0.0,0.0,0.0,0.0,0.0,0.0,0.0,0.0,0.0,0.0,0.0,0.0,0.0,0.0,3.4588,3.547,3.6755,3.8309,3.9186,4.0178,4.124,4.0177,3.9423,0.0,0.0,0.0,0.0,0.0,0.0,0.0,0.0,0.0,0.0,0.0,0.0,0.0,0.0,0.0,0.0,0.0,0.0,0.0,0.0,0.0,0.0,0.0,0.0,0.0,0.0,0.0,0.0,0.0,0.0,0.0,0.0,0.0,0.0,0.0,0.0,0.0,0.0,0.0,0.0,3.0975,3.13,3.1973,0.0,0.0,0.0,0.0,0.0,0.0,2.8369,2.8162,0.0,0.0,0.0,0.0,0.0,0.0,0.0,0.0,0.0,0.0,0.0,0.0,0.0,0.0,0.0,0.0,0.0,0.0,0.0,0.0,0.0,0.0,0.0,0.0,0.0,0.0,0.0,0.0,0.0,0.0,0.0,0.0,0.0,0.0,0.0,0.0,0.0,0.0,0.0,0.0,0.0,0.0,0.0,0.0,0.0,0.0,0.0,0.0,0.0,0.0,0.0,0.0,0.0,0.0,0.0,3.5838,3.7577,3.9176,4.0459,4.1112,4.1874,4.2848,4.0923,3.9777,0.0,0.0,0.0,0.0,0.0,0.0,0.0,0.0,0.0,0.0,0.0,0.0,0.0,0.0,0.0,0.0,0.0,0.0,0.0,0.0,0.0,0.0,0.0,0.0,0.0,0.0,0.0,0.0,0.0,0.0,0.0,0.0,0.0,0.0,0.0,0.0,0.0,0.0,0.0,0.0,0.0,3.3831,3.4093,3.2835,0.0,0.0,0.0,0.0,2.9792,2.9725,0.0,0.0,0.0,0.0,0.0,0.0,0.0,0.0,0.0,0.0,0.0,0.0,0.0,0.0,0.0,0.0,0.0,0.0,0.0,0.0,0.0,0.0,0.0,0.0,0.0,0.0,0.0,0.0,0.0,0.0,0.0,0.0,0.0,0.0,0.0,0.0,0.0,0.0,0.0,0.0,0.0,0.0,0.0,0.0,0.0,0.0,0.0,0.0,0.0,0.0,0.0,0.0,0.0,0.0,0.0,0.0,3.6535,3.7111,3.8578,4.0884,4.185,4.2438,4.2861,4.1697,4.0627,0.0,0.0,0.0,0.0,0.0,0.0,0.0,0.0,0.0,0.0,0.0,0.0,0.0,0.0,0.0,0.0,0.0,0.0,0.0,0.0,0.0,0.0,0.0,0.0,0.0,0.0,0.0,0.0,0.0,0.0,0.0,0.0,0.0,0.0,0.0,0.0,0.0,0.0,0.0,0.0,0.0,3.5121,3.4594,3.4365,3.4047,0.0,0.0,3.3893,3.404,3.4965,0.0,0.0,0.0,0.0,0.0,0.0,0.0,0.0,0.0,0.0,0.0,0.0,0.0,0.0,0.0,0.0,0.0,0.0,0.0,0.0,0.0,0.0,0.0,0.0,0.0,0.0,0.0,0.0,0.0,0.0,0.0,0.0,0.0,0.0,0.0,0.0,0.0,0.0,0.0,0.0,0.0,0.0,0.0,0.0,0.0,0.0,0.0,0.0,0.0,0.0,0.0,0.0,0.0,0.0,0.0,3.67,3.8345,3.9762,4.1345,4.3071,4.3522,4.3656,4.3444,4.1735,4.0122,0.0,0.0,0.0,0.0,0.0,0.0,0.0,0.0,0.0,0.0,0.0,0.0,0.0,0.0,0.0,0.0,0.0,0.0,0.0,0.0,0.0,0.0,0.0,0.0,0.0,0.0,0.0,0.0,0.0,0.0,0.0,0.0,0.0,0.0,0.0,0.0,0.0,0.0,0.0,0.0,0.0,0.0,3.6961,3.6796,0.0,0.0,0.0,3.5235,3.5336,0.0,0.0,0.0,0.0,0.0,0.0,0.0,0.0,0.0,0.0,0.0,0.0,0.0,0.0,0.0,0.0,0.0,0.0,0.0,0.0,0.0,0.0,0.0,0.0,0.0,0.0,0.0,0.0,0.0,0.0,0.0,0.0,0.0,0.0,0.0,0.0,0.0,0.0,0.0,0.0,0.0,0.0,0.0,0.0,0.0,0.0,0.0,0.0,0.0,0.0,0.0,0.0,0.0,0.0,0.0,0.0,0.0,3.9612,4.186,4.3572,4.4683,4.4681,4.4447,4.3859,4.1768,0.0,0.0,0.0,0.0,0.0,0.0,0.0,0.0,0.0,0.0,0.0,0.0,0.0,0.0,0.0,0.0,0.0,0.0,0.0,0.0,0.0,0.0,0.0,0.0,0.0,0.0,0.0,3.0352,0.0,0.0,0.0,0.0,0.0,0.0,0.0,0.0,0.0,0.0,0.0,0.0,0.0,0.0,3.8611,3.8955,3.9044,3.8955,0.0,0.0,3.6982,3.7146,3.7706,3.7324,0.0,0.0,0.0,0.0,0.0,0.0,0.0,0.0,0.0,0.0,0.0,0.0,0.0,0.0,0.0,0.0,0.0,0.0,0.0,0.0,0.0,0.0,0.0,0.0,0.0,0.0,0.0,0.0,0.0,0.0,0.0,0.0,0.0,0.0,0.0,0.0,0.0,0.0,0.0,0.0,0.0,0.0,0.0,0.0,0.0,0.0,0.0,0.0,0.0,0.0,0.0,0.0,0.0,0.0,0.0,3.9612,4.186,4.3572,4.4683,4.4681,4.4447,4.3872,4.2173,4.02,0.0,0.0,0.0,0.0,0.0,0.0,0.0,0.0,0.0,0.0,0.0,0.0,0.0,0.0,0.0,0.0,0.0,0.0,0.0,0.0,0.0,0.0,0.0,0.0,0.0,0.0,0.0,0.0,0.0,0.0,0.0,0.0,0.0,0.0,0.0,0.0,0.0,0.0,0.0,0.0,0.0,4.0086,3.9616,4.0711,4.1621,0.0,0.0,4.0666,4.088,4.1839,4.0989,3.6379,0.0,0.0,0.0,0.0,0.0,0.0,0.0,0.0,0.0,0.0,0.0,0.0,0.0,0.0,0.0,0.0,0.0,0.0,0.0,0.0,0.0,0.0,0.0,0.0,0.0,0.0,0.0,0.0,0.0,0.0,0.0,0.0,0.0,0.0,0.0,0.0,0.0,0.0,0.0,0.0,0.0,0.0,0.0,0.0,0.0,0.0,0.0,0.0,0.0,0.0,0.0,0.0,0.0,3.8443,4.0562,4.3424,4.5217,4.5754,4.6399,4.5924,4.4349,4.3954,4.226,0.0,0.0,0.0,0.0,0.0,0.0,0.0,0.0,0.0,0.0,0.0,0.0,0.0,0.0,0.0,0.0,0.0,0.0,0.0,0.0,0.0,0.0,0.0,0.0,0.0,0.0,0.0,0.0,3.4967,3.5167,3.4761,0.0,0.0,0.0,0.0,0.0,0.0,0.0,0.0,0.0,0.0,4.1479,4.2416,4.3348,0.0,0.0,4.2574,4.2024,4.1882,4.1598,4.0546,3.7963,3.69,0.0,0.0,0.0,0.0,0.0,0.0,0.0,0.0,0.0,0.0,0.0,0.0,0.0,0.0,0.0,0.0,0.0,0.0,0.0,0.0,0.0,0.0,0.0,0.0,0.0,0.0,0.0,0.0,0.0,0.0,0.0,0.0,0.0,0.0,0.0,0.0,0.0,0.0,0.0,0.0,0.0,0.0,0.0,0.0,0.0,0.0,0.0,0.0,0.0,0.0,0.0,0.0,3.9369,4.1599,4.4556,4.6347,4.684,4.7624,4.7038,4.5098,4.5212,4.3645,0.0,0.0,0.0,0.0,0.0,0.0,0.0,0.0,0.0,0.0,0.0,0.0,0.0,0.0,0.0,0.0,0.0,0.0,0.0,0.0,0.0,0.0,0.0,0.0,0.0,0.0,0.0,0.0,3.6612,3.6539,3.6087,0.0,0.0,0.0,0.0,0.0,0.0,0.0,0.0,0.0,0.0,4.3109,4.4394,4.5209,4.5397,4.4649,4.3678,4.293,4.282,4.191,4.0849,3.9578,0.0,0.0,0.0,0.0,0.0,0.0,0.0,0.0,0.0,0.0,0.0,0.0,0.0,0.0,0.0,0.0,0.0,0.0,0.0,0.0,0.0,0.0,0.0,0.0,0.0,0.0,0.0,3.9606,0.0,0.0,3.8709,0.0,0.0,0.0,0.0,0.0,0.0,0.0,0.0,0.0,0.0,0.0,0.0,0.0,0.0,0.0,0.0,0.0,0.0,0.0,0.0,0.0,0.0,4.0575,4.2472,4.4936,4.6743,4.7923,4.8016,4.7411,4.6132,4.5583,4.398,4.1071,0.0,0.0,0.0,0.0,0.0,0.0,0.0,0.0,0.0,0.0,0.0,0.0,0.0,0.0,0.0,0.0,0.0,0.0,0.0,0.0,0.0,0.0,0.0,0.0,0.0,0.0,3.7061,3.6985,3.7016,0.0,0.0,0.0,0.0,0.0,0.0,0.0,0.0,0.0,0.0,4.2682,4.5001,4.5012,4.585,4.6461,4.6311,4.4626,4.35,4.4083,4.3594,4.2708,0.0,0.0,0.0,0.0,0.0,0.0,0.0,0.0,0.0,0.0,0.0,0.0,0.0,0.0,0.0,0.0,0.0,0.0,0.0,0.0,0.0,0.0,0.0,0.0,0.0,0.0,0.0,4.2352,4.2223,0.0,0.0,0.0,0.0,0.0,0.0,0.0,0.0,0.0,0.0,0.0,4.4231,4.4788,0.0,0.0,0.0,0.0,0.0,0.0,0.0,0.0,0.0,0.0,0.0,0.0,4.1864,4.3791,4.705,4.8978,4.9494,4.986,4.9213,4.7637,4.7712,4.6071,4.2446,0.0,0.0,0.0,0.0,0.0,0.0,0.0,0.0,0.0,0.0,0.0,0.0,0.0,0.0,0.0,0.0,0.0,0.0,0.0,0.0,0.0,0.0,0.0,0.0,0.0,3.8592,0.0,0.0,0.0,0.0,0.0,0.0,0.0,0.0,0.0,0.0,0.0,4.0562,4.1665,4.4452,4.6481,4.6855,4.7659,4.7939,0.0,0.0,0.0,0.0,0.0,0.0,0.0,0.0,0.0,0.0,0.0,0.0,0.0,0.0,3.7622,3.4958,3.4083,3.3753,3.3771,0.0,0.0,0.0,0.0,0.0,0.0,0.0,0.0,0.0,0.0,0.0,0.0,0.0,0.0,4.4661,0.0,4.4065,0.0,0.0,0.0,0.0,0.0,0.0,0.0,0.0,4.6471,4.7252,4.7369,4.7911,4.765,0.0,4.6517,4.4728,0.0,0.0,0.0,0.0,0.0,0.0,0.0,0.0,4.3284,4.501,4.8031,4.9839,5.013,5.0457,4.9959,4.8596,4.8464,4.7072,4.4226,4.265,4.0776,0.0,0.0,0.0,0.0,0.0,0.0,0.0,0.0,0.0,0.0,0.0,0.0,0.0,0.0,0.0,0.0,0.0,0.0,0.0,0.0,0.0,0.0,0.0,3.9205,0.0,0.0,0.0,0.0,0.0,0.0,0.0,0.0,0.0,4.1291,4.2295,4.3454,4.4531,4.6806,4.8332,4.8172,0.0,0.0,0.0,0.0,0.0,0.0,0.0,4.397,4.4303,4.3698,4.3245,4.3306,4.3329,4.2997,4.1993,0.0,0.0,3.8037,3.7034,3.666,3.6417,3.6161,3.5768,3.5216,3.5345,3.5276,0.0,0.0,0.0,0.0,0.0,0.0,0.0,0.0,4.749,4.7171,0.0,4.6412,0.0,0.0,0.0,0.0,0.0,4.6058,0.0,0.0,4.9515,5.0429,4.9916,4.9901,4.987,4.9766,4.9145,4.8096,4.6614,4.3958,0.0,0.0,0.0,0.0,0.0,0.0,4.4695,4.5976,4.8037,4.933,4.9909,4.9922,4.9604,4.8981,4.7916,4.7058,4.6293,4.4427,4.2775,4.1383,3.9303,0.0,0.0,0.0,0.0,0.0,0.0,0.0,0.0,0.0,0.0,0.0,0.0,0.0,0.0,0.0,0.0,0.0,0.0,0.0,0.0,3.8604,0.0,0.0,0.0,0.0,0.0,0.0,0.0,0.0,0.0,0.0,4.3702,4.5549,4.7139,4.767,0.0,0.0,0.0,0.0,4.9062,4.8393,4.7585,4.7065,4.7065,4.7019,4.6802,4.6427,0.0,0.0,4.554,4.4278,4.3474,4.3023,4.369,4.3522,4.1295,4.0158,3.9427,3.8868,3.8521,3.8206,3.7738,3.7854,3.7865,5.3284,0.0,0.0,0.0,0.0,4.9331,4.9937,5.2027,5.1368,5.0524,4.9604,4.8929,0.0,0.0,0.0,0.0,0.0,0.0,5.0458,5.1396,5.2189,5.2948,5.37,5.3716,5.346,5.298,5.2756,5.1725,4.9901,4.9053,4.6355,4.1935,0.0,0.0,0.0,0.0,4.5349,4.6264,4.8385,4.9806,5.0435,4.999,4.9423,4.8733,4.8418,4.7707,4.657,4.5955,4.4588,4.2345,4.1631,0.0,0.0,0.0,0.0,0.0,0.0,0.0,0.0,0.0,0.0,0.0,0.0,0.0,0.0,0.0,0.0,0.0,0.0,0.0,3.9903,4.0798,4.1276,0.0,0.0,0.0,0.0,0.0,0.0,0.0,0.0,0.0,4.8018,4.7834,4.7686,0.0,0.0,5.0294,4.8216,4.8976,4.9422,4.8635,4.8285,0.0,4.8162,4.7763,4.7548,4.7866,4.8291,4.83,4.771,4.7327,4.69,4.6324,4.6249,4.58,4.422,4.2705,4.1737,4.1416,4.0869,4.0492,4.0691,4.0842,4.0632,5.6432,5.4538,5.2368,5.203,5.2764,5.1569,5.2225,5.4083,5.3406,5.2806,5.2221,5.1658,5.0346,4.8542,4.8586,0.0,0.0,0.0,5.2882,5.4136,5.4152,5.4712,5.5693,5.5426,5.5086,5.4689,5.4429,5.3658,5.2394,5.1858,4.9587,4.5682,0.0,0.0,4.3552,4.5018,4.6153,4.6858,4.8455,4.9451,4.9851,4.9466,4.905,4.8635,4.8934,4.8587,4.7475,4.7415,4.6624,4.474,4.3855,4.2734,0.0,0.0,0.0,0.0,0.0,0.0,0.0,0.0,0.0,0.0,0.0,3.881,3.8246,0.0,0.0,0.0,4.0445,4.1344,4.2493,4.2575,0.0,0.0,0.0,0.0,0.0,0.0,0.0,4.6372,4.7631,4.8917,5.0306,5.0009,4.9664,4.9646,5.0788,5.0932,4.9271,0.0,5.0206,4.9654,4.9309,4.9122,4.9122,4.847,4.8158,4.8543,4.8604,4.8604,4.8604,4.8604,4.8346,4.7768,4.7482,4.6903,4.5552,4.4429,4.3277,4.231,4.1579,4.122,4.1231,4.1323,4.1231,5.8839,5.85,5.5361,5.4099,5.4114,5.4022,5.4345,5.4852,5.4268,5.4283,5.473,5.4329,5.3867,5.3235,5.2272,0.0,5.2878,5.3596,5.4616,5.5758,5.5775,5.6067,5.6588,5.5929,5.5547,5.5482,5.4872,5.4531,5.444,5.3203,5.1836,5.0424,4.8363,4.7141,4.6824,4.6718,4.6976,4.7592,4.8214,4.8517,4.8604,4.8646,4.8702,4.8728,4.955,4.963,4.8862,4.8891,4.8694,4.7949,4.6131,4.4813,4.4122,0.0,0.0,0.0,0.0,0.0,0.0,0.0,0.0,0.0,0.0,0.0,0.0,0.0,0.0,0.0,4.1436,0.0,4.5694,4.4187,0.0,0.0,0.0,4.5263,4.5814,4.6515,4.7259,4.802,0.0,0.0,5.1133,5.1944,5.2404,5.2385,5.2378,5.2095,5.1213,5.1101,5.1182,5.1032,5.0493,4.9986,4.9947,4.9293,4.8666,4.8604,4.8604,4.8547,4.8512,4.8496,4.8266,4.7609,4.7511,4.7094,4.5813,4.5293,4.4448,4.2166,4.1467,4.1053,4.0443,4.0408,4.0521,5.9255,5.867,5.7346,5.71,5.7485,5.6469,5.6423,5.6961,5.633,5.5822,5.5454,5.5581,5.5676,5.585,5.615,5.6668,5.7431,5.819,5.8655,5.899,5.899,5.8751,5.8382,5.8215,5.783,5.7293,5.7146,5.6741,5.6205,5.5853,5.4967,5.3524,5.2365,5.0157,4.7026,4.7284,4.7579,4.769,4.7762,4.8096,4.8589,4.9244,4.959,4.959,5.0384,5.0729,5.0522,5.0514,5.0231,4.9542,4.9007,4.8178,4.6979,4.4354,0.0,0.0,0.0,0.0,0.0,0.0,0.0,0.0,0.0,4.0616,3.9364,0.0,4.2082,0.0,4.444,4.6059,4.7272,4.6915,0.0,0.0,4.7376,4.7228,4.7365,4.8037,4.8765,4.9492,5.0727,5.1657,5.1995,5.2723,5.3213,5.3213,5.3212,5.2702,5.1352,5.1641,5.1806,5.1273,5.0957,5.0805,5.0745,5.0128,4.9365,4.8687,4.8604,4.8435,4.7942,4.7835,4.7619,4.7004,4.6834,4.6533,4.573,4.5156,4.4363,4.3153,4.2611,4.2279,4.1841,4.1439,4.1022,5.9301,5.9147,5.8177,5.8613,5.9752,5.7682,5.7041,5.7333,5.6964,5.6594,5.621,5.6866,5.7523,5.8239,5.8646,5.9093,5.9539,6.0283,6.0639,6.0605,6.0266,5.9877,5.9471,5.8829,5.8287,5.7898,5.7881,5.7679,5.7289,5.6968,5.6376,5.5564,5.4487,5.2561,4.9954,4.9467,4.9239,4.9218,4.9179,4.934,4.9702,5.0206,5.0438,5.0461,5.0858,5.09,5.0568,5.0261,5.0101,4.9987,4.9384,4.8696,4.7903,4.5758,4.4179,0.0,0.0,0.0,0.0,0.0,0.0,0.0,0.0,0.0,0.0,0.0,4.325,4.435,4.5872,4.7242,4.8308,4.8392,4.8632,4.9292,4.9678,4.9729,4.9376,5.0002,5.0625,5.1031,5.1792,5.2435,5.279,5.323,5.3518,5.3518,5.3518,5.3197,5.2418,5.2566,5.2677,5.2255,5.1878,5.1496,5.1182,5.0729,5.0128,4.939,4.9163,4.8864,4.7824,4.7619,4.7311,4.6388,4.6142,4.5926,4.5295,4.4894,4.4415,4.3998,4.3475,4.2851,4.1977,4.1407,4.0873,5.9085,5.9393,5.8177,5.8925,6.0691,5.81,5.7128,5.7411,5.7112,5.7131,5.7386,5.8225,5.9284,6.0385,6.03,6.03,6.0436,6.1129,6.145,6.14,6.0622,6.0199,6.0047,5.8676,5.7983,5.7881,5.7881,5.7881,5.7865,5.7256,5.69,5.6748,5.5412,5.4363,5.3602,5.2145,5.1262,5.0962,5.1043,5.1091,5.1107,5.1199,5.1208,5.1094,5.118,5.0872,5.0098,4.95,4.9476,5.0056,4.8945,4.8258,4.8281,4.6853,4.537,0.0,4.3098,0.0,0.0,0.0,0.0,0.0,0.0,0.0,0.0,4.4215,4.4587,4.6007,4.6887,4.7919,4.9306,4.9424,4.9949,5.12,5.1911,5.2046,5.1422,5.1928,5.235,5.2435,5.2452,5.2723,5.3382,5.3518,5.3518,5.3518,5.3518,5.345,5.345,5.3416,5.3433,5.3518,5.292,5.2203,5.1533,5.1311,5.0957,5.0245,4.9908,4.9363,4.7865,4.7515,4.7019,4.5803,4.5449,4.5264,4.4679,4.4587,4.4587,4.4534,4.4096,4.327,4.187,4.1199,4.0617,5.8531,5.8134,5.7333,5.7696,5.8702,5.8184,5.9013,6.0631,5.8762,5.8757,6.0145,5.9794,6.0501,6.189,6.1349,6.14,6.1958,6.211,6.2178,6.2144,6.1417,6.0723,6.008,5.9218,5.8473,5.7915,5.7881,5.7881,5.7881,5.7746,5.7391,5.6782,5.5936,5.5124,5.4397,0.0,0.0,0.0,5.08,5.1091,5.1107,5.1733,5.1779,5.1152,5.1713,0.0,5.0977,5.084,5.0821,5.0956,5.0704,0.0,0.0,0.0,0.0,0.0,0.0,0.0,0.0,0.0,0.0,0.0,4.4942,4.4113,4.4615,4.6092,4.7428,4.8325,4.9576,5.0744,5.1589,5.1674,5.1792,5.2063,5.2215,5.2249,5.2114,5.2232,5.2536,5.3196,5.3264,5.3331,5.3467,5.3518,5.3518,5.3518,5.3518,5.3518,5.3518,5.3518,5.3518,5.3467,5.3331,5.2938,5.22,5.2076,5.1789,5.1032,5.0283,4.9417,4.8089,4.7239,4.6397,4.5164,4.4772,4.4803,4.4618,4.461,4.4641,4.461,4.4496,4.4097,4.3071,4.2371,4.174,5.9839,0.0,5.848,5.8949,0.0,5.9232,6.0291,6.2415,5.9968,5.9674,6.097,6.0622,6.0996,6.1856,6.1839,6.1839,6.189,6.2229,6.2398,6.233,6.1231,6.0486,6.0063,5.8981,5.8254,5.7898,5.7881,5.7881,5.7881,5.7881,5.7695,5.7323,5.6258,5.553,5.5108,5.4059,5.2925,5.1746,5.2092,5.2274,5.2291,5.2677,5.2719,5.23,5.1932,0.0,0.0,0.0,0.0,0.0,0.0,0.0,0.0,0.0,0.0,4.7361,4.6312,4.5991,4.6718,4.6769,4.7225,4.8308,4.8088,4.7394,4.6329,4.8257,4.9664,5.0084,5.0794,5.1505,5.2215,5.2317,5.2452,5.2824,5.2909,5.2892,5.2892,5.2909,5.3061,5.3399,5.3518,5.3518,5.3518,5.3518,5.3518,5.3518,5.3518,5.3518,5.3518,5.3518,5.3518,5.3518,5.3518,5.3365,5.2989,5.2885,5.259,5.1842,5.1348,5.0317,4.8583,4.7964,4.7208,4.5943,4.5572,4.5495,4.5141,4.5118,4.501,4.4664,4.461,4.4496,4.3981,4.3364,4.2467,6.1206,6.0384,5.983,6.0494,6.1772,6.0412,6.1249,6.3326,0.0,0.0,0.0,6.1118,6.12,6.1535,6.1992,6.1941,6.1535,6.2127,6.2398,6.2313,6.0808,6.0097,6.003,5.8592,5.7881,5.7881,5.7881,5.7881,5.7881,5.7881,5.7881,5.7746,5.6444,5.5563,5.5225,5.411,5.3518,5.3518,5.3518,5.3518,5.3518,5.3518,5.3416,5.3298,5.2063,5.1352,5.1168,4.9475,4.8714,4.9154,4.8582,4.8291,4.8277,4.8308,4.8088,4.7631,4.7581,4.7834,4.843,4.9052,4.9644,5.0236,5.098,5.0625,4.8785,5.0355,5.1403,5.1371,5.1506,5.186,5.2452,5.252,5.2773,5.345,5.3518,5.3501,5.3501,5.3518,5.3484,5.3518,5.3518,5.3518,5.3518,5.3518,5.3518,5.3518,5.3518,5.3518,5.3518,5.3518,5.3518,5.3518,5.3518,5.3484,5.3467,5.3433,5.3246,5.2626,5.2378,5.1543,4.9861,4.9108,4.8417,4.7045,4.681,4.6508,4.5958,4.5772,4.5526,4.4933,4.4795,4.4748,4.4549,4.4058,4.319,6.0931,5.9733,5.9636,6.0216,6.1136,6.0911,6.1849,6.3406,6.2447,6.2087,6.2172,6.1548,6.1621,6.2212,6.1704,6.1755,6.2212,6.2347,6.2398,6.2313,6.0808,6.0097,6.0013,5.8592,5.7881,5.7881,5.7881,5.7881,5.7881,5.7881,5.7881,5.7712,5.6427,5.5091,5.3907,5.3602,5.3518,5.3518,5.3518,5.3518,5.3518,5.3518,5.3179,5.2503,5.2266,5.186,5.1185,5.0864,5.0507,4.9982,4.9847,4.9796,4.9779,4.9763,5.0033,5.0541,5.0591,5.061,5.0695,5.0845,5.0914,5.1065,5.1742,5.1995,5.1742,5.1961,5.2147,5.2181,5.2723,5.3213,5.3331,5.3315,5.3348,5.3484,5.3518,5.3518,5.3518,5.3518,5.3518,5.3518,5.3518,5.3518,5.3518,5.3518,5.3518,5.3518,5.3518,5.3518,5.3518,5.3518,5.3518,5.3518,5.3518,5.3518,5.3518,5.3518,5.3433,5.3348,5.2764,5.2075,5.0974,5.0322,4.9421,4.7947,4.7718,4.7371,4.6686,4.6449,4.6157,4.5642,4.5434,4.5295,4.4849,4.4542,4.4143,6.2671,6.1708,6.1293,6.1374,6.1756,6.1773,6.2176,6.2871,6.255,6.2634,6.2905,6.2229,6.1873,6.1806,6.1856,6.1856,6.1823,6.2212,6.2398,6.2313,6.1264,6.052,6.003,5.8998,5.8287,5.7915,5.7881,5.7881,5.7881,5.7881,5.7881,5.778,5.6427,5.4938,5.3602,5.3518,5.3518,5.3518,5.3518,5.3518,5.3518,5.3518,5.3315,5.2959,5.2553,5.2164,5.1826,5.142,5.1065,5.0693,5.071,5.0693,5.0693,5.0693,5.0862,5.1168,5.1234,5.1234,5.1234,5.1572,5.1995,5.2418,5.2756,5.2942,5.2959,5.2959,5.2959,5.2976,5.3315,5.3518,5.3518,5.3518,5.3518,5.3518,5.3518,5.3518,5.3518,5.3518,5.3518,5.3518,5.3518,5.3518,5.3518,5.3518,5.3518,5.3518,5.3518,5.3518,5.3518,5.3518,5.3518,5.3518,5.3518,5.3518,5.3518,5.3518,5.3518,5.3518,5.3195,5.2648,5.1968,5.1424,5.0827,4.9829,4.9241,4.8653,4.7919,4.7391,4.6914,4.6326,4.6126,4.5957,4.5726,4.5418,4.4772,6.4072,6.3193,6.2634,6.2398,6.2398,6.2398,6.2482,6.2618,6.2482,6.2821,6.3362,6.2719,6.2076,6.1637,6.2127,6.2093,6.1687,6.2127,6.2398,6.233,6.1637,6.0875,6.008,5.9353,5.8609,5.7949,5.7881,5.7881,5.7881,5.7881,5.7712,5.7323,5.6258,5.4972,5.3534,5.3518,5.3518,5.3518,5.3518,5.3518,5.3518,5.3518,5.3518,5.3467,5.2909,5.257,5.2536,5.2029,5.1657,5.1438,5.1471,5.1422,5.1454,5.1438,5.1539,5.1658,5.1725,5.1725,5.1775,5.2249,5.2841,5.3433,5.3518,5.3518,5.3518,5.3518,5.3518,5.3518,5.3501,5.3518,5.3518,5.3518,5.3518,5.3518,5.3518,5.3518,5.3518,5.3518,5.3518,5.3501,5.3534,5.3534,5.3501,5.3517,5.3534,5.3501,5.3518,5.3518,5.3518,5.3518,5.3518,5.3518,5.3518,5.3518,5.3518,5.3518,5.3518,5.3518,5.3467,5.3179,5.2697,5.2574,5.2255,5.1418,5.0627,4.988,4.918,4.8353,4.7623,4.7004,4.6819,4.6696,4.6234,4.568,4.5048,6.3785,6.2584,6.2431,6.2398,6.2398,6.2398,6.277,6.3226,6.2702,6.2821,6.3362,6.2719,6.2347,6.2296,6.2364,6.2347,6.2262,6.2364,6.2398,6.2313,6.1637,6.0875,6.0131,5.937,5.8626,5.7983,5.7898,5.7881,5.7881,5.7881,5.7256,5.6019,5.5767,5.4989,5.3687,5.3518,5.3518,5.3518,5.3518,5.3518,5.3518,5.3518,5.3518,5.3501,5.3433,5.3382,5.3348,5.3315,5.2942,5.23,5.2215,5.2198,5.2198,5.2198,5.2536,5.3196,5.3264,5.3298,5.3281,5.3365,5.3399,5.3501,5.3518,5.3518,5.3534,5.3518,5.3518,5.3551,5.3534,5.3518,5.3518,5.3518,5.3518,5.3518,5.3518,5.3518,5.3518,5.3518,5.3518,5.3518,5.3568,5.3634,5.3551,5.3601,5.3651,5.3636,5.3551,5.3551,5.3619,5.3534,5.3518,5.3518,5.3518,5.3518,5.3518,5.3518,5.3518,5.3518,5.3518,5.3399,5.328,5.323,5.3127,5.2307,5.1422,5.0611,4.9915,4.9094,4.8291,4.7696,4.7404,4.7142,4.6018,4.5264,4.4726,6.4258,6.3616,6.2736,6.2398,6.2398,6.2398,6.2567,6.2804,6.2533,6.2567,6.2804,6.2516,6.2398,6.2398,6.2398,6.2398,6.2398,6.2398,6.2398,6.2364,6.2076,6.1552,6.0791,6.003,5.9268,5.8558,5.8118,5.7881,5.7881,5.7881,5.7357,5.641,5.5953,5.5175,5.4194,5.3721,5.3518,5.3518,5.3518,5.3518,5.3518,5.3518,5.3518,5.3518,5.3518,5.3518,5.3518,5.3518,5.3348,5.3044,5.2993,5.3027,5.301,5.301,5.3162,5.3484,5.3518,5.3518,5.3518,5.3518,5.3518,5.3518,5.3518,5.367,5.411,5.4143,5.4143,5.4093,5.3771,5.3518,5.3518,5.3518,5.3518,5.3518,5.3518,5.3518,5.3518,5.3518,5.3518,5.3501,5.3551,5.3618,5.3601,5.3651,5.3871,5.4042,5.3873,5.3619,5.3991,5.3788,5.3518,5.3518,5.3518,5.3518,5.3518,5.3518,5.3518,5.3518,5.3518,5.3518,5.3518,5.3518,5.3365,5.3024,5.1951,5.1145,5.0713,4.9454,4.8481,4.8127,4.7742,4.7296,4.6357,4.5649,4.518,6.4478,6.4106,6.2922,6.2398,6.2398,6.2398,6.2398,6.2398,6.2398,6.2398,6.2398,6.2398,6.2398,6.2398,6.2398,6.2398,6.2398,6.2398,6.2398,6.2398,6.2398,6.1992,6.1281,6.0486,5.9725,5.8981,5.8237,5.7881,5.7881,5.7881,5.7526,5.6816,5.6275,5.5632,5.4921,5.4346,5.411,5.411,5.411,5.411,5.4143,5.411,5.3923,5.3551,5.3518,5.3518,5.3518,5.3518,5.3518,5.3501,5.3518,5.3518,5.3518,5.3518,5.3518,5.3518,5.3518,5.3518,5.3518,5.3518,5.3518,5.3518,5.3653,5.4008,5.4499,5.4769,5.4786,5.4549,5.4093,5.3771,5.3518,5.3518,5.3518,5.3518,5.3518,5.3518,5.3518,5.3518,5.3518,5.3501,5.3551,5.3568,5.3668,5.3668,5.3821,5.4177,5.3873,5.3653,5.4093,5.3822,5.3518,5.3518,5.3518,5.3518,5.3518,5.3518,5.3518,5.3518,5.3518,5.3518,5.3518,5.3518,5.3518,5.3127,5.2095,5.1496,5.1311,5.019,4.8795,4.8507,4.8065,4.7404,4.665,4.6034,4.5372,6.4208,6.348,6.2702,6.2398,6.2398,6.2398,6.2398,6.2398,6.2398,6.2398,6.2398,6.2398,6.2398,6.2398,6.2398,6.2398,6.2398,6.2398,6.2398,6.2398,6.2398,6.2009,6.1264,6.0486,5.9725,5.8998,5.8254,5.7881,5.7881,5.7865,5.7526,5.685,5.6731,5.6376,5.5733,5.5512,5.5581,5.5446,5.5463,5.5547,5.5512,5.5564,5.4888,5.3771,5.3551,5.3619,5.3551,5.3534,5.3534,5.3518,5.3551,5.3534,5.3518,5.3518,5.3518,5.3518,5.3534,5.3518,5.3518,5.3551,5.3551,5.3585,5.4042,5.4515,5.46,5.5108,5.5175,5.4651,5.4499,5.4211,5.3619,5.3518,5.3518,5.3518,5.3518,5.3518,5.3518,5.3518,5.3518,5.3501,5.3601,5.3684,5.3667,5.3584,5.3619,5.3687,5.3568,5.3602,5.3704,5.3619,5.3518,5.3518,5.3518,5.3518,5.3518,5.3518,5.3518,5.3518,5.3518,5.3518,5.3518,5.3518,5.3518,5.3331,5.2572,5.2076,5.1915,5.1048,4.9654,4.8854,4.8126,4.7444,4.6726,4.6065,4.5387,6.3886,6.2787,6.2499,6.2398,6.2398,6.2398,6.2398,6.2398,6.2398,6.2398,6.2398,6.2398,6.2398,6.2398,6.2398,6.2398,6.2398,6.2398,6.2398,6.2398,6.2398,6.1992,6.1264,6.0469,5.9725,5.8981,5.8237,5.7881,5.7881,5.7881,5.7763,5.7459,5.7019,5.6647,5.6376,5.5901,5.5681,5.5681,5.5681,5.5681,5.575,5.5681,5.5429,5.4972,5.4921,5.4702,5.4211,5.4668,5.4499,5.3551,5.394,5.3974,5.3568,5.3518,5.3518,5.3551,5.394,5.3991,5.3636,5.394,5.3991,5.3568,5.3721,5.4211,5.4515,5.4837,5.4871,5.4668,5.46,5.4279,5.3721,5.3518,5.3518,5.3518,5.3518,5.3534,5.3518,5.3518,5.3518,5.3501,5.3601,5.3717,5.3684,5.3651,5.3821,5.4177,5.3856,5.3721,5.3991,5.3839,5.3518,5.3518,5.3518,5.3518,5.3518,5.3518,5.3518,5.3518,5.3518,5.3518,5.3518,5.3518,5.3518,5.3433,5.2868,5.243,5.2128,5.1124,4.9931,4.9416,4.8578,4.7542,4.6726,4.6203,4.5495,6.3751,6.2499,6.2398,6.2398,6.2398,6.2398,6.2398,6.2398,6.2398,6.2398,6.2398,6.2398,6.2398,6.2398,6.2398,6.2398,6.2398,6.2398,6.2398,6.2398,6.2398,6.2127,6.1569,6.0588,5.9844,5.9268,5.8338,5.7881,5.7881,5.7881,5.7881,5.7831,5.7357,5.7154,5.707,5.6647,5.6427,5.6427,5.6427,5.6427,5.641,5.641,5.6427,5.641,5.6427,5.5936,5.5023,5.5446,5.5294,5.4465,5.4702,5.4735,5.4279,5.4228,5.4228,5.4279,5.4685,5.4752,5.4363,5.4685,5.4735,5.4313,5.4482,5.482,5.526,5.5513,5.553,5.5395,5.5294,5.5006,5.4431,5.4245,5.4126,5.3923,5.3856,5.3856,5.3839,5.3653,5.3534,5.3501,5.3584,5.3634,5.3634,5.3634,5.3855,5.433,5.3822,5.3771,5.4025,5.3856,5.3518,5.3518,5.3518,5.3518,5.3518,5.3518,5.3518,5.3518,5.3518,5.3518,5.3518,5.3518,5.3467,5.3399,5.311,5.2677,5.2004,5.1086,5.0422,4.9923,4.8979,4.7912,4.7157,4.6434,4.5772,6.3751,6.255,6.2415,6.2482,6.2415,6.2482,6.2431,6.2398,6.2398,6.2398,6.2398,6.2398,6.2398,6.2398,6.2398,6.2398,6.2398,6.2398,6.2398,6.2398,6.2398,6.2347,6.211,6.0842,6.008,5.981,5.8541,5.7898,5.7881,5.7881,5.7881,5.7881,5.7831,5.7746,5.7865,5.7695,5.7746,5.7695,5.7662,5.7729,5.7865,5.7712,5.7662,5.7729,5.7729,5.712,5.5852,5.5835,5.5801,5.558,5.5666,5.5716,5.5564,5.553,5.5615,5.5512,5.5666,5.57,5.5632,5.5649,5.57,5.5495,5.6207,5.6342,5.6393,5.6951,5.7087,5.6528,5.6444,5.6308,5.5683,5.5581,5.5344,5.4735,5.46,5.46,5.4482,5.3957,5.3518,5.3534,5.3501,5.3501,5.3518,5.3534,5.3602,5.3619,5.3568,5.3534,5.3653,5.3568,5.3518,5.3518,5.3518,5.3518,5.3518,5.3518,5.3518,5.3518,5.3518,5.3518,5.3518,5.3518,5.3518,5.3416,5.3112,5.2722,5.2505,5.1578,5.0709,5.0085,4.9108,4.8255,4.7511,4.6773,4.6188,6.4038,6.3277,6.37,6.3294,6.2533,6.2939,6.2888,6.2398,6.2398,6.2398,6.2398,6.2398,6.2398,6.2398,6.2398,6.2398,6.2398,6.2398,6.2398,6.2398,6.2398,6.2127,6.1637,6.1163,6.0368,5.9353,5.8372,5.7881,5.7881,5.7881,5.7881,5.7881,5.7881,5.7881,5.7881,5.7881,5.7881,5.7881,5.7881,5.7881,5.7881,5.7881,5.7881,5.7881,5.7881,5.7645,5.7256,5.7205,5.6714,5.5818,5.619,5.6241,5.5852,5.5681,5.5681,5.5767,5.6207,5.6207,5.5852,5.6173,5.6241,5.5919,5.5987,5.6038,5.6055,5.6342,5.641,5.6122,5.6055,5.5919,5.5852,5.619,5.6122,5.5446,5.5361,5.5344,5.5226,5.4702,5.4059,5.3602,5.3518,5.3518,5.3518,5.3518,5.3518,5.3518,5.3518,5.3518,5.3518,5.3518,5.3518,5.3518,5.3518,5.3518,5.3518,5.3518,5.3518,5.3518,5.3518,5.3331,5.3348,5.3315,5.3365,5.3162,5.2892,5.2707,5.2518,5.1836,5.0769,5.0173,4.9379,4.8555,4.7796,4.7019,4.6234,6.4005,6.3176,6.3582,6.3429,6.2821,6.3057,6.3007,6.2753,6.2499,6.2398,6.2398,6.2398,6.2398,6.2398,6.2398,6.2398,6.2398,6.2398,6.2398,6.2398,6.2398,6.211,6.167,6.14,6.0503,5.9184,5.8541,5.8152,5.7881,5.7881,5.7881,5.7881,5.7881,5.7881,5.7881,5.7881,5.7881,5.7881,5.7881,5.7881,5.7881,5.7881,5.7881,5.7881,5.7881,5.7881,5.7881,5.7881,5.7476,5.6765,5.6985,5.6951,5.6562,5.6545,5.6511,5.6613,5.6884,5.7002,5.663,5.6985,5.7036,5.6613,5.6528,5.6545,5.6545,5.6528,5.6511,5.6528,5.6579,5.6528,5.6613,5.6884,5.6968,5.6596,5.6275,5.6021,5.575,5.531,5.4718,5.4194,5.3957,5.3805,5.3585,5.3518,5.3518,5.3518,5.3518,5.3518,5.3518,5.3518,5.3518,5.3518,5.3518,5.3518,5.3518,5.3518,5.3518,5.3518,5.3518,5.3196,5.2993,5.2875,5.2841,5.2367,5.2029,5.1978,5.1782,5.0984,5.0092,4.9748,4.9499,4.8459,4.7497,4.6661,4.595,6.3768,6.2516,6.2533,6.2956,6.326,6.2804,6.2854,6.3193,6.2685,6.2398,6.2398,6.2398,6.2398,6.2398,6.2398,6.2398,6.2398,6.2398,6.2398,6.2398,6.2398,6.233,6.2212,6.1603,6.0622,5.9505,5.915,5.8676,5.8118,5.8068,5.7915,5.7898,5.7881,5.7881,5.7881,5.7881,5.7881,5.7881,5.7881,5.7881,5.7881,5.7881,5.7881,5.7881,5.7881,5.7881,5.7881,5.7881,5.7881,5.7831,5.7763,5.7729,5.7814,5.7881,5.7729,5.7679,5.7848,5.7797,5.7814,5.7712,5.7746,5.7662,5.7645,5.7865,5.7662,5.7577,5.7594,5.7628,5.7662,5.7729,5.7729,5.7763,5.7763,5.778,5.7205,5.6613,5.5884,5.5749,5.5429,5.4854,5.4617,5.4397,5.3805,5.367,5.3619,5.3518,5.3518,5.3518,5.3518,5.3518,5.3518,5.3518,5.3518,5.3518,5.3518,5.3518,5.3518,5.3518,5.3501,5.3264,5.2841,5.2655,5.23,5.1792,5.1386,5.1269,5.1024,5.0357,5.0014,4.9892,4.9248,4.8153,4.7327,4.664,4.5982,6.4055,6.3294,6.3785,6.3514,6.2837,6.3024,6.2973,6.2702,6.2499,6.2398,6.2398,6.2398,6.2398,6.2398,6.2398,6.2398,6.2398,6.2398,6.2398,6.2398,6.2398,6.2398,6.2262,6.1653,6.1112,6.0605,6.0047,5.9421,5.8761,5.8727,5.844,5.7898,5.7949,5.7898,5.7881,5.7881,5.7881,5.7881,5.7881,5.7881,5.7881,5.7881,5.7881,5.7881,5.7881,5.7881,5.7881,5.7881,5.7881,5.7881,5.7881,5.7881,5.7881,5.7881,5.7881,5.7881,5.7881,5.7881,5.7881,5.7881,5.7881,5.7881,5.7881,5.7881,5.7881,5.7881,5.7881,5.7881,5.7881,5.7881,5.7881,5.7881,5.7881,5.7865,5.7645,5.7273,5.6714,5.6494,5.6241,5.5581,5.5429,5.5057,5.4549,5.4262,5.4093,5.3721,5.3585,5.3534,5.3534,5.3518,5.3518,5.3518,5.3518,5.3518,5.3518,5.3518,5.3518,5.3518,5.3501,5.3467,5.3027,5.2672,5.2114,5.1471,5.1065,5.0896,5.0636,5.0193,5.0076,5.0074,4.93,4.8377,4.767,4.7013,4.6258,6.3717,6.3074,6.3497,6.3362,6.2888,6.3007,6.2956,6.2821,6.2516,6.2398,6.2398,6.2398,6.2398,6.2398,6.2398,6.2398,6.2398,6.2398,6.2398,6.2398,6.2398,6.2398,6.2296,6.189,6.1603,6.1281,6.0842,6.0216,5.959,5.9471,5.9049,5.8507,5.8355,5.822,5.7881,5.7881,5.7881,5.7881,5.7881,5.7881,5.7881,5.7881,5.7881,5.7881,5.7881,5.7881,5.7881,5.7881,5.7881,5.7881,5.7881,5.7881,5.7881,5.7881,5.7881,5.7881,5.7881,5.7881,5.7881,5.7881,5.7881,5.7881,5.7881,5.7881,5.7881,5.7881,5.7881,5.7881,5.7881,5.7881,5.7881,5.7881,5.7881,5.7881,5.7881,5.7695,5.7273,5.7256,5.6917,5.6427,5.6139,5.5902,5.5175,5.5057,5.4668,5.4211,5.4025,5.3822,5.3619,5.3568,5.3518,5.3518,5.3518,5.3518,5.3518,5.3518,5.3518,5.3518,5.3501,5.3484,5.3061,5.2604,5.1928,5.1285,5.0828,5.0527,5.0502,5.0405,5.0322,5.0059,4.9383,4.8735,4.8045,4.7532,4.6781,6.3024,6.2398,6.2398,6.277,6.3176,6.2702,6.2753,6.3142,6.2651,6.2398,6.2398,6.2398,6.2398,6.2398,6.2398,6.2398,6.2398,6.2398,6.2398,6.2398,6.2398,6.2398,6.2381,6.233,6.1992,6.1586,6.1434,6.0943,6.0419,6.0233,5.981,5.9235,5.8994,5.8643,5.8186,5.7966,5.7881,5.7881,5.7881,5.7881,5.7881,5.7881,5.7881,5.7881,5.7881,5.7881,5.7881,5.7881,5.7881,5.7881,5.7881,5.7881,5.7881,5.7881,5.7881,5.7881,5.7881,5.7881,5.7881,5.7881,5.7881,5.7881,5.7881,5.7881,5.7881,5.7881,5.7881,5.7881,5.7881,5.7881,5.7881,5.7881,5.7881,5.7881,5.7881,5.7881,5.7881,5.7881,5.7628,5.7053,5.6917,5.6562,5.6105,5.5732,5.5547,5.4888,5.4668,5.4414,5.411,5.3923,5.3737,5.3518,5.3518,5.3518,5.3518,5.3518,5.3518,5.3518,5.3518,5.3399,5.2926,5.2401,5.1725,5.1183,5.0947,5.093,5.0984,5.0884,5.0733,5.0469,5.0043,4.9227,4.8398,4.8102,4.7537,6.2533,6.2398,6.2398,6.2465,6.2601,6.2465,6.2482,6.2634,6.2465,6.2398,6.2398,6.2398,6.2398,6.2398,6.2398,6.2398,6.2398,6.2398,6.2398,6.2398,6.2398,6.2398,6.2398,6.2398,6.2313,6.211,6.2144,6.1755,6.1197,6.0977,6.0655,5.9928,5.9353,5.8947,5.871,5.8118,5.7881,5.7881,5.7881,5.7881,5.7881,5.7881,5.7881,5.7881,5.7881,5.7881,5.7881,5.7881,5.7881,5.7881,5.7881,5.7881,5.7881,5.7881,5.7881,5.7881,5.7881,5.7881,5.7881,5.7881,5.7881,5.7881,5.7881,5.7881,5.7881,5.7881,5.7881,5.7881,5.7881,5.7881,5.7881,5.7881,5.7881,5.7881,5.7881,5.7881,5.7881,5.7881,5.7763,5.7662,5.7577,5.7374,5.6697,5.6596,5.6241,5.5649,5.5327,5.5091,5.4735,5.4346,5.4042,5.3771,5.3518,5.3518,5.3518,5.3518,5.3518,5.3518,5.3518,5.3484,5.301,5.2655,5.2147,5.1657,5.12,5.1319,5.1708,5.1438,5.1355,5.1053,5.0785,5.019,4.9593,4.9052,4.8439,6.2398,6.2398,6.2398,6.2398,6.2398,6.2398,6.2398,6.2398,6.2398,6.2398,6.2398,6.2398,6.2398,6.2398,6.2398,6.2398,6.2398,6.2398,6.2398,6.2398,6.2398,6.2398,6.2398,6.2398,6.2398,6.2398,6.2381,6.2127,6.189,6.1738,6.1417,6.0655,5.9911,5.9353,5.893,5.8287,5.7915,5.7881,5.7881,5.7881,5.7881,5.7881,5.7881,5.7881,5.7881,5.7881,5.7881,5.7881,5.7881,5.7881,5.7881,5.7881,5.7881,5.7881,5.7881,5.7881,5.7881,5.7881,5.7881,5.7881,5.7881,5.7881,5.7881,5.7881,5.7881,5.7881,5.7881,5.7881,5.7881,5.7881,5.7881,5.7881,5.7881,5.7881,5.7881,5.7881,5.7881,5.7881,5.7881,5.7881,5.7831,5.7679,5.7442,5.7239,5.6934,5.6359,5.6207,5.5953,5.5226,5.4837,5.4448,5.4126,5.3704,5.3534,5.3518,5.3518,5.3518,5.3518,5.3518,5.3518,5.3315,5.3044,5.279,5.2384,5.208,5.2334,5.2587,5.23,5.1995,5.1793,5.1526,5.1243,5.0793,5.0057,4.9518,6.2398,6.2398,6.2398,6.2398,6.2398,6.2398,6.2398,6.2398,6.2398,6.2398,6.2398,6.2398,6.2398,6.2398,6.2398,6.2398,6.2398,6.2398,6.2398,6.2398,6.2398,6.2398,6.2398,6.2398,6.2398,6.2398,6.2398,6.233,6.233,6.2364,6.1975,6.14,6.0689,5.9979,5.9218,5.8473,5.8034,5.7915,5.7881,5.7881,5.7881,5.7881,5.7881,5.7881,5.7881,5.7881,5.7881,5.7881,5.7881,5.7881,5.7881,5.7881,5.7881,5.7881,5.7881,5.7881,5.7881,5.7881,5.7881,5.7881,5.7881,5.7881,5.7881,5.7881,5.7881,5.7881,5.7881,5.7881,5.7881,5.7881,5.7881,5.7881,5.7881,5.7881,5.7881,5.7881,5.7881,5.7881,5.7881,5.7881,5.7881,5.778,5.778,5.7679,5.7391,5.7137,5.7002,5.6697,5.5987,5.5412,5.5091,5.4532,5.411,5.3653,5.3568,5.3551,5.3551,5.3501,5.3501,5.3501,5.3501,5.3348,5.3162,5.3298,5.323,5.3281,5.3247,5.3044,5.2773,5.257,5.2419,5.2235,5.1732,5.1045,5.0642,6.2398,6.2398,6.2398,6.2398,6.2398,6.2398,6.2398,6.2398,6.2398,6.2398,6.2398,6.2398,6.2398,6.2398,6.2398,6.2398,6.2398,6.2398,6.2398,6.2398,6.2398,6.2398,6.2398,6.2398,6.2398,6.2398,6.2398,6.2398,6.2398,6.2381,6.2279,6.2042,6.14,6.0639,5.9928,5.9201,5.8558,5.8237,5.8135,5.8118,5.8118,5.8034,5.7932,5.7915,5.7881,5.7881,5.7881,5.7881,5.7881,5.7881,5.7881,5.7881,5.7915,5.7915,5.7932,5.7881,5.7881,5.7898,5.8,5.7898,5.7881,5.7881,5.7881,5.7881,5.7881,5.7881,5.7881,5.7881,5.7881,5.7881,5.7881,5.7881,5.7881,5.7881,5.7881,5.7881,5.7881,5.7881,5.7881,5.7881,5.7881,5.7881,5.7881,5.7881,5.7695,5.7526,5.7476,5.7222,5.6714,5.6241,5.5902,5.5243,5.4532,5.4042,5.3636,5.3618,5.3617,5.3551,5.3517,5.3551,5.3534,5.3501,5.3518,5.3518,5.3518,5.3433,5.345,5.3518,5.3399,5.3044,5.3129,5.3213,5.2707,5.2152,5.1916,6.2398,6.2398,6.2398,6.2398,6.2398,6.2398,6.2398,6.2398,6.2398,6.2398,6.2398,6.2398,6.2398,6.2398,6.2398,6.2398,6.2398,6.2398,6.2398,6.2398,6.2398,6.2398,6.2398,6.2398,6.2398,6.2398,6.2398,6.2398,6.2398,6.2398,6.2398,6.2212,6.1653,6.1095,6.0655,5.9962,5.9421,5.9032,5.8981,5.8981,5.8947,5.871,5.8355,5.8,5.7915,5.7881,5.7881,5.7881,5.7881,5.7881,5.7881,5.7881,5.8017,5.8237,5.8304,5.8017,5.7949,5.8118,5.8287,5.8186,5.8051,5.8389,5.8169,5.7898,5.7881,5.7881,5.7881,5.7881,5.7881,5.7881,5.7881,5.7881,5.7881,5.7881,5.7881,5.7881,5.7881,5.7881,5.7881,5.7881,5.7881,5.7881,5.7881,5.7881,5.7881,5.7881,5.7881,5.7628,5.7306,5.6951,5.6528,5.5902,5.5158,5.4549,5.4126,5.4042,5.3888,5.3754,5.3686,5.372,5.3584,5.3568,5.3501,5.3518,5.3518,5.3501,5.3518,5.3518,5.3518,5.3518,5.3433,5.3382,5.345,5.3281,5.2892,6.2398,6.2398,6.2398,6.2398,6.2398,6.2398,6.2398,6.2398,6.2398,6.2398,6.2398,6.2398,6.2398,6.2398,6.2398,6.2398,6.2398,6.2398,6.2398,6.2398,6.2398,6.2398,6.2398,6.2398,6.2398,6.2398,6.2398,6.2398,6.2398,6.2398,6.2398,6.2279,6.1755,6.14,6.1129,6.0622,6.0368,6.0114,6.0097,6.0097,5.9928,5.9522,5.8981,5.8406,5.8338,5.8406,5.8507,5.8524,5.8524,5.849,5.844,5.8406,5.8457,5.8913,5.8947,5.8457,5.8355,5.8693,5.8896,5.8812,5.8778,5.9167,5.8693,5.8372,5.8068,5.8051,5.7881,5.7881,5.7881,5.7881,5.7881,5.7881,5.7881,5.7881,5.7881,5.7881,5.7881,5.7881,5.7881,5.7881,5.7881,5.7881,5.7881,5.7881,5.7881,5.7881,5.7881,5.7881,5.7577,5.7374,5.6985,5.6461,5.5835,5.5158,5.4787,5.4618,5.4415,5.4143,5.4109,5.4142,5.3871,5.3618,5.3618,5.3619,5.3501,5.3501,5.3501,5.3518,5.3518,5.3518,5.3518,5.3518,5.3518,5.3518,5.3281,6.2398,6.2398,6.2398,6.2398,6.2398,6.2398,6.2398,6.2398,6.2398,6.2398,6.2398,6.2398,6.2398,6.2398,6.2398,6.2398,6.2398,6.2398,6.2398,6.2398,6.2398,6.2398,6.2398,6.2398,6.2398,6.2398,6.2398,6.2398,6.2398,6.2398,6.2398,6.233,6.2229,6.1975,6.145,6.1247,6.0791,6.0266,6.0182,6.0182,6.0148,6.003,5.9894,5.9759,5.9691,5.9624,5.9556,5.9539,5.9607,5.9674,5.9742,5.9793,5.9844,5.9877,5.9945,5.986,5.9844,5.9894,5.9962,5.9708,5.9691,5.9894,5.9742,5.9455,5.8964,5.8321,5.8017,5.7881,5.7881,5.7881,5.7881,5.7881,5.7881,5.7881,5.7881,5.7881,5.7881,5.7881,5.7881,5.7881,5.7881,5.7881,5.7881,5.7881,5.7881,5.7881,5.7881,5.7881,5.7831,5.7628,5.7476,5.6985,5.6427,5.5767,5.5482,5.5313,5.5043,5.4669,5.4703,5.4685,5.4481,5.4278,5.3837,5.382,5.3703,5.3585,5.3551,5.3534,5.3501,5.3518,5.3518,5.3518,5.3518,5.3518,5.3518,6.2398,6.2398,6.2398,6.2398,6.2398,6.2398,6.2398,6.2398,6.2398,6.2398,6.2398,6.2398,6.2398,6.2398,6.2398,6.2398,6.2398,6.2398,6.2398,6.2398,6.2398,6.2398,6.2398,6.2398,6.2398,6.2398,6.2398,6.2398,6.2398,6.2398,6.2398,6.2398,6.2398,6.2262,6.1856,6.1907,6.1738,6.1501,6.14,6.118,6.0892,6.0757,6.0571,6.0148,6.0148,6.0165,6.0165,6.0097,6.0097,6.0097,6.0097,6.0097,6.0233,6.0469,6.0774,6.0808,6.1197,6.118,6.0825,6.0402,6.0436,6.0537,6.0402,5.9894,5.9522,5.8998,5.8524,5.8541,5.8118,5.7966,5.7949,5.7881,5.7881,5.7915,5.8118,5.7983,5.7983,5.7881,5.7881,5.7881,5.7881,5.7881,5.7881,5.7881,5.7881,5.7881,5.7881,5.7881,5.7881,5.7814,5.7679,5.7526,5.6968,5.6359,5.6176,5.6009,5.5774,5.5536,5.5655,5.5587,5.5365,5.5075,5.4684,5.4291,5.4106,5.3954,5.3719,5.3551,5.3534,5.3501,5.3518,5.3518,5.3518,5.3518,5.3518,6.2398,6.2398,6.2398,6.2398,6.2398,6.2398,6.2398,6.2398,6.2398,6.2398,6.2398,6.2398,6.2398,6.2398,6.2398,6.2398,6.2398,6.2398,6.2398,6.2398,6.2398,6.2398,6.2398,6.2398,6.2398,6.2398,6.2398,6.2398,6.2398,6.2398,6.2398,6.2398,6.2398,6.2364,6.2381,6.233,6.2229,6.2212,6.2212,6.1992,6.1653,6.1569,6.1247,6.0909,6.0672,6.0672,6.0655,6.074,6.074,6.0774,6.0825,6.0892,6.0943,6.1298,6.1552,6.1637,6.1958,6.1992,6.1569,6.1214,6.1095,6.1112,6.0926,6.0486,6.0351,5.9742,5.9248,5.9285,5.893,5.8609,5.8457,5.8524,5.8626,5.8676,5.8643,5.8406,5.8237,5.8304,5.8118,5.7881,5.7881,5.7881,5.7881,5.7881,5.7881,5.7881,5.7881,5.7881,5.7881,5.7881,5.7831,5.7729,5.7492,5.7055,5.7043,5.6826,5.6574,5.644,5.6526,5.6456,5.6199,5.5908,5.5533,5.514,5.4781,5.4494,5.4361,5.3922,5.3517,5.3501,5.3518,5.3518,5.3518,5.3501,5.3501,6.2398,6.2398,6.2398,6.2398,6.2398,6.2398,6.2398,6.2398,6.2398,6.2398,6.2398,6.2398,6.2398,6.2398,6.2398,6.2398,6.2398,6.2398,6.2398,6.2398,6.2398,6.2398,6.2398,6.2398,6.2398,6.2398,6.2398,6.2398,6.2398,6.2398,6.2398,6.2398,6.2398,6.2398,6.2398,6.2398,6.2398,6.2398,6.2398,6.2398,6.2229,6.2212,6.2144,6.2144,6.2161,6.2229,6.2212,6.2026,6.1941,6.1924,6.189,6.1907,6.1856,6.2009,6.2127,6.2195,6.2262,6.2279,6.2059,6.2026,6.2195,6.2059,6.1704,6.1214,6.1163,6.0486,6.0097,5.9996,5.9691,5.9674,5.9759,5.9911,5.959,5.9505,5.9336,5.9201,5.9049,5.8964,5.871,5.8101,5.7966,5.8118,5.7983,5.8017,5.7898,5.7881,5.7881,5.7881,5.7881,5.7881,5.7881,5.7831,5.7884,5.7821,5.7982,5.78,5.7549,5.7449,5.7484,5.7276,5.6999,5.6674,5.6419,5.6146,5.5787,5.5379,5.492,5.4514,5.4108,5.3669,5.3501,5.3601,5.3584,5.3584,5.3551,6.2398,6.2398,6.2398,6.2398,6.2398,6.2398,6.2398,6.2398,6.2398,6.2398,6.2398,6.2398,6.2398,6.2398,6.2398,6.2398,6.2398,6.2398,6.2398,6.2398,6.2398,6.2398,6.2398,6.2398,6.2398,6.2398,6.2398,6.2398,6.2398,6.2398,6.2398,6.2398,6.2398,6.2398,6.2398,6.2398,6.2398,6.2398,6.2398,6.2398,6.2398,6.2398,6.2398,6.2398,6.2398,6.2398,6.2364,6.2381,6.2398,6.2398,6.2398,6.2398,6.2398,6.2398,6.2398,6.2398,6.2398,6.2398,6.2398,6.2398,6.2398,6.2364,6.2127,6.1941,6.1856,6.1264,6.0909,6.0723,6.0419,6.0317,6.0131,6.0097,5.9996,6.008,6.0097,6.0013,5.986,5.9742,5.9488,5.8964,5.871,5.866,5.8423,5.8169,5.8017,5.7881,5.7881,5.7881,5.7881,5.7881,5.7881,5.7918,5.7918,5.8027,5.8224,5.8351,5.8459,5.841,5.8308,5.8083,5.7755,5.7565,5.7326,5.7069,5.6777,5.6315,5.5787,5.5223,5.4682,5.4141,5.3903,5.3833,5.3767,5.3701,5.3668,6.2398,6.2398,6.2398,6.2398,6.2398,6.2398,6.2398,6.2398,6.2398,6.2398,6.2398,6.2398,6.2398,6.2398,6.2398,6.2398,6.2398,6.2398,6.2398,6.2398,6.2398,6.2398,6.2398,6.2398,6.2398,6.2398,6.2398,6.2398,6.2398,6.2398,6.2398,6.2398,6.2398,6.2398,6.2398,6.2398,6.2398,6.2398,6.2398,6.2398,6.2398,6.2398,6.2398,6.2398,6.2398,6.2398,6.2398,6.2398,6.2398,6.2398,6.2398,6.2398,6.2398,6.2398,6.2398,6.2398,6.2398,6.2398,6.2398,6.2398,6.2398,6.2381,6.2381,6.2347,6.2245,6.1907,6.1637,6.1702,6.1189,6.0778,6.0838,6.1075,6.1104,6.1257,6.1184,6.1044,6.0672,6.0469,6.0216,5.9877,5.9624,5.9319,5.9235,5.8964,5.8493,5.8223,5.7881,5.7881,5.7881,5.7881,5.7881,5.7918,5.7971,5.8116,5.8243,5.8403,5.8562,5.8737,5.8686,5.8789,5.8581,5.834,5.8202,5.8031,5.767,5.7221,5.6724,5.6195,5.5393,5.456,5.4339,5.4151,5.3915,5.3849,5.3816,6.2398,6.2398,6.2398,6.2398,6.2398,6.2398,6.2398,6.2398,6.2398,6.2398,6.2398,6.2398,6.2398,6.2398,6.2398,6.2398,6.2398,6.2398,6.2398,6.2398,6.2398,6.2398,6.2398,6.2398,6.2398,6.2398,6.2398,6.2398,6.2398,6.2398,6.2398,6.2398,6.2398,6.2398,6.2398,6.2398,6.2398,6.2398,6.2398,6.2398,6.2398,6.2398,6.2398,6.2398,6.2398,6.2398,6.2398,6.2398,6.2398,6.2398,6.2398,6.2398,6.2398,6.2398,6.2398,6.2398,6.2398,6.2398,6.2398,6.2398,6.2398,6.2398,6.2398,6.242,6.242,6.2335,6.2329,6.2331,6.222,6.2365,6.2523,6.2484,6.231,6.2164,6.2002,6.1861,6.1472,6.1247,6.1011,6.0905,6.0478,6.008,6.0047,5.9864,5.917,5.8663,5.8104,5.7935,5.8022,5.7954,5.7954,5.7991,5.8027,5.8224,5.8367,5.849,5.8649,5.8858,5.8978,5.8978,5.9012,5.8788,5.8737,5.8823,5.8478,5.7927,5.7582,5.7255,5.6364,5.5444,5.4761,5.4454,5.4184,5.4218,5.4442,6.2398,6.2398,6.2398,6.2398,6.2398,6.2398,6.2398,6.2398,6.2398,6.2398,6.2398,6.2398,6.2398,6.2398,6.2398,6.2398,6.2398,6.2398,6.2398,6.2398,6.2398,6.2398,6.2398,6.2398,6.2398,6.2398,6.2398,6.2398,6.2398,6.2398,6.2398,6.2398,6.2398,6.2398,6.2398,6.2398,6.2398,6.2398,6.2398,6.2398,6.2398,6.2398,6.2398,6.2398,6.2398,6.2398,6.2398,6.2398,6.2398,6.2398,6.2398,6.2398,6.2398,6.2398,6.2398,6.2398,6.2398,6.2398,6.2398,6.2398,6.2398,6.2398,6.2398,6.2459,6.2554,6.2593,6.2693,6.2847,6.2808,6.2885,6.2872,6.2719,6.2552,6.2513,6.2385,6.2385,6.2142,6.2087,6.1968,6.1979,6.1694,6.0972,6.068,6.0819,6.031,5.9817,5.9341,5.8608,5.8456,5.8235,5.8133,5.8063,5.8135,5.8295,5.849,5.8596,5.8719,5.8909,5.8978,5.8978,5.9012,5.9012,5.8978,5.8909,5.8788,5.8616,5.8288,5.7892,5.722,5.6449,5.5972,5.5578,5.5508,5.558,5.577,6.2398,6.2398,6.2398,6.2398,6.2398,6.2398,6.2398,6.2398,6.2398,6.2398,6.2398,6.2398,6.2398,6.2398,6.2398,6.2398,6.2398,6.2398,6.2398,6.2398,6.2398,6.2398,6.2398,6.2398,6.2398,6.2398,6.2398,6.2398,6.2398,6.2398,6.2398,6.2398,6.2398,6.2398,6.2398,6.2398,6.2398,6.2398,6.2398,6.2398,6.2398,6.2398,6.2398,6.2398,6.2398,6.2398,6.2398,6.2398,6.2398,6.2398,6.2398,6.2398,6.2398,6.2398,6.2398,6.2398,6.2398,6.2398,6.2398,6.2515,6.2515,6.2554,6.2476,6.2515,6.2632,6.2654,6.2847,6.3,6.3038,6.3114,6.3152,6.2979,6.2825,6.277,6.277,6.2714,6.2697,6.2586,6.2552,6.2612,6.2569,6.1879,6.1412,6.1521,6.149,6.1064,6.06,5.9901,5.9166,5.8857,5.8651,5.8617,5.8413,5.8506,5.8647,5.8753,5.8875,5.8978,5.9012,5.9012,5.9012,5.9012,5.9012,5.9012,5.8909,5.884,5.884,5.8461,5.7961,5.7737,5.76,5.7239,5.6943,5.6792,5.6795,6.2381,6.2398,6.2398,6.2398,6.2398,6.2398,6.2398,6.2398,6.2398,6.2398,6.2398,6.2398,6.2398,6.2398,6.2398,6.2398,6.2398,6.2398,6.2398,6.2398,6.2398,6.2398,6.2398,6.2398,6.2398,6.2398,6.2398,6.2398,6.2398,6.2398,6.2398,6.2398,6.2398,6.2398,6.2398,6.2398,6.2398,6.2398,6.2398,6.2398,6.2398,6.2398,6.2398,6.2398,6.2398,6.2398,6.2398,6.2398,6.2398,6.2398,6.2398,6.2398,6.2398,6.2398,6.2398,6.2398,6.2398,6.2398,6.2437,6.2537,6.2632,6.2632,6.2515,6.2554,6.271,6.2847,6.3,6.3152,6.3227,6.3377,6.3452,6.3265,6.3076,6.3038,6.3038,6.2983,6.3,6.2983,6.2966,6.3007,6.3028,6.2717,6.2593,6.2614,6.2384,6.2193,6.1833,6.1647,6.0874,5.9876,5.9669,5.9479,5.9225,5.8801,5.8838,5.9029,5.8909,5.8978,5.9012,5.9012,5.9012,5.903,5.9012,5.9012,5.9012,5.8978,5.8944,5.8944,5.8823,5.8719,5.8461,5.8236,5.7702,5.7443,5.7342,6.2229,6.2381,6.2398,6.2398,6.2398,6.2398,6.2398,6.2398,6.2398,6.2398,6.2398,6.2398,6.2398,6.2398,6.2398,6.2398,6.2398,6.2398,6.2398,6.2398,6.2398,6.2398,6.2398,6.2398,6.2398,6.2398,6.2398,6.2398,6.2398,6.2398,6.2398,6.2398,6.2398,6.2398,6.2398,6.2398,6.2398,6.2398,6.2398,6.2398,6.2398,6.2398,6.2398,6.2398,6.2398,6.2398,6.2398,6.2398,6.2398,6.2398,6.2398,6.2398,6.2398,6.2398,6.2398,6.2398,6.2398,6.2398,6.2437,6.2476,6.2554,6.271,6.2671,6.2847,6.3017,6.3131,6.3244,6.334,6.3414,6.3526,6.3526,6.3377,6.3265,6.3227,6.3227,6.3189,6.3152,6.3134,6.3172,6.3285,6.334,6.3285,6.3247,6.3233,6.3036,6.3033,6.2965,6.2812,6.2365,6.1294,6.0707,6.0463,6.0037,5.9594,5.9355,5.9425,5.9151,5.8978,5.9168,5.9306,5.9271,5.9271,5.9099,5.9012,5.9012,5.9012,5.8995,5.9012,5.9012,5.9012,5.8806,5.8668,5.8495,5.8185,5.8047,6.2093,6.2229,6.2381,6.2398,6.2398,6.2398,6.2398,6.2398,6.2398,6.2398,6.2398,6.2398,6.2398,6.2398,6.2398,6.2398,6.2398,6.2398,6.2398,6.2398,6.2398,6.2398,6.2398,6.2398,6.2398,6.2398,6.2398,6.2398,6.2398,6.2398,6.2398,6.2398,6.2398,6.2398,6.2398,6.2398,6.2398,6.2398,6.2398,6.2398,6.2398,6.2398,6.2398,6.2398,6.2398,6.2398,6.2398,6.2398,6.2398,6.2398,6.2398,6.2398,6.2398,6.2398,6.2398,6.2398,6.2398,6.2398,6.2437,6.2615,6.2693,6.2808,6.2941,6.3189,6.3227,6.334,6.3414,6.3526,6.3563,6.36,6.3563,6.3489,6.3452,6.3414,6.3377,6.3302,6.3302,6.3285,6.3397,6.3526,6.3563,6.3489,6.3526,6.3563,6.3582,6.3422,6.3351,6.3319,6.2957,6.2249,6.1746,6.1521,6.1007,6.0475,6.0252,6.008,5.9977,5.9995,6.0185,6.0185,5.9858,5.9616,5.9547,5.9288,5.9012,5.9047,5.9133,5.903,5.9012,5.9012,5.9012,5.8892,5.8806,5.8754,5.8719,6.1997,6.2037,6.2285,6.2398,6.2398,6.2398,6.2398,6.2398,6.2398,6.2398,6.2398,6.2398,6.2398,6.2398,6.2398,6.2398,6.2398,6.2398,6.2398,6.2398,6.2398,6.2398,6.2398,6.2398,6.2398,6.2398,6.2398,6.2398,6.2398,6.2398,6.2398,6.2398,6.2398,6.2398,6.2398,6.2398,6.2398,6.2398,6.2398,6.2398,6.2398,6.2398,6.2398,6.2398,6.2398,6.2398,6.2398,6.2398,6.2398,6.2398,6.2398,6.2398,6.2398,6.2398,6.2398,6.2398,6.2398,6.2398,6.2476,6.2615,6.2847,6.3038,6.3322,6.3397,6.3414,6.3452,6.3526,6.3563,6.36,6.36,6.3563,6.3563,6.3526,6.3526,6.3489,6.3452,6.3452,6.3434,6.3489,6.36,6.36,6.3563,6.3563,6.36,6.36,6.36,6.36,6.36,6.3393,6.2893,6.2667,6.2406,6.1855,6.1338,6.1236,6.1081,6.1046,6.1099,6.1116,6.0996,6.0634,6.0323,6.003,5.9858,5.9702,5.9357,5.9288,5.9185,5.9081,5.9012,5.9012,5.9012,5.903,5.9099,5.9012,6.1854,6.202,6.2285,6.2398,6.2398,6.2398,6.2398,6.2398,6.2398,6.2398,6.2398,6.2398,6.2398,6.2398,6.2398,6.2398,6.2398,6.2398,6.2398,6.2398,6.2398,6.2398,6.2398,6.2398,6.2398,6.2398,6.2398,6.2398,6.2398,6.2398,6.2398,6.2398,6.2398,6.2398,6.2398,6.2398,6.2398,6.2398,6.2398,6.2398,6.2398,6.2398,6.2398,6.2398,6.2398,6.2398,6.2398,6.2398,6.2398,6.2398,6.2398,6.2398,6.2398,6.2398,6.2398,6.2398,6.2398,6.2398,6.2476,6.2576,6.2753,6.2945,6.3172,6.3377,6.3452,6.3526,6.3563,6.36,6.36,6.36,6.36,6.36,6.36,6.36,6.36,6.36,6.36,6.36,6.36,6.36,6.36,6.36,6.36,6.36,6.36,6.36,6.36,6.36,6.36,6.3307,6.3255,6.2994,6.2617,6.222,6.2117,6.1996,6.191,6.1685,6.1582,6.1479,6.1392,6.1151,6.0875,6.0703,6.0496,6.0133,5.972,5.9323,5.9219,5.9323,5.9375,5.9547,5.9392,5.9392,5.9168,6.1709,6.1773,6.211,6.2285,6.2398,6.2398,6.2398,6.2398,6.2398,6.2398,6.2398,6.2398,6.2398,6.2398,6.2398,6.2398,6.2398,6.2398,6.2398,6.2398,6.2398,6.2398,6.2398,6.2398,6.2398,6.2398,6.2398,6.2398,6.2398,6.2398,6.2398,6.2398,6.2398,6.2398,6.2398,6.2398,6.2398,6.2398,6.2398,6.2398,6.2398,6.2398,6.2398,6.2398,6.2398,6.2398,6.2398,6.2398,6.2398,6.2398,6.2398,6.2398,6.2398,6.2398,6.2398,6.2398,6.2398,6.2398,6.2437,6.2576,6.2714,6.2906,6.321,6.3489,6.3526,6.3563,6.3563,6.36,6.36,6.36,6.36,6.36,6.36,6.36,6.36,6.36,6.36,6.36,6.36,6.36,6.36,6.36,6.36,6.36,6.36,6.36,6.36,6.36,6.36,6.36,6.36,6.3513,6.3065,6.2979,6.2944,6.2806,6.2651,6.241,6.2134,6.2134,6.2134,6.1944,6.1737,6.1427,6.1151,6.0858,6.0427,6.0047,6.0099,6.0358,6.0289,6.0202,5.9978,5.9858,5.9926,6.1588,6.1506,6.1854,6.2133,6.2341,6.2381,6.2398,6.2398,6.2398,6.2398,6.2398,6.2398,6.2398,6.2398,6.2398,6.2398,6.2398,6.2398,6.2398,6.2398,6.2398,6.2398,6.2398,6.2398,6.2398,6.2398,6.2398,6.2398,6.2398,6.2398,6.2398,6.2398,6.2398,6.2398,6.2398,6.2398,6.2398,6.2398,6.2398,6.2398,6.2398,6.2398,6.2398,6.2398,6.2398,6.2398,6.2398,6.2398,6.2398,6.2398,6.2398,6.2398,6.2398,6.2398,6.2398,6.2398,6.2398,6.2398,6.2476,6.2693,6.2847,6.3076,6.336,6.3563,6.3563,6.36,6.36,6.36,6.36,6.36,6.36,6.36,6.36,6.36,6.36,6.36,6.36,6.36,6.36,6.36,6.36,6.36,6.36,6.36,6.36,6.36,6.36,6.36,6.36,6.36,6.36,6.36,6.341,6.3427,6.3531,6.3375,6.3117,6.3151,6.291,6.291,6.2875,6.2703,6.241,6.1996,6.172,6.153,6.1341,6.1047,6.1185,6.1203,6.0944,6.072,6.0789,6.072,6.0961,6.1506,6.1669,6.1934,6.2037,6.2133,6.2302,6.2398,6.2398,6.2398,6.2398,6.2398,6.2398,6.2398,6.2398,6.2398,6.2398,6.2398,6.2398,6.2398,6.2398,6.2398,6.2398,6.2398,6.2398,6.2398,6.2398,6.2398,6.2398,6.2398,6.2398,6.2398,6.2398,6.2398,6.2398,6.2398,6.2398,6.2398,6.2398,6.2398,6.2398,6.2398,6.2398,6.2398,6.2398,6.2398,6.2398,6.2398,6.2398,6.2398,6.2398,6.2398,6.2398,6.2398,6.2398,6.2398,6.2398,6.2398,6.2398,6.2515,6.2654,6.2825,6.3038,6.3285,6.3452,6.3526,6.36,6.36,6.36,6.36,6.36,6.36,6.36,6.36,6.36,6.36,6.36,6.36,6.36,6.36,6.36,6.36,6.36,6.36,6.36,6.36,6.36,6.36,6.36,6.36,6.36,6.36,6.36,6.36,6.36,6.3582,6.3565,6.3427,6.3548,6.3565,6.3358,6.3307,6.3427,6.3134,6.2686,6.2444,6.2289,6.2099,6.1979,6.1703,6.1634,6.1375,6.122,6.1375,6.1582,6.1806]}]]